GFSSGP_con_sbcape_000.txt.gz
CAPE
0 0 0 0 0 0 0 0 0 120 119 168 127 117 274 448 326 509 505 399 260 683 1053 1179 1321 1636 1793 1829 1838 1902 2030 1951 1819 1893 1631 1566 1841 1803 1720 1426 1036 926 860 941 1176 1517 1204 1952 1949
0 0 0 0 0 0 0 0 11 77 194 164 169 254 224 340 539 576 502 341 298 715 1184 1344 1402 1781 1974 1996 2001 1912 2103 2158 2173 2049 1985 1850 1885 1996 1604 1123 1062 1131 1156 1389 1464 1519 1773 1588 1340
0 0 0 0 0 0 0 0 122 169 146 217 247 349 389 292 366 367 388 157 293 636 931 1407 1522 1775 2144 2389 2344 2449 2358 2301 2392 2387 2264 2106 1869 1535 1281 1132 1104 1069 1159 1271 1448 1590 1830 1552 1302
0 0 0 0 0 0 0 21 76 157 289 293 118 212 485 646 463 549 399 233 231 415 719 1144 1474 1762 1924 2008 2126 2309 2445 2374 2234 2183 2142 1991 1739 1018 780 874 828 930 1009 1121 996 761 582 694 1099
0 0 0 0 0 0 5 74 151 134 204 326 247 260 406 837 985 598 529 362 238 266 544 607 1507 1603 1758 1811 1761 1803 1986 2068 2067 2030 1950 1746 1389 1226 947 768 697 729 567 623 761 942 961 1047 1031
0 0 0 0 0 1 33 97 64 18 114 190 199 150 383 984 767 631 574 334 140 229 536 634 1244 1555 1665 1717 1620 1595 1656 1585 1523 1664 1760 1526 1241 1035 793 480 343 247 189 156 186 247 317 409 514
0 0 0 0 0 0 0 0 0 0 5 10 67 37 538 991 736 628 390 234 189 161 394 660 722 905 1094 1070 1168 1318 1541 1378 1218 1193 1122 1114 958 681 450 303 161 123 76 44 10 25 26 49 62
0 0 0 0 0 0 0 0 0 0 0 92 82 3 214 703 949 851 424 255 269 415 420 696 895 835 980 884 624 811 1074 1197 935 773 557 574 577 261 51 0 24 19 0 0 0 0 0 0 0
0 0 0 0 0 0 0 0 0 0 0 1 0 21 254 947 1113 1064 683 431 460 646 920 966 943 947 901 641 626 343 622 920 864 684 412 353 618 563 194 0 0 0 0 0 0 0 0 0 0
0 0 0 0 0 0 0 0 0 0 0 0 0 39 716 1281 1309 1277 1060 697 866 987 1210 1286 1353 1154 912 303 755 709 639 804 1110 1129 1194 874 1005 897 331 86 0 0 0 0 0 0 0 0 0
0 0 0 0 0 0 0 0 0 0 0 0 0 4 898 1252 1366 1263 1067 614 961 1253 1409 1386 1598 1508 1144 359 628 419 352 533 822 1417 1540 1202 1172 875 654 501 158 170 0 25 0 0 0 0 0
0 0 0 0 0 0 0 0 0 0 0 0 0 0 605 1034 838 613 481 549 634 1119 1486 1677 1602 1722 1673 770 456 488 474 423 587 800 1471 1246 945 789 641 282 83 30 26 87 2 3 2 0 0
0 0 0 0 0 0 0 0 0 0 0 0 0 28 302 436 426 443 361 196 437 1152 1750 2077 2054 1879 1357 1573 794 936 870 442 641 693 613 1079 664 492 255 60 0 0 22 38 52 9 0 0 0
0 0 0 0 0 0 0 0 0 0 0 0 0 0 157 282 179 307 462 586 908 1341 1829 2349 2264 1736 835 785 990 629 372 247 234 144 119 483 652 176 9 0 0 0 0 1 23 1 0 0 0
0 0 0 0 0 0 0 0 0 0 0 0 0 0 12 181 85 68 146 492 691 919 1408 2146 1874 647 608 352 236 50 8 21 9 10 25 67 101 29 26 0 0 0 0 27 64 6 0 0 0
0 0 0 0 0 0 0 0 0 0 0 0 0 0 0 135 275 85 147 496 910 932 1314 1572 785 180 153 67 71 32 23 40 39 36 31 34 53 63 55 22 11 17 39 22 45 31 0 0 0
0 0 0 0 0 0 0 0 0 0 0 0 0 0 0 0 374 641 867 814 421 453 931 1207 508 0 16 82 87 91 100 64 0 8 0 7 27 44 88 47 41 82 76 55 58 41 3 0 0
0 0 0 0 0 0 0 0 0 0 0 0 0 0 0 0 247 83 0 1 13 192 732 838 93 21 94 85 46 4 1 0 0 0 0 0 0 0 11 19 44 88 94 64 37 54 38 6 0
0 0 0 0 0 0 0 0 0 0 0 0 0 0 0 0 0 0 0 0 4 368 490 329 75 0 0 0 0 0 0 0 0 0 0 0 0 0 0 4 25 50 71 87 123 106 101 64 28
0 0 0 0 0 0 0 0 0 0 0 0 0 0 0 0 0 0 0 0 0 29 34 0 0 0 0 0 0 0 0 0 0 0 0 0 0 0 0 0 0 0 0 16 41 90 105 129 93
0 0 0 0 0 0 0 0 0 0 0 0 0 0 0 0 0 0 0 0 0 0 0 0 0 0 0 0 0 0 0 0 0 0 0 0 0 0 0 0 0 0 0 0 0 9 25 56 112
0 0 0 0 0 0 0 0 0 0 0 0 0 0 0 0 0 0 0 0 0 0 0 0 0 0 0 0 0 0 0 0 0 0 0 0 0 0 0 0 0 0 0 0 0 0 1 15 18
0 0 0 0 0 0 0 0 0 0 0 0 0 0 0 0 0 0 0 0 0 0 0 0 0 0 0 0 0 0 0 0 0 0 0 0 0 0 0 0 0 0 0 0 0 0 0 3 27
0 0 0 0 0 0 0 0 0 0 0 0 0 0 0 0 0 0 0 0 0 0 0 0 0 0 0 0 0 0 0 0 0 0 0 0 0 0 0 0 0 0 0 0 0 1 4 8 13
0 0 0 0 0 0 0 0 0 0 0 0 0 0 0 0 0 0 0 0 0 0 0 0 0 0 0 0 0 0 0 0 0 0 0 0 0 0 0 0 0 0 0 1 5 13 19 10 11
0 0 0 0 0 0 0 0 0 0 0 0 0 0 0 0 0 0 0 0 0 0 0 0 0 0 0 0 0 0 0 0 0 0 0 0 0 0 0 0 2 10 20 45 53 17 5 20 22
0 0 0 0 0 0 0 0 0 0 0 0 0 0 0 0 0 0 0 0 0 0 0 0 0 0 0 0 0 0 0 0 0 0 0 0 0 0 0 10 9 3 5 12 8 11 9 14 20
0 0 0 0 0 0 0 0 1 0 0 0 0 0 0 0 0 0 2 0 0 0 0 0 0 0 0 0 0 0 0 0 0 0 0 0 3 25 12 3 4 7 13 22 17 14 3 12 9
0 0 0 0 0 0 0 0 0 0 0 0 1 2 0 0 0 4 0 0 0 0 0 0 0 0 0 0 0 0 0 0 0 0 1 9 22 14 14 11 15 23 20 11 14 18 22 16 14
0 0 0 0 0 4 1 0 0 0 3 4 5 3 0 1 11 18 7 0 4 1 0 0 0 0 0 0 0 0 0 0 3 18 19 22 36 39 34 29 22 23 22 15 12 22 14 11 7

GFSSGP_con_sbcape_003.txt.gz
CAPE
0 0 0 0 0 0 8 24 36 27 29 42 0 39 57 204 388 370 286 222 535 848 881 1049 1553 1719 1584 1360 1359 1504 1872 1984 1897 1746 1739 1745 1765 1782 1651 1281 1226 1291 1413 1550 1589 1786 1988 2234 2284
0 0 0 0 0 0 15 1 43 66 9 0 0 18 41 187 410 346 190 190 601 933 1027 1333 1613 1897 1638 1818 1763 1879 1926 2032 1943 1929 2010 2059 1968 1733 1521 1338 1295 1360 1474 1663 1806 1902 2025 1719 1637
0 0 0 0 0 3 15 5 39 1 0 16 0 16 76 144 183 203 140 226 553 823 1179 1567 1666 1965 2216 2297 2071 2062 2161 2346 2393 2270 2105 2192 1848 1334 1148 1128 1078 1177 1273 1286 1219 1120 1392 1825 1600
0 0 0 0 5 0 1 40 13 0 39 39 0 42 247 183 177 215 85 164 327 541 1023 1386 1694 1853 2096 2200 2211 2377 2360 2246 2155 2200 2085 1933 1421 1161 1017 903 964 926 777 816 944 1038 947 898 1021
0 0 0 1 3 5 38 22 7 61 53 16 9 2 233 596 396 190 108 91 143 208 412 1241 1623 1796 1861 1838 1824 1970 2010 1980 1930 1924 1859 1559 1381 1169 830 658 520 346 277 214 295 439 667 970 1192
0 0 8 12 11 18 39 43 32 23 38 1 19 47 388 535 329 268 134 46 11 184 367 434 1265 1672 1627 1632 1565 1603 1550 1404 1373 1482 1360 1208 986 742 521 364 297 222 146 75 25 42 93 152 290
0 2 15 11 16 5 4 2 0 0 0 0 0 34 303 303 323 253 62 0 0 111 323 428 504 794 1187 1132 1234 1401 1365 1187 1097 910 905 896 700 467 259 188 105 52 12 4 0 0 0 1 17
0 0 0 1 0 0 0 0 0 0 4 0 0 0 123 444 336 170 8 0 0 48 355 640 622 534 773 853 790 1019 1138 1057 851 659 527 570 509 287 40 55 24 0 0 0 0 0 0 0 0
0 0 0 0 0 0 0 0 0 0 0 0 0 49 32 589 489 237 72 2 79 213 577 753 773 594 503 245 409 383 625 857 746 682 499 487 797 540 329 30 3 0 0 0 0 0 0 0 0
0 0 0 0 0 0 0 0 0 0 0 0 0 0 263 572 578 316 48 11 236 638 668 1256 1166 897 527 12 246 162 137 651 700 732 809 658 645 550 253 167 109 23 0 0 0 0 0 0 0
0 0 0 0 0 0 0 0 0 0 0 0 0 0 219 386 390 413 286 107 278 693 618 1227 1716 1172 511 117 239 208 160 204 439 760 911 706 699 640 464 388 437 535 129 96 1 8 9 0 0
0 0 0 0 0 0 0 0 0 0 0 0 0 0 171 427 416 372 390 152 331 514 394 1323 1768 1208 765 406 291 282 219 240 221 476 600 606 438 414 383 151 48 13 20 30 36 27 4 0 0
0 0 0 0 0 0 0 0 0 0 0 0 0 0 142 434 499 312 338 211 287 324 509 1059 1684 787 370 578 523 585 559 402 359 296 246 298 285 272 80 16 0 0 1 10 8 1 0 0 0
0 0 0 0 0 0 0 0 0 0 0 0 0 0 11 107 251 194 227 213 207 242 747 1144 1603 835 198 232 563 624 345 154 113 43 39 96 156 132 57 9 0 0 0 0 0 13 0 0 0
0 0 0 0 0 0 0 0 0 0 0 0 0 0 0 18 30 113 247 309 502 453 594 1390 1541 616 110 233 268 75 3 1 3 0 17 23 53 66 67 47 33 15 41 34 45 13 12 1 0
0 0 0 0 0 0 0 3 0 0 0 0 0 0 0 0 10 6 50 223 251 379 591 1108 1263 282 50 100 53 24 30 23 40 29 19 33 62 68 110 72 79 118 144 80 103 33 32 29 17
0 14 0 0 0 0 0 27 0 0 0 0 0 0 0 0 8 57 12 67 250 362 502 846 1161 37 14 91 88 77 50 50 10 8 15 16 13 12 71 82 179 402 226 301 300 227 269 188 123
9 0 0 0 0 0 0 0 0 0 0 0 0 0 0 0 34 219 448 194 199 239 280 680 812 8 41 98 90 19 2 3 0 0 2 7 20 30 61 100 267 276 262 338 381 576 330 384 313
0 0 0 0 0 0 0 0 0 0 0 0 0 0 0 0 132 340 8 18 110 443 356 422 204 113 54 36 0 0 0 0 0 4 0 11 6 0 0 1 67 129 149 320 368 377 385 373 387
0 0 0 0 0 0 0 0 0 0 0 0 0 0 0 0 0 0 0 1 45 465 492 249 54 0 0 0 0 0 0 0 3 7 0 0 0 0 0 0 0 19 13 181 272 373 331 308 377
0 0 0 0 0 0 0 0 0 0 0 0 0 0 0 0 0 0 1 24 51 57 30 2 0 0 0 0 0 0 0 0 0 0 0 0 0 0 0 0 0 0 36 36 210 185 231 167 195
0 0 0 0 0 16 0 119 0 0 0 0 0 0 0 0 0 0 0 0 6 0 0 0 0 0 0 0 0 0 0 0 0 0 0 0 0 0 0 0 0 0 2 46 54 17 132 118 77
0 0 0 0 0 0 0 4 14 0 0 0 0 0 0 0 0 0 0 0 0 0 0 0 0 0 0 0 0 0 0 9 15 8 0 0 0 0 0 0 0 0 0 7 28 52 15 18 46
0 0 0 4 36 39 44 4 203 25 0 0 0 0 0 0 0 0 0 0 0 0 0 0 0 0 0 0 0 0 0 0 0 0 0 0 0 0 0 0 0 11 23 15 30 41 48 20 26
0 3 151 172 116 176 0 0 39 0 0 0 0 0 0 0 0 0 0 0 0 0 0 0 0 0 0 0 0 0 0 0 0 0 0 0 0 0 1 4 12 7 19 44 77 82 10 0 0
0 1 101 0 22 43 0 0 26 0 0 0 0 0 0 0 0 0 0 0 4 0 0 0 0 0 0 0 0 0 0 0 0 0 0 0 0 5 6 13 26 39 44 80 77 49 67 10 16
0 0 0 0 0 0 0 4 1 0 0 0 0 0 3 5 7 1 3 7 0 0 0 0 0 0 0 0 0 0 1 0 1 0 0 0 2 1 11 27 34 68 79 62 61 63 43 71 54
0 0 3 0 0 0 3 0 83 0 2 4 15 18 25 25 30 39 36 30 29 17 7 9 6 10 9 6 1 0 0 0 0 0 0 5 17 29 41 79 61 54 28 10 2 24 51 38 47
2 4 0 0 0 0 1 11 9 1 0 2 4 18 31 51 61 60 43 24 38 42 49 30 32 14 0 0 0 0 0 0 0 6 17 18 15 41 46 35 33 34 13 9 35 39 35 40 50
0 0 0 0 0 0 0 0 2 5 8 10 26 27 25 26 36 39 38 26 30 27 25 32 3 0 0 0 1 0 0 3 9 22 17 23 41 39 44 33 35 37 41 34 41 52 33 33 32

GFSSGP_con_sbcape_006.txt.gz
CAPE
0 0 0 0 0 0 0 6 62 12 3 0 0 0 12 94 365 169 144 372 720 690 730 946 1339 1521 1499 1573 1879 1901 1966 1937 1770 1719 1656 1766 1579 1424 1243 1253 1281 1321 1404 1569 1664 1860 1826 1668 1606
0 0 0 0 0 0 0 9 10 0 0 0 0 16 33 39 126 65 151 486 672 926 981 1131 1410 1595 1705 1795 1745 1845 1866 1694 1906 1875 1713 1674 1551 1301 1107 1040 1248 1181 1155 1181 1212 1194 1697 1662 1434
0 0 0 0 0 0 1 1 8 0 0 5 0 65 49 72 28 61 213 548 1017 1208 1143 1365 1485 1585 1874 2005 1992 1882 1869 1988 2004 1991 1859 1488 1196 913 818 887 1099 869 830 904 993 920 803 841 1092
0 0 0 0 0 2 0 28 0 0 9 19 47 74 71 46 36 43 160 356 458 947 1107 1097 1295 1547 1881 2016 2027 2030 1898 1851 1899 1891 1620 1325 1033 787 673 665 452 326 278 368 453 586 765 942 1096
0 0 0 0 2 17 22 2 0 0 4 0 23 118 201 115 0 17 61 122 197 728 997 1116 1160 1404 1576 1610 1511 1630 1610 1604 1574 1448 1238 1079 861 543 395 295 205 126 92 56 31 43 105 200 380
0 0 0 0 7 1 0 0 7 47 10 0 33 101 255 89 35 14 0 0 19 397 674 711 1196 1257 1291 1333 1324 1270 1174 1245 1330 1248 811 828 572 371 280 195 115 44 21 8 0 0 0 11 43
0 0 0 0 1 8 10 12 0 1 4 2 2 145 191 145 78 0 0 0 21 79 74 285 490 702 889 896 1011 1029 1050 1005 844 798 766 637 485 333 172 88 29 0 0 0 0 0 0 0 0
0 0 0 0 0 3 0 0 0 1 2 0 0 49 104 207 85 0 0 0 0 202 301 434 472 434 402 510 743 935 945 822 696 555 507 554 408 292 153 113 2 0 0 0 0 0 0 0 0
0 0 0 0 0 0 0 0 0 0 0 0 0 0 191 188 87 0 0 0 0 190 574 557 482 618 884 383 445 713 850 776 639 606 427 238 489 305 94 28 16 0 0 0 0 0 0 0 0
0 0 0 0 0 0 0 0 0 0 0 0 0 155 467 300 213 31 0 0 6 422 506 1119 831 750 244 47 300 780 473 639 734 751 778 774 672 561 191 221 98 81 20 1 0 0 0 0 0
0 0 0 0 0 0 0 0 0 0 0 0 0 16 460 462 322 65 0 0 110 501 572 1309 1395 1039 624 390 399 401 398 427 1020 1147 729 814 580 706 623 559 158 115 42 127 0 0 0 0 0
0 0 0 0 0 0 0 0 0 0 0 0 0 0 332 259 166 163 40 9 151 389 348 1394 1251 1127 743 754 403 548 506 313 482 495 695 698 540 563 243 122 0 0 1 0 5 0 0 0 0
0 0 0 0 0 0 0 0 0 0 0 0 0 1 223 263 261 245 256 160 175 312 380 1037 1108 1064 1310 636 1191 1048 731 656 468 576 489 377 322 377 236 80 18 5 0 0 0 0 0 0 0
0 0 0 0 0 0 0 0 0 0 0 0 0 1 108 309 382 346 365 281 107 239 786 1399 1253 984 676 785 790 1104 666 588 657 183 37 125 174 213 159 58 56 23 15 13 1 0 0 0 0
0 0 0 0 0 0 0 0 0 0 0 0 0 0 1 161 183 251 226 366 338 136 562 1099 1202 351 475 587 638 573 28 3 65 63 53 52 84 106 158 102 89 95 113 79 47 61 19 26 2
0 0 0 0 0 0 0 0 0 0 0 0 0 0 0 30 73 198 283 276 115 379 154 425 1030 640 309 517 48 74 116 103 73 134 123 52 62 92 141 130 147 162 239 125 123 94 58 30 17
0 0 5 0 0 0 0 0 0 0 0 0 0 0 0 0 59 73 148 251 297 154 471 896 475 318 134 249 91 79 87 80 53 10 66 24 14 115 95 81 140 187 157 130 166 117 113 119 106
0 1 0 0 0 0 0 0 0 0 0 0 0 0 1 0 12 119 42 118 302 364 316 872 86 0 21 157 103 14 15 26 52 40 6 0 23 8 29 14 72 209 147 80 120 199 95 89 81
0 0 0 3 0 0 0 0 0 0 0 0 0 0 0 17 275 251 360 265 352 550 272 70 225 150 73 95 6 0 0 0 6 3 0 0 2 0 0 0 0 0 0 2 13 2 0 2 48
0 0 0 0 0 0 0 0 0 0 0 0 0 0 52 105 5 8 60 311 625 365 222 117 55 2 0 0 0 0 0 0 0 6 0 0 0 0 0 0 1 0 0 0 0 17 0 0 0
0 0 0 0 0 0 0 3 0 0 0 0 0 0 0 0 0 0 14 50 79 42 25 0 0 0 0 0 0 0 0 0 0 0 0 0 0 0 0 0 0 0 0 0 0 0 0 0 0
0 0 0 0 0 2 0 22 0 0 0 0 0 0 0 0 0 0 0 0 0 1 1 0 0 0 0 0 0 0 0 0 0 0 0 0 0 0 0 0 0 0 0 0 0 0 0 0 0
0 0 0 0 0 0 17 89 109 0 0 0 0 0 0 0 0 0 0 0 0 0 5 0 0 0 0 0 0 0 0 0 0 0 0 0 0 0 0 0 0 0 0 0 4 4 11 1 0
0 0 0 1 19 339 31 101 37 0 0 0 0 0 0 0 0 0 0 0 0 0 0 0 0 0 0 0 0 0 0 0 0 0 0 0 0 0 0 0 0 1 8 13 27 8 0 0 0
0 17 406 598 622 434 34 6 75 0 0 0 0 0 0 0 7 8 4 1 0 0 0 0 0 0 0 4 0 0 1 0 0 0 0 0 0 0 0 0 1 9 27 32 22 24 11 6 0
0 0 436 43 180 147 0 1 0 0 0 0 0 0 0 2 0 0 0 0 0 0 0 10 0 0 0 0 0 1 0 0 0 0 0 0 0 0 0 2 1 2 0 0 0 3 24 16 15
2 0 0 0 2 6 1 70 0 0 0 0 0 0 2 13 8 0 14 31 22 17 24 14 12 2 3 18 1 0 0 0 0 0 0 0 1 0 0 0 0 0 0 1 0 1 3 1 1
0 0 0 122 6 0 0 17 23 5 0 0 1 1 2 35 23 33 16 20 17 10 9 41 23 4 0 0 0 0 0 0 2 1 3 0 0 0 0 1 0 6 5 1 3 3 7 12 13
0 4 0 0 0 0 0 0 0 8 0 0 0 1 19 11 32 25 3 0 0 0 0 1 0 0 0 0 0 0 0 2 1 1 0 0 0 0 0 0 2 10 20 23 20 9 14 14 3
0 0 0 0 0 26 9 0 0 4 0 0 2 3 9 1 0 0 0 0 3 2 0 1 0 0 0 0 0 0 6 0 0 0 0 0 0 10 17 37 31 42 42 47 31 42 54 42 30

GFSSGP_con_sbcape_009.txt.gz
CAPE
0 0 0 0 0 0 0 0 4 0 0 0 15 66 44 44 19 15 462 393 500 604 738 898 977 1164 1440 1543 1575 1607 1546 1564 1558 1598 1609 1367 1103 992 856 841 966 983 991 1080 1069 1312 1517 1470 1369
0 0 0 0 0 0 0 0 0 0 0 3 1 0 1 1 40 188 370 459 640 660 826 915 1023 1213 1376 1428 1503 1530 1597 1639 1742 1715 1410 1207 958 743 676 772 1036 760 692 763 766 775 738 791 887
0 0 0 0 0 0 0 0 0 0 0 9 21 0 0 15 86 119 663 875 860 936 1032 1064 1083 1336 1475 1486 1518 1594 1647 1729 1750 1669 961 935 727 633 666 504 604 311 309 366 453 510 608 751 902
0 0 0 0 0 0 0 0 0 0 0 1 0 0 0 0 69 195 810 789 749 757 882 1047 1231 1345 1483 1576 1574 1491 1486 1486 1559 1381 1097 856 639 528 344 204 102 56 39 36 28 21 44 142 293
0 0 0 0 0 0 0 0 0 0 2 33 21 0 0 7 25 46 507 614 651 645 743 872 1036 1178 1348 1467 1408 1332 1299 1287 1259 1205 1119 727 434 264 180 102 46 8 0 0 0 0 0 0 61
0 0 0 0 0 0 0 0 8 4 0 63 60 20 0 0 0 0 104 388 561 610 625 785 867 857 941 1029 974 897 983 1076 1049 976 938 567 399 296 139 57 8 0 0 0 0 0 0 0 0
0 0 0 0 0 0 0 0 0 0 2 67 93 31 0 0 0 0 0 178 309 365 358 412 508 572 517 554 558 595 696 710 734 718 756 560 396 319 212 78 0 0 0 0 0 0 0 0 0
0 0 0 0 0 0 0 0 0 0 0 0 44 102 52 0 0 0 0 0 0 4 60 86 94 130 128 341 429 461 488 419 322 397 477 337 268 190 248 88 36 0 0 0 0 0 0 0 0
0 0 0 0 0 0 0 0 0 0 0 19 0 92 52 0 0 0 0 0 0 24 38 17 7 10 27 68 364 454 522 428 282 314 292 166 90 77 70 42 53 8 0 0 0 0 0 0 0
0 0 0 0 0 0 0 0 0 0 0 42 139 74 13 0 0 0 0 0 4 38 119 27 1 213 0 20 100 98 202 283 220 254 214 89 115 134 24 6 44 20 13 16 12 1 0 0 0
0 0 0 0 0 0 0 0 0 0 0 0 229 141 68 1 0 0 0 0 18 64 312 190 0 0 0 60 23 126 68 143 212 268 59 133 28 154 26 23 44 3 28 2 8 0 0 0 0
0 0 0 0 0 0 0 0 0 0 0 0 162 298 196 141 15 0 0 0 20 99 538 269 150 21 9 0 0 0 0 0 354 169 158 49 22 0 0 0 0 0 9 17 0 0 0 0 0
0 0 0 0 0 0 0 0 0 0 0 0 12 276 239 157 75 0 0 0 1 214 747 351 138 109 42 111 17 22 54 2 5 37 0 0 8 0 0 0 0 0 0 0 0 0 0 0 0
0 0 0 0 0 0 0 0 0 0 0 0 0 108 21 32 14 0 0 0 0 95 845 185 215 318 162 149 215 105 50 3 32 0 0 0 0 0 0 0 0 0 0 0 0 0 0 0 0
0 0 0 0 0 0 0 0 0 0 0 0 0 1 0 34 34 65 32 0 0 256 389 175 509 565 119 139 114 156 0 0 0 0 0 0 0 0 0 0 0 0 0 4 0 0 0 0 0
0 0 0 0 0 0 0 0 0 0 0 0 0 0 0 17 20 41 8 5 3 562 287 26 146 445 99 73 14 0 0 0 0 0 0 0 0 0 0 0 0 0 2 0 0 0 8 2 0
0 0 0 0 0 0 0 0 0 0 0 0 0 0 0 0 0 10 29 7 50 251 0 0 0 414 38 0 0 0 0 0 0 0 0 0 0 0 0 0 0 0 0 0 0 0 0 0 0
0 0 0 0 0 0 0 0 0 0 0 0 0 0 0 0 0 7 3 1 0 18 48 0 39 4 1 1 0 0 0 0 0 0 0 0 0 0 0 0 0 0 0 0 0 0 0 0 0
0 0 0 0 0 0 0 0 0 0 0 0 0 0 0 0 0 0 0 0 0 18 0 0 0 0 0 0 0 0 0 0 0 0 0 0 0 0 0 0 0 0 0 0 0 0 0 0 0
0 0 0 0 0 0 0 0 0 0 0 0 0 0 0 0 0 0 0 0 0 0 0 0 0 0 0 0 0 0 0 0 0 0 0 0 0 0 0 0 0 0 0 0 0 0 0 0 0
0 0 0 0 0 0 0 0 0 0 0 0 0 0 0 0 0 0 0 0 0 0 0 0 0 0 0 0 0 0 0 0 0 0 0 0 0 0 0 0 0 0 0 0 0 0 0 0 0
0 0 0 0 0 0 0 0 0 0 0 0 0 0 0 0 0 0 0 0 0 0 0 0 0 0 0 0 0 0 0 0 0 0 0 0 0 0 0 0 0 0 0 0 0 0 0 0 0
0 0 0 0 0 0 0 0 0 0 0 0 0 0 0 0 0 0 0 0 0 0 0 0 0 0 0 0 0 0 0 0 0 0 0 0 0 0 0 0 0 0 0 0 0 0 0 0 0
0 0 0 0 0 4 5 1 0 0 0 0 0 0 0 0 0 0 0 0 0 0 0 0 0 0 0 0 0 0 0 0 0 0 0 0 0 0 0 0 0 0 0 0 0 0 0 0 0
0 0 8 14 9 24 32 4 0 0 0 0 0 0 0 0 0 0 0 0 0 0 0 0 0 0 0 0 0 0 0 0 0 0 0 0 0 0 0 0 0 0 0 0 0 0 0 0 0
0 0 0 0 0 0 0 0 0 0 0 0 0 0 0 0 0 0 0 0 0 0 0 0 0 0 0 0 0 0 0 0 0 0 0 0 0 0 0 0 0 0 0 0 0 0 0 0 0
0 0 0 0 0 0 0 0 0 0 0 0 0 0 0 0 0 0 0 0 0 0 0 0 0 0 0 0 0 0 0 0 0 0 0 0 0 0 0 0 0 0 0 2 11 9 4 0 0
0 0 0 0 0 0 0 0 0 0 0 0 0 0 0 0 0 0 0 0 0 0 0 0 0 0 0 0 0 0 0 0 0 0 0 0 0 0 0 0 0 0 0 0 6 0 0 0 0
0 0 0 0 0 0 0 0 0 0 0 0 0 0 0 0 0 0 0 0 0 0 0 0 0 0 0 0 0 0 0 0 0 0 0 0 0 0 0 0 0 8 20 26 36 33 21 32 19
0 0 0 0 0 0 0 0 0 0 0 0 0 0 0 0 0 0 0 0 0 0 0 0 0 0 0 0 0 0 0 0 0 0 0 0 0 0 0 0 0 0 0 0 0 1 1 0 0

GFSSGP_con_sbcape_012.txt.gz
CAPE
0 0 0 0 0 0 0 0 0 0 4 55 60 16 13 29 68 111 310 368 588 628 635 725 994 1223 1352 1372 1359 1359 1391 1241 1101 1047 981 834 669 539 581 666 677 626 573 565 651 681 694 653 664
0 0 0 0 0 0 0 0 8 0 0 0 15 26 128 363 404 357 328 535 573 597 608 736 1049 1218 1363 1390 1390 1384 1383 1230 1189 1081 909 699 491 502 468 433 446 338 285 330 435 469 564 583 652
0 0 0 0 0 0 0 0 0 0 0 0 0 0 5 184 362 374 374 549 573 612 689 875 950 1083 1234 1310 1410 1469 1525 1503 1248 996 808 565 496 370 237 165 95 68 57 45 37 40 49 91 139
0 0 0 0 0 0 0 0 0 0 0 0 0 5 14 75 214 630 782 707 677 680 706 882 1016 1131 1265 1330 1327 1361 1346 1244 1021 1046 669 526 370 194 101 46 18 2 0 0 0 0 0 0 14
0 0 0 0 0 0 0 0 0 1 21 1 0 0 27 450 785 766 636 644 635 664 873 889 1024 1204 1295 1327 1212 1218 1201 1104 1120 1053 796 376 223 111 59 20 0 0 0 0 0 0 0 0 0
0 0 0 0 0 0 0 0 0 10 0 0 0 40 5 226 562 490 567 606 666 697 747 851 927 995 1025 1042 958 899 881 943 975 947 754 329 193 142 34 7 0 0 0 0 0 0 0 0 0
0 0 0 0 0 0 0 0 0 31 72 50 0 30 0 14 218 326 441 477 505 480 534 495 595 666 561 501 492 605 786 750 788 808 667 443 284 253 100 32 0 0 0 0 0 0 0 0 0
0 0 0 0 0 0 0 0 0 0 0 4 31 11 0 0 0 140 269 230 295 265 220 155 216 184 207 284 354 383 380 353 497 523 360 229 122 197 217 103 53 0 0 0 0 0 0 0 0
0 0 0 0 0 0 0 0 0 0 0 0 5 25 0 0 0 0 0 0 3 16 5 0 11 5 51 106 256 379 355 240 184 284 249 148 79 13 33 29 2 13 0 0 0 2 0 0 0
0 0 0 0 0 0 0 0 0 2 68 39 15 0 0 0 0 0 0 0 0 1 0 0 0 0 0 51 185 80 134 126 94 116 92 60 55 15 2 25 92 100 5 24 43 53 43 5 0
0 0 0 0 0 0 0 0 0 0 64 103 22 0 0 0 0 0 0 0 44 19 0 0 0 0 0 6 0 0 14 27 57 152 151 55 45 6 109 0 1 0 0 0 0 0 0 0 0
0 0 0 0 0 0 0 0 0 0 0 74 33 0 0 0 0 0 0 0 0 92 7 0 54 5 0 0 0 0 0 53 150 126 18 0 0 0 0 0 0 0 0 0 0 0 0 0 0
0 0 0 0 0 0 0 0 0 0 12 129 46 17 0 0 0 0 0 0 0 230 61 0 0 0 0 3 1 0 0 0 46 0 0 0 0 0 0 0 0 0 0 0 0 0 0 0 0
0 0 0 0 0 0 0 0 0 0 0 217 148 113 69 25 0 0 0 0 17 401 112 129 123 62 2 13 0 1 0 0 0 0 0 0 0 0 0 0 0 0 0 0 0 0 0 0 0
0 0 0 0 0 0 0 0 0 0 0 323 330 259 148 104 60 0 0 0 45 436 227 253 227 164 11 96 9 0 0 0 0 0 0 0 0 0 0 0 0 0 0 0 0 0 0 0 0
0 0 0 0 0 0 0 0 0 0 0 19 189 168 124 48 47 25 0 0 446 265 80 19 78 190 27 11 5 0 0 0 0 0 0 0 0 0 0 0 0 0 0 0 0 0 0 0 0
0 0 0 0 0 0 0 0 0 0 0 0 0 0 0 0 0 0 0 170 375 161 13 0 10 70 20 0 0 0 0 0 0 0 0 0 0 0 0 0 0 0 0 0 0 0 0 0 0
0 0 0 0 0 0 0 0 0 0 0 0 0 0 0 0 0 0 0 34 2 0 0 0 17 62 0 0 0 0 0 0 0 0 0 0 0 0 0 0 0 0 0 0 0 0 0 0 0
0 0 0 0 0 0 0 0 0 0 0 0 0 0 0 0 0 0 0 0 0 0 0 0 0 0 0 0 0 0 0 0 0 0 0 0 0 0 0 0 0 0 0 0 0 0 0 0 0
0 0 0 0 0 0 0 0 0 0 0 0 0 0 0 0 0 0 0 0 0 0 0 0 0 0 0 0 0 0 0 0 0 0 0 0 0 0 0 0 0 0 0 0 0 0 0 0 0
0 0 0 0 0 0 0 0 0 0 0 0 0 0 0 0 0 0 0 0 0 0 0 0 0 0 0 0 0 0 0 0 0 0 0 0 0 0 0 0 0 0 0 0 0 0 0 0 0
0 0 0 0 0 0 0 0 0 0 0 0 0 0 0 0 0 0 0 0 0 0 0 0 0 0 0 0 0 0 0 0 0 0 0 0 0 0 0 0 0 0 0 0 0 0 0 0 0
0 0 0 0 0 0 0 0 0 0 0 0 0 0 0 0 0 0 0 0 0 0 0 0 0 0 0 0 0 0 0 0 0 0 0 0 0 0 0 0 0 0 0 0 0 0 0 0 0
0 0 0 0 0 0 0 0 0 0 0 0 0 0 0 0 0 0 0 0 0 0 0 0 0 0 0 0 0 0 0 0 0 0 0 0 0 0 0 0 0 0 0 0 0 0 0 0 0
0 0 0 0 0 4 0 0 0 0 0 0 0 0 0 0 0 0 0 0 0 0 0 0 0 0 0 0 0 0 0 0 0 0 0 0 0 0 0 0 0 0 0 0 0 0 0 0 0
0 0 0 0 0 0 0 0 0 0 0 0 0 0 0 0 0 0 0 0 0 0 0 0 0 0 0 0 0 0 0 0 0 0 0 0 0 0 0 0 0 0 0 0 0 0 0 0 0
0 0 0 0 0 0 0 0 0 0 0 0 0 0 0 0 0 0 0 0 0 0 0 0 0 0 0 0 0 0 0 0 0 0 0 0 0 0 0 0 0 0 0 0 0 0 0 0 0
0 0 0 0 0 0 0 0 0 0 0 0 0 0 0 0 0 0 0 0 0 0 0 0 0 0 0 0 0 0 0 0 0 0 0 0 0 0 0 0 0 0 0 0 0 0 0 0 0
0 0 0 0 0 0 0 0 0 0 0 0 0 0 0 0 0 0 0 0 0 0 0 0 0 0 0 0 0 0 0 0 0 0 0 0 0 0 0 0 0 0 0 0 0 0 0 0 0
0 0 0 0 0 0 0 0 0 0 0 0 0 0 0 0 0 0 0 0 0 0 0 0 0 0 0 0 0 0 0 0 0 0 0 0 0 0 0 0 0 0 0 0 0 0 0 0 0

GFSSGP_con_sbcape_015.txt.gz
CAPE
0 0 0 0 0 0 0 0 0 0 7 5 10 35 124 236 127 116 263 378 508 488 564 720 935 1076 1101 1155 1163 1226 1080 931 878 820 740 588 491 496 454 364 284 210 219 235 281 311 333 333 389
0 0 0 0 0 0 0 2 35 54 25 0 2 49 174 431 397 463 453 587 519 494 539 777 1030 1180 1254 1253 1304 1320 1177 1021 929 836 659 503 458 319 244 198 191 109 62 36 22 17 10 11 19
0 0 0 0 0 0 0 0 9 27 3 0 0 0 46 567 414 353 477 598 552 481 619 914 1015 1135 1286 1321 1362 1308 1307 1201 955 776 557 494 305 195 90 74 46 18 5 0 0 0 0 0 0
0 0 0 0 0 0 0 0 5 6 5 14 18 39 2 270 435 394 531 570 497 512 625 706 862 1037 1260 1349 1410 1367 1233 931 915 808 539 398 209 54 31 15 1 0 0 0 0 0 0 0 0
0 0 0 0 0 0 0 0 51 37 12 16 1 28 95 794 584 655 692 636 654 681 685 724 851 1011 1154 1236 1173 1201 1005 899 949 814 622 315 176 70 27 4 0 0 0 0 0 0 0 0 0
0 0 0 0 0 0 0 0 60 42 8 36 147 112 19 842 767 686 652 610 618 886 880 874 922 964 1016 1083 1017 937 866 900 905 833 598 333 228 135 41 6 0 0 0 0 0 0 0 0 0
0 0 0 0 0 0 0 0 59 9 41 80 75 16 71 680 408 526 488 451 566 702 734 649 794 807 775 664 623 575 624 705 749 731 603 433 292 200 111 56 0 0 0 0 0 0 0 0 0
0 0 0 0 0 0 0 0 0 135 97 4 0 16 351 46 334 387 417 439 431 360 304 291 295 262 207 264 353 414 439 447 558 555 338 103 57 89 124 47 31 0 0 0 0 0 0 0 0
0 0 0 0 0 0 0 0 0 1 30 11 0 0 314 43 243 185 164 86 94 113 62 18 61 27 8 11 127 318 350 312 351 300 158 61 0 0 25 49 10 56 5 6 24 64 47 20 0
0 0 0 0 0 0 0 0 5 52 44 2 0 0 0 32 64 57 41 26 18 13 3 0 0 0 0 56 73 22 77 35 22 36 35 29 5 0 0 1 90 143 173 130 128 157 119 80 0
0 0 0 0 0 0 0 0 0 33 68 8 0 0 0 2 0 0 0 0 0 0 0 0 0 0 0 2 4 0 7 0 1 32 35 22 40 3 3 0 0 0 0 0 0 0 0 0 0
0 0 0 0 0 0 0 0 0 0 65 17 0 0 0 0 0 0 0 0 0 0 0 0 0 0 0 0 0 0 1 1 17 60 34 0 0 0 0 0 0 0 0 0 0 0 0 0 0
0 0 0 0 0 0 0 0 0 0 8 7 0 0 0 0 0 0 0 0 3 24 8 0 1 0 0 0 0 0 2 53 78 42 5 0 0 0 0 0 0 0 0 0 0 0 0 0 0
0 0 0 0 0 0 0 0 0 0 20 6 0 0 0 0 0 0 0 0 10 137 31 0 0 0 0 0 0 0 0 6 28 2 0 0 0 0 0 0 0 0 0 0 0 0 0 0 0
0 0 0 0 0 0 0 0 0 0 81 56 7 0 0 0 0 0 0 0 24 176 47 0 0 0 0 0 0 0 0 0 0 0 0 0 0 0 0 0 0 0 0 0 0 0 0 0 0
0 0 0 0 0 0 0 0 0 6 211 125 60 18 2 0 0 0 0 0 21 169 0 3 90 0 0 0 0 0 0 0 0 0 0 0 0 0 0 0 0 0 0 0 0 0 0 0 0
0 0 0 0 0 0 0 0 0 0 256 215 4 0 0 0 0 0 2 0 114 64 0 0 0 0 0 0 0 0 0 0 0 0 0 0 0 0 0 0 0 0 0 0 0 0 0 0 0
0 0 0 0 0 0 0 0 0 0 0 0 0 0 0 0 0 4 0 0 0 0 0 0 0 0 0 0 0 0 0 0 0 0 0 0 0 0 0 0 0 0 0 0 0 0 0 0 0
0 0 0 0 0 0 0 0 0 0 0 0 0 0 0 0 0 0 0 0 0 0 0 0 0 0 0 0 0 0 0 0 0 0 0 0 0 0 0 0 0 0 0 0 0 0 0 0 0
0 0 0 0 0 0 0 0 0 0 0 0 0 0 0 0 0 0 0 0 0 0 0 0 0 0 0 0 0 0 0 0 0 0 0 0 0 0 0 0 0 0 0 0 0 0 0 0 0
0 0 0 0 0 0 0 0 0 0 0 0 0 0 0 0 0 0 0 0 0 0 0 0 0 0 0 0 0 0 0 0 0 0 0 0 0 0 0 0 0 0 0 0 0 0 0 0 0
0 0 0 0 0 0 0 0 0 0 0 0 0 0 0 0 0 0 0 0 0 0 0 0 0 0 0 0 0 0 0 0 0 0 0 0 0 0 0 0 0 0 0 0 0 0 0 0 0
0 0 0 0 0 0 0 0 0 0 0 0 0 0 0 0 0 0 0 0 0 0 0 0 0 0 0 0 0 0 0 0 0 0 0 0 0 0 0 0 0 0 0 0 0 0 0 0 0
0 0 0 0 0 0 0 0 0 0 0 0 0 0 0 0 0 0 0 0 0 0 0 0 0 0 0 0 0 0 0 0 0 0 0 0 0 0 0 0 0 0 0 0 0 0 0 0 0
0 0 0 5 9 3 0 0 0 0 0 0 0 0 0 0 0 0 0 0 0 0 0 0 0 0 0 0 0 0 0 0 0 0 0 0 0 0 0 0 0 0 0 0 0 0 0 0 0
0 0 0 0 0 0 0 0 0 0 0 0 0 0 0 0 0 0 0 0 0 0 0 0 0 0 0 0 0 0 0 0 0 0 0 0 0 0 0 0 0 0 0 0 0 0 0 0 0
0 0 0 0 0 0 0 0 0 0 0 0 0 0 0 0 0 0 0 0 0 0 0 0 0 0 0 0 0 0 0 0 0 0 0 0 0 0 0 0 0 0 0 0 0 0 0 0 0
0 0 0 0 0 0 0 0 0 0 0 0 0 0 0 0 0 0 0 0 0 0 0 0 0 0 0 0 0 0 0 0 0 0 0 0 0 0 0 0 0 0 0 0 0 0 0 0 0
0 0 0 0 0 0 0 0 0 0 0 0 0 0 0 0 0 0 0 0 0 0 0 0 0 0 0 0 0 0 0 0 0 0 0 0 0 0 0 0 0 0 0 0 0 0 0 0 0
0 0 0 0 0 0 0 0 0 0 0 0 0 0 0 0 0 0 0 0 0 0 0 0 0 0 0 0 0 0 0 0 0 0 0 0 0 0 0 0 0 0 0 0 0 0 0 0 0

GFSSGP_con_sbcape_021.txt.gz
CAPE
0 0 0 0 0 0 0 0 0 15 149 110 146 122 85 150 153 176 407 438 763 997 1019 611 720 1026 951 985 1102 1070 908 649 566 431 370 286 179 119 122 231 231 84 0 0 0 0 0 0 0
0 0 0 0 0 0 0 6 178 195 47 7 13 19 13 7 403 549 551 680 741 1012 1015 649 726 1067 1078 1193 1230 1136 887 693 546 422 334 175 83 70 49 50 136 47 0 0 0 0 0 0 0
0 0 0 0 0 0 0 124 170 38 15 0 0 10 94 5 301 515 793 762 821 980 927 747 805 1064 1223 1305 1279 1154 1019 876 691 538 250 92 14 18 17 41 49 14 0 0 0 0 0 0 0
0 0 0 0 0 0 0 155 116 78 42 3 2 6 97 330 458 565 818 799 875 927 972 763 959 1128 1352 1394 1375 1202 1034 845 712 600 330 28 0 0 0 36 44 1 0 0 0 0 0 0 0
0 0 0 0 0 0 0 211 93 70 54 10 3 0 305 601 836 923 699 791 829 983 1039 1058 960 1019 1310 1507 1376 1139 943 817 769 678 484 184 0 0 0 52 49 0 0 0 0 0 0 2 13
0 0 0 0 0 0 11 95 102 68 49 46 46 215 393 941 970 826 737 832 880 933 1149 1240 933 1123 1261 1321 1150 834 840 817 792 704 552 212 98 107 6 0 5 0 0 0 0 0 0 12 13
0 0 0 0 0 6 20 121 115 101 75 93 62 294 707 986 914 970 834 886 904 970 1133 1131 1177 1086 985 990 844 652 740 716 669 623 539 372 190 147 120 95 12 0 115 76 39 15 40 39 30
0 0 0 0 6 14 0 0 3 35 50 10 111 480 541 671 951 1000 905 892 1035 993 787 758 1008 1000 1084 1034 685 587 560 541 520 516 330 126 63 78 77 0 85 103 76 78 114 165 113 44 14
0 0 0 0 38 30 19 2 0 6 52 8 0 470 588 680 724 690 676 635 692 695 626 575 692 869 785 745 638 451 497 461 435 412 119 32 80 118 125 28 75 137 161 139 113 72 48 0 0
0 0 0 0 90 70 6 0 0 102 71 10 269 564 796 674 612 662 719 667 613 621 458 518 672 563 351 284 448 365 294 285 345 345 361 155 169 142 88 64 21 29 0 0 0 0 0 0 0
0 0 0 0 11 84 24 6 46 122 125 58 309 409 472 576 525 714 546 708 627 484 719 526 428 240 150 137 204 96 153 194 242 319 326 318 293 344 356 253 12 0 0 0 0 0 0 0 0
0 0 0 0 0 4 1 0 145 199 133 29 437 958 601 649 584 575 658 661 476 552 523 243 110 56 2 2 28 32 110 203 363 483 536 540 351 185 163 0 0 0 0 0 0 0 0 0 0
0 0 0 0 0 0 0 0 186 80 23 190 671 1074 1126 877 696 525 343 197 198 167 110 63 0 0 0 1 29 45 116 292 410 444 247 126 5 4 0 0 0 0 0 0 0 0 0 0 0
0 0 0 0 0 0 0 0 0 0 3 423 658 904 809 535 351 154 1 0 1 0 51 35 0 0 1 14 4 13 44 61 115 91 29 7 0 0 0 0 0 0 0 0 0 0 0 0 0
0 0 0 0 0 0 0 0 0 0 25 303 533 277 268 191 50 10 0 0 3 48 63 47 6 2 0 0 0 0 0 0 0 0 0 0 0 0 0 0 0 0 0 0 0 0 0 0 0
0 0 0 0 0 0 0 0 0 0 0 17 81 23 63 2 0 0 0 0 127 212 254 30 0 0 0 1 0 2 0 0 0 0 0 0 0 0 0 0 0 0 0 0 0 0 0 0 0
0 0 0 0 0 0 0 0 0 0 14 0 0 0 8 85 86 7 5 5 276 296 74 13 25 32 5 0 0 0 0 0 0 0 0 0 0 0 0 0 0 0 0 0 0 0 0 0 0
0 0 0 0 0 0 0 0 0 0 9 3 0 0 13 31 7 0 0 9 128 174 20 26 13 1 1 0 0 0 0 0 0 0 0 0 0 0 0 0 0 0 0 0 0 0 0 0 0
0 0 0 0 0 0 0 0 0 0 0 0 0 0 0 0 2 3 8 148 166 68 45 29 3 1 0 0 0 0 0 0 0 0 0 0 0 0 0 0 0 0 0 0 0 0 0 0 0
0 0 0 0 0 0 0 0 0 0 0 0 0 0 0 1 3 1 1 56 159 173 104 16 2 0 0 0 0 0 0 0 0 0 0 0 0 0 0 0 0 0 0 0 0 0 0 0 0
0 0 0 0 0 0 0 0 0 0 0 0 0 0 2 0 1 2 0 2 0 0 3 0 0 0 0 0 0 0 0 0 0 0 0 0 0 0 0 0 0 0 0 0 0 0 0 0 0
0 0 0 0 0 2 0 0 0 0 0 0 0 0 0 5 7 0 0 0 0 0 0 0 0 0 0 0 0 0 0 0 0 0 0 0 0 0 0 0 0 0 0 0 0 0 0 0 0
0 0 0 0 0 0 0 0 0 0 0 0 0 0 0 0 0 0 0 0 0 0 0 0 0 0 0 0 0 0 0 0 0 0 0 0 0 0 0 0 0 0 0 0 0 0 0 0 0
0 0 0 0 0 0 0 0 0 0 0 0 0 0 0 0 0 0 0 0 0 0 0 0 0 0 0 0 0 0 0 0 0 0 0 0 0 0 0 0 0 0 0 0 0 0 0 0 0
0 0 0 5 0 0 0 0 0 0 0 0 0 0 0 0 0 0 0 0 0 0 0 0 0 0 0 0 0 0 0 0 0 0 0 0 0 0 0 0 0 0 0 0 0 0 0 0 0
0 0 10 0 0 0 0 0 0 0 0 0 0 0 0 0 0 0 0 0 0 0 0 0 0 0 0 0 0 0 0 0 0 0 0 0 0 0 0 0 0 0 0 0 0 0 8 17 28
0 0 0 0 0 0 0 0 0 0 0 0 0 0 0 0 0 0 0 0 0 0 0 0 0 0 0 0 0 0 0 0 0 0 0 0 0 0 0 0 0 0 0 0 1 3 41 42 30
0 0 0 0 0 0 0 0 0 0 0 0 0 0 0 0 0 0 0 0 0 0 0 0 0 0 0 0 0 0 0 0 0 0 0 0 0 0 0 0 2 6 2 5 5 7 20 17 13
0 0 0 0 0 0 0 0 0 0 0 0 0 0 0 0 0 0 0 0 0 0 0 0 0 0 0 0 0 0 0 0 0 0 0 0 0 0 0 0 0 2 4 0 17 0 0 0 1
0 0 0 0 0 0 0 0 0 0 0 0 0 0 0 0 0 0 0 0 0 0 0 0 0 0 0 0 0 0 0 0 0 0 0 0 0 0 0 0 0 5 0 36 0 0 0 0 0

GFSSGP_con_sbcape_024.txt.gz
CAPE
0 0 0 0 0 0 0 0 347 563 517 87 131 166 274 338 403 372 596 626 871 757 453 440 829 849 906 985 1042 1063 717 560 438 393 278 158 142 124 92 216 158 5 0 0 0 0 0 0 0
0 0 0 0 0 0 3 0 1 501 220 6 0 9 10 16 305 607 631 820 866 882 690 540 758 943 1122 1243 1216 1138 747 547 426 313 150 125 109 37 12 14 42 1 0 0 0 0 0 0 0
0 0 0 0 0 0 7 320 402 180 48 25 28 42 3 6 202 148 696 867 1094 1066 878 789 783 902 1096 1221 1269 1170 983 729 632 413 92 62 26 2 0 13 40 6 0 0 0 0 0 0 0
0 0 0 0 0 0 5 432 377 218 118 23 9 71 87 15 25 8 705 873 908 1133 1021 571 764 955 1114 1350 1248 1252 968 766 679 490 232 0 0 0 0 81 178 7 0 0 0 0 0 0 0
0 0 0 0 0 0 0 495 544 358 192 53 4 59 294 591 242 276 897 720 438 890 1013 955 795 687 984 1224 1330 1131 928 817 760 567 350 146 0 0 0 61 175 4 0 0 0 0 0 0 0
0 0 0 0 1 0 0 504 496 270 82 85 97 121 924 1113 950 1090 1021 622 353 1188 1106 1058 654 652 847 1435 1134 905 835 862 800 631 451 85 48 63 0 0 0 0 0 0 0 0 34 39 0
0 0 0 0 83 142 127 491 414 61 173 192 299 226 1158 1176 1266 1134 1254 815 904 1186 1243 1035 828 742 953 903 707 712 748 764 693 629 494 296 244 241 112 24 0 5 36 50 72 76 73 29 13
0 0 0 32 203 265 475 315 51 13 179 361 506 328 1045 1289 1310 1057 983 1063 1108 1218 1242 1098 1118 1086 1042 1068 603 626 587 550 564 516 265 140 132 122 31 123 122 114 69 130 157 94 34 0 0
0 0 0 99 228 204 148 98 22 155 364 199 130 801 1178 1338 1475 1233 1006 1064 1263 1129 1059 1037 1047 1022 988 814 745 481 542 482 452 328 150 83 300 322 189 49 105 106 22 31 34 10 0 0 0
0 0 0 63 266 326 151 17 14 314 479 250 947 1294 1579 1537 1388 1430 1388 1214 1090 1024 928 793 1196 943 934 462 409 193 104 245 525 542 541 518 663 576 238 140 19 0 0 0 0 0 0 0 0
0 0 0 0 275 131 17 4 34 122 548 396 821 1463 1157 1274 1149 1289 1307 1150 924 965 760 864 1026 842 396 246 90 27 145 540 738 857 901 954 901 987 751 205 21 32 0 2 0 0 0 0 0
0 0 0 0 198 91 70 88 120 193 250 301 843 1512 1592 1358 1512 1643 1465 1478 1427 1173 762 683 590 429 262 35 1 171 528 736 801 1042 1161 1132 1085 974 707 48 42 65 14 13 0 0 0 0 0
0 0 0 0 4 237 123 114 264 296 250 616 1488 1578 1562 1473 886 655 657 562 527 518 438 336 257 210 175 186 384 637 736 815 918 1064 950 851 589 490 181 121 16 3 1 0 0 0 0 0 0
0 0 0 0 0 45 97 90 215 67 547 1225 1504 1464 1424 1115 615 413 353 304 252 199 367 309 166 128 247 429 608 671 467 192 216 373 176 126 188 318 186 24 0 0 0 0 0 0 0 0 0
0 0 0 0 0 8 58 14 0 46 422 1073 1248 1302 1153 736 532 302 125 91 109 162 425 485 332 259 420 488 358 118 42 44 38 79 39 10 78 58 6 0 0 0 0 0 0 0 0 0 0
0 0 0 0 0 0 5 1 0 65 299 818 1077 984 831 501 347 232 168 37 90 348 651 635 344 233 508 406 100 39 19 22 4 7 0 0 0 0 2 0 0 0 0 0 0 0 0 0 0
0 0 0 0 0 0 0 0 1 145 314 532 792 589 547 377 382 384 191 291 503 707 799 700 635 360 15 7 61 41 0 0 0 0 0 0 0 0 0 0 0 0 0 0 0 0 0 0 0
0 1 0 0 0 0 0 47 4 235 361 379 462 508 524 544 474 312 385 541 738 867 789 672 495 85 2 8 38 0 0 0 0 0 0 0 0 0 0 0 0 0 0 0 0 0 0 0 0
0 0 0 0 0 85 67 64 16 176 390 405 420 513 547 507 402 413 535 635 757 752 566 646 298 536 228 164 25 0 0 0 0 0 0 0 0 0 0 0 0 0 0 0 0 0 0 0 1
1 0 14 0 0 91 153 186 64 41 261 435 517 541 583 515 477 429 677 707 520 494 575 634 727 757 439 78 4 3 14 4 0 0 0 0 0 0 0 0 0 0 0 0 0 0 0 0 5
51 69 33 31 9 85 177 227 183 55 56 90 238 474 531 533 556 629 741 798 693 642 924 866 725 456 0 0 0 5 3 0 0 0 0 0 0 0 0 0 0 0 0 0 1 2 0 1 0
91 0 27 53 93 124 32 187 322 245 224 228 276 443 413 605 726 718 764 814 932 758 684 75 2 0 0 0 0 0 0 2 0 0 0 0 0 0 0 0 0 0 0 2 6 0 0 0 0
70 3 72 22 92 91 70 107 320 283 351 417 605 687 764 553 372 178 128 141 154 178 9 0 0 0 0 0 0 0 0 0 0 0 0 0 0 0 0 0 0 7 20 11 0 0 2 0 2
1 41 43 39 58 109 68 69 98 345 346 495 493 366 448 127 0 0 0 0 0 0 0 0 0 0 0 0 0 0 0 0 0 0 0 0 0 3 12 23 29 26 14 2 2 15 7 25 9
74 131 98 161 122 65 5 14 0 12 131 471 309 157 69 0 0 0 0 0 0 0 0 0 0 0 0 0 0 0 0 0 0 0 0 0 0 0 0 0 1 14 33 6 56 45 58 53 40
56 74 33 0 6 3 0 12 34 0 0 233 155 18 0 0 0 0 0 0 0 0 0 0 0 0 0 0 0 0 0 0 0 0 0 0 0 0 0 0 1 25 47 50 67 83 63 61 45
0 0 3 22 0 5 0 5 3 0 0 93 126 1 0 0 0 0 0 0 0 0 0 0 0 0 0 0 0 0 0 0 0 0 0 0 0 0 0 0 5 29 60 81 86 90 72 76 57
0 0 0 3 0 0 0 0 0 0 0 8 80 0 0 0 0 0 0 0 0 0 0 0 0 0 0 0 0 0 0 0 0 0 0 0 0 0 0 0 0 13 47 79 81 69 70 57 63
0 0 0 0 0 0 0 0 0 0 0 0 39 1 0 0 0 0 0 0 0 0 0 0 0 0 0 0 0 0 0 0 0 0 0 0 0 0 0 2 4 16 43 49 67 72 86 53 32
0 0 0 0 0 0 0 0 0 0 0 0 19 5 0 0 0 0 0 0 0 0 0 0 0 0 0 0 0 0 0 0 0 0 0 0 1 2 3 9 15 26 38 61 63 63 6 15 32

GFSSGP_con_sbcape_027.txt.gz
CAPE
0 0 0 0 0 0 0 23 231 654 441 422 472 446 454 609 860 752 704 663 721 351 173 291 750 887 906 821 860 934 599 480 389 281 199 233 170 114 66 150 113 0 0 0 0 0 0 0 0
0 0 0 0 0 5 47 51 8 656 261 131 148 135 156 453 856 767 534 718 806 375 212 248 746 1000 1120 1067 1044 917 550 404 308 198 189 146 84 25 0 0 89 2 0 0 0 0 0 0 0
0 0 0 0 0 9 122 544 644 568 441 290 166 25 2 113 261 666 704 731 700 357 284 396 740 965 1100 986 1020 980 706 626 460 303 131 60 0 0 0 16 168 26 0 0 0 0 0 0 0
0 0 0 0 4 27 53 570 327 386 285 153 170 28 0 12 7 290 883 893 802 698 552 418 679 821 1011 909 924 941 761 645 488 321 131 0 0 0 0 216 181 8 0 0 0 0 0 0 0
0 0 0 0 8 16 0 436 373 360 150 126 110 44 0 0 0 107 1042 973 801 444 642 568 511 562 728 1066 950 759 753 680 560 376 216 46 4 14 29 167 108 0 0 0 0 0 0 0 0
0 0 0 21 51 16 0 330 199 177 24 22 176 397 757 451 159 25 426 642 439 524 454 620 570 623 853 1112 878 708 720 716 595 416 229 19 32 89 19 10 18 13 21 12 0 41 53 19 0
0 0 0 22 74 156 34 348 182 188 79 187 13 108 987 1074 711 851 744 29 64 171 444 687 672 624 635 622 596 594 648 619 600 524 349 232 284 295 105 36 42 62 87 124 109 66 0 0 0
0 0 0 15 102 262 228 516 448 343 38 7 188 322 405 1220 1205 915 749 35 122 223 807 859 830 865 837 684 535 520 499 506 526 303 201 164 151 125 83 257 147 162 140 111 107 52 0 0 0
0 0 0 31 284 252 475 443 204 80 23 4 130 637 1088 1455 1280 1051 683 264 408 594 859 697 672 821 891 657 474 457 553 497 324 111 96 38 233 247 195 85 116 57 0 26 27 0 0 6 0
0 0 3 41 346 4 215 195 105 17 0 268 658 1134 1557 1611 1329 1019 887 709 794 891 895 687 948 963 799 317 185 32 24 136 347 318 355 549 510 628 216 76 63 0 0 1 0 0 0 12 0
0 0 1 9 298 123 21 8 2 79 164 349 1209 1713 1654 1473 1278 1125 1004 875 802 895 780 723 811 703 407 255 63 1 152 450 656 747 834 854 683 697 661 365 152 177 24 127 31 29 11 0 0
0 1 0 4 249 55 0 3 17 1 0 39 1167 1869 1816 1698 1442 1336 1243 1225 1126 812 755 714 549 444 196 6 2 54 450 629 845 951 997 859 729 972 656 258 88 156 70 64 37 33 0 0 0
0 4 0 22 87 8 43 16 24 41 138 608 1600 1793 1615 1265 861 894 730 744 756 422 380 333 285 174 39 37 176 611 691 1059 992 1015 971 908 737 1056 419 480 186 143 61 51 42 40 9 0 0
1 0 0 0 35 190 78 38 43 266 288 705 1181 1088 872 456 381 342 314 374 373 365 269 220 64 50 157 500 594 699 437 243 248 306 394 526 384 748 299 194 38 173 61 57 10 0 0 0 0
0 0 0 0 1 17 16 1 2 204 457 769 679 648 512 335 215 219 261 264 271 326 323 305 236 459 637 593 253 192 157 117 111 161 216 180 88 103 22 4 36 57 0 0 0 0 0 0 0
0 0 2 0 0 69 101 18 35 184 277 388 447 556 464 407 262 120 89 171 199 474 503 509 364 581 784 248 3 17 56 120 75 87 9 0 0 0 1 0 0 0 0 0 0 0 0 0 0
0 0 1 0 0 10 64 9 69 190 213 522 625 664 659 531 414 346 179 100 187 617 886 669 532 661 66 0 20 46 74 68 0 0 0 0 0 0 0 0 0 0 0 0 0 2 0 3 1
0 1 5 8 4 82 13 28 37 199 204 469 682 697 683 580 590 579 353 341 375 770 1014 849 713 338 93 135 22 22 0 0 0 0 0 0 0 0 0 0 0 0 0 0 1 0 0 0 0
3 2 5 12 29 3 0 37 58 241 242 350 461 632 768 833 882 729 704 783 974 1143 953 998 671 405 472 325 161 39 9 0 0 0 0 0 0 0 0 0 0 0 0 0 0 0 0 0 0
0 0 24 4 1 54 7 22 109 262 319 365 395 540 650 831 956 805 915 990 1165 1005 908 907 665 623 659 463 397 155 90 29 0 0 0 0 0 0 0 0 0 0 0 0 0 0 0 0 0
12 21 33 45 48 31 107 175 231 209 445 511 542 551 620 817 1012 937 1122 882 756 686 790 840 810 967 696 122 48 84 71 0 0 0 0 0 0 0 0 0 0 0 0 0 0 1 6 1 3
39 67 56 102 109 73 90 60 123 336 285 363 562 753 844 942 1012 1147 1219 774 694 838 825 870 674 322 22 2 25 34 38 46 31 8 0 0 0 0 0 0 0 0 1 3 6 4 7 15 13
44 65 143 156 145 18 162 112 35 436 383 322 423 528 708 772 974 1077 1095 1161 991 784 762 455 67 8 1 0 2 19 2 0 0 0 0 0 0 0 0 0 5 7 5 9 12 16 24 34 32
109 179 175 201 140 159 88 108 206 496 406 475 584 753 864 911 632 479 482 493 609 617 30 2 1 0 0 0 0 0 0 0 0 0 0 0 0 0 0 0 0 0 1 18 21 36 54 56 45
134 194 266 181 202 199 133 125 85 44 220 480 754 803 838 421 80 28 10 19 59 2 0 0 0 0 0 0 0 0 0 0 0 0 0 0 0 0 0 0 0 0 0 3 30 44 87 60 64
156 174 249 89 98 109 135 11 87 114 61 285 676 629 642 182 0 0 0 0 0 0 0 0 0 0 0 0 0 0 0 0 0 0 0 0 0 0 0 0 0 0 2 15 46 64 46 78 100
117 66 122 173 165 49 0 0 168 50 33 256 568 501 418 89 0 0 0 0 0 0 0 0 1 0 0 0 0 0 0 0 0 0 0 0 0 0 0 0 0 0 0 20 68 74 57 82 97
43 30 33 6 0 6 44 8 98 114 9 130 495 375 285 65 0 0 0 0 0 0 1 1 0 0 0 0 0 0 0 0 0 0 0 0 0 0 0 0 0 1 7 19 49 55 75 82 102
55 0 0 20 74 26 0 20 0 0 3 30 270 344 243 97 12 0 0 0 0 1 5 0 0 0 0 0 0 0 0 0 0 0 0 0 0 0 1 0 1 9 16 23 43 55 56 83 90
7 28 16 0 0 0 29 2 0 0 0 0 42 203 180 97 26 2 0 0 0 1 2 1 0 0 0 0 0 0 0 0 0 0 0 0 0 2 2 0 5 12 19 17 37 38 29 3 19

GFSSGP_con_sbcape_030.txt.gz
CAPE
0 0 0 0 0 0 0 0 492 577 558 464 386 381 725 729 875 662 518 207 3 39 118 257 568 721 803 965 924 817 615 351 202 270 333 284 242 155 176 109 16 2 0 0 0 0 0 0 0
0 0 0 0 0 0 0 257 531 497 569 343 291 298 435 702 912 817 677 380 96 72 88 231 656 820 956 1005 866 648 485 251 319 268 202 210 83 0 0 176 50 38 0 0 0 0 0 0 0
0 0 0 0 0 0 0 512 834 302 237 351 123 139 51 337 806 754 814 655 191 57 132 427 609 712 777 974 815 629 507 377 297 232 104 0 0 26 32 161 95 69 0 0 0 0 0 0 0
0 0 0 0 0 0 112 587 130 497 565 327 139 24 0 0 314 791 913 709 335 126 338 466 374 429 772 956 842 715 504 363 257 199 154 5 45 80 123 257 221 19 0 0 0 0 0 54 14
0 0 0 0 0 0 0 535 386 276 140 68 1 4 0 0 363 842 836 814 422 258 288 344 238 387 847 965 843 687 541 398 287 216 177 169 81 117 164 297 218 60 19 20 5 1 0 76 68
0 0 0 0 0 0 1 219 526 179 1 8 18 59 111 11 125 793 735 558 373 272 190 251 346 561 784 848 744 646 539 417 303 219 222 175 192 252 254 246 240 227 122 54 50 21 15 6 13
0 0 0 0 0 29 118 438 248 32 131 119 134 172 907 242 158 714 420 418 209 189 140 165 359 581 548 533 532 527 507 450 353 313 273 275 265 236 277 320 279 217 186 182 76 47 0 0 0
0 0 0 0 0 162 215 571 87 1 148 80 28 5 538 754 861 601 6 0 0 7 125 254 334 517 398 352 389 395 412 339 218 187 162 126 118 176 248 248 244 114 87 73 45 2 0 0 0
0 0 0 0 1 351 151 17 62 226 34 131 0 85 281 1311 1029 150 6 70 23 62 113 129 330 558 353 309 383 441 459 260 128 92 105 0 13 14 183 85 82 2 0 5 0 0 0 46 8
0 0 0 124 346 39 4 0 0 152 131 49 386 1173 1442 1316 1018 1 1 20 6 29 204 343 558 648 361 67 136 122 90 7 10 16 0 138 566 176 154 77 57 0 0 0 6 0 0 27 0
0 0 1 138 112 54 15 13 31 1 4 5 7 1077 1372 1023 959 644 114 179 59 241 404 519 392 445 120 115 60 35 91 400 461 627 768 658 866 662 165 232 13 0 2 71 0 47 14 1 0
0 0 0 21 176 182 76 17 0 0 0 0 0 0 1392 1110 908 865 755 715 699 627 574 609 497 506 171 121 12 23 498 523 921 814 826 812 687 669 527 119 166 85 28 61 66 62 41 6 0
0 0 0 0 97 54 86 15 0 0 8 4 21 534 1306 1027 1173 1145 978 912 606 481 578 346 357 292 182 328 534 617 796 877 978 809 590 698 511 509 459 133 3 0 4 17 16 0 0 0 0
0 9 0 0 79 33 120 35 16 0 5 80 1260 873 632 433 267 373 674 459 322 269 309 262 194 240 322 715 685 509 418 321 277 237 413 563 359 277 97 2 0 1 0 0 0 0 0 0 0
16 0 0 0 1 51 8 13 0 244 416 778 585 423 164 195 130 153 276 287 293 201 180 180 111 295 567 500 306 186 48 57 70 143 206 141 25 9 5 0 0 0 0 0 0 0 0 0 0
0 0 0 0 1 27 72 64 20 272 283 268 245 181 111 70 77 173 250 220 236 195 254 192 245 549 367 113 33 3 3 38 19 4 0 0 0 0 0 0 0 0 0 0 0 0 0 0 0
0 0 0 0 0 36 7 4 4 85 249 302 353 238 225 154 66 55 108 98 272 313 417 566 691 392 123 68 69 63 89 0 0 0 0 0 0 0 0 0 0 0 0 0 0 0 0 0 0
0 0 0 0 0 0 52 4 0 50 256 377 375 417 513 254 206 149 74 96 278 628 573 541 746 387 201 105 83 61 2 0 0 0 0 0 0 0 0 0 0 0 0 0 0 0 0 0 0
0 0 7 0 0 0 43 24 0 14 96 489 462 506 451 353 455 403 331 364 700 1030 704 598 536 314 203 143 131 18 0 0 0 0 0 0 0 0 0 0 0 0 0 0 0 0 0 0 0
1 2 16 0 2 0 1 18 0 26 68 244 401 486 625 560 748 734 654 867 1305 993 665 474 380 250 366 416 186 69 4 0 0 0 0 0 0 0 0 0 0 0 0 0 0 0 0 0 0
0 5 15 4 0 0 0 0 18 43 83 91 186 343 485 693 1002 829 859 1108 1051 1043 863 548 448 449 508 484 209 58 9 0 0 0 0 0 0 0 0 0 0 0 0 0 0 0 0 0 0
7 16 2 17 8 7 32 36 41 50 109 185 221 246 379 547 1060 838 1019 1070 836 886 839 760 722 712 637 349 29 10 0 0 1 1 0 0 0 0 0 0 0 0 0 0 0 0 0 0 0
1 2 49 26 39 130 50 0 58 41 41 230 445 655 629 709 910 942 1130 771 573 793 875 1027 924 657 53 8 17 8 2 0 0 0 0 0 0 0 0 0 0 0 0 0 0 1 0 1 0
87 81 105 49 68 78 17 36 22 27 8 175 329 555 669 845 775 852 965 803 627 845 966 727 558 4 0 0 2 2 0 0 0 0 0 0 0 0 0 0 0 0 0 0 0 2 18 1 0
3 38 234 122 178 280 119 79 117 40 35 40 343 431 671 663 828 817 787 810 631 595 365 75 0 0 0 0 0 0 0 0 0 0 0 0 0 0 0 0 0 0 0 0 0 6 1 3 6
65 5 188 28 0 231 52 65 86 77 49 458 631 722 806 686 494 412 372 332 467 88 4 0 0 0 0 0 0 0 0 0 0 0 0 0 0 0 0 0 0 0 0 0 0 21 28 18 5
63 62 24 31 314 522 5 0 45 26 6 258 677 632 699 353 95 51 12 48 37 0 0 0 0 0 0 0 0 0 0 0 0 0 0 0 0 0 0 0 0 0 0 0 0 0 30 32 21
7 1 111 26 11 0 0 11 129 72 0 59 575 588 626 345 40 0 0 0 0 0 0 0 0 0 0 0 0 0 0 0 0 0 0 0 0 0 0 0 0 0 0 1 9 10 0 5 4
39 7 0 0 204 304 246 15 0 0 0 19 325 535 545 390 121 2 0 0 0 0 0 0 0 0 0 0 0 0 0 0 0 0 0 0 0 0 0 0 0 0 0 4 3 0 0 1 0
0 59 0 530 3 154 346 23 0 0 0 1 24 293 405 383 162 4 0 0 0 0 0 0 0 0 0 0 0 0 0 0 0 0 0 0 0 0 0 0 0 0 1 4 1 2 0 14 15

GFSSGP_con_sbcape_033.txt.gz
CAPE
0 0 0 0 0 0 0 0 199 388 528 468 297 749 814 885 1073 449 633 14 95 406 525 649 670 839 933 978 822 567 365 317 267 174 228 130 95 74 44 99 38 3 0 0 0 0 0 0 0
0 0 0 0 0 0 0 391 599 578 482 363 347 382 733 909 981 833 176 36 5 275 331 526 736 882 996 860 655 390 313 274 298 210 142 107 38 48 155 90 20 0 0 0 0 0 0 0 0
0 0 0 0 0 0 0 544 287 516 451 217 178 62 155 917 975 909 197 85 53 64 360 620 621 671 814 598 534 411 374 279 211 144 90 62 26 19 64 179 93 73 0 0 0 0 0 0 13
0 0 0 0 0 0 0 332 404 351 136 52 19 0 0 0 678 788 235 58 55 265 405 287 327 417 521 770 518 384 318 203 153 143 223 107 76 78 103 239 191 32 3 0 0 0 0 17 12
0 0 0 0 0 0 26 303 133 82 66 115 28 0 0 86 804 675 210 157 375 281 210 138 187 330 740 679 510 387 306 212 196 243 260 270 127 94 146 271 205 71 13 1 0 0 4 13 21
0 0 0 0 0 0 451 172 154 39 48 122 27 0 11 622 927 620 393 195 143 53 59 167 298 558 560 607 437 306 249 196 221 264 283 285 265 280 265 276 302 212 135 61 0 0 9 0 0
0 0 0 0 0 0 554 174 133 244 182 125 11 72 43 288 300 238 193 123 61 84 71 156 237 400 372 379 296 233 175 193 221 271 269 245 208 244 286 312 317 270 226 117 4 0 0 0 0
0 0 0 0 0 189 77 42 23 3 25 0 0 114 65 293 21 0 2 6 12 82 133 149 295 261 239 234 226 177 131 144 133 126 101 81 109 182 233 200 134 54 20 11 0 0 0 0 0
0 0 0 0 77 234 14 12 173 36 48 0 3 246 370 34 5 0 0 6 18 2 31 132 224 231 146 92 163 136 103 71 64 64 34 10 0 0 40 5 22 0 0 0 0 0 0 0 0
0 0 0 22 130 107 24 0 24 127 22 0 579 650 102 27 1 0 6 49 21 6 0 0 148 171 56 42 31 20 13 1 0 0 0 0 0 0 0 0 12 0 0 0 0 0 1 0 0
0 0 0 114 95 20 2 0 54 45 3 4 147 254 78 11 0 8 0 3 12 12 3 5 89 160 0 4 0 0 0 0 0 0 0 21 78 0 0 0 1 0 0 0 0 0 0 0 0
0 0 0 193 41 6 15 0 0 0 0 0 41 59 545 51 38 105 6 3 17 57 91 73 284 65 3 8 0 0 20 162 256 325 287 140 64 0 0 0 0 0 0 0 0 0 0 0 0
0 0 0 140 33 8 7 0 0 0 1 0 2 222 535 477 68 104 99 43 63 100 158 198 143 14 11 1 95 189 275 264 274 42 96 14 2 0 0 0 0 0 0 0 0 0 0 0 0
0 0 0 0 104 35 6 6 2 0 44 50 90 218 179 703 580 374 284 279 400 299 266 88 45 4 85 224 229 226 50 0 0 3 101 18 5 0 0 0 0 0 0 0 0 0 0 0 0
17 2 0 0 18 47 9 1 9 27 48 105 173 513 518 827 843 719 534 405 424 194 76 0 0 206 192 15 0 0 0 0 0 0 0 0 0 0 0 0 0 0 0 0 0 0 0 0 0
0 0 0 0 5 1 0 7 0 9 61 905 610 295 30 22 465 423 191 128 106 49 8 0 192 119 0 0 0 0 0 0 0 0 0 0 0 0 0 0 0 0 0 0 0 0 0 0 0
0 0 0 0 0 14 0 0 0 60 260 642 163 20 0 0 46 70 55 79 49 5 0 22 259 8 0 0 0 0 0 0 0 0 0 0 0 0 0 0 0 0 0 0 0 0 0 0 0
0 0 0 0 0 17 0 0 0 59 140 109 89 26 14 0 0 2 1 62 73 12 0 265 99 0 0 0 0 0 0 0 0 0 0 0 0 0 0 0 0 0 0 0 0 0 0 0 0
0 0 0 0 0 5 0 0 0 0 38 84 77 99 68 0 0 0 0 100 139 181 303 245 75 0 0 0 0 0 0 0 0 0 0 0 0 0 0 0 0 0 0 0 0 0 0 0 0
0 0 0 0 0 0 4 0 0 0 19 105 135 170 152 100 95 53 108 319 272 248 296 238 82 7 17 9 7 0 0 0 0 0 0 0 0 0 0 0 0 0 0 0 0 0 0 0 0
0 4 0 0 0 0 0 0 0 0 3 136 192 215 183 178 290 366 475 563 423 266 307 223 148 49 64 100 9 0 0 0 0 0 0 0 0 0 0 0 0 0 0 0 0 0 0 0 0
0 0 4 2 0 0 0 27 42 8 53 4 85 122 236 347 473 419 510 603 469 242 160 175 127 73 65 128 0 0 0 0 0 0 0 0 0 0 0 0 0 0 0 0 0 0 0 0 0
3 0 0 1 0 5 0 0 0 10 0 7 45 27 65 533 441 437 497 546 403 331 193 260 223 167 203 149 0 0 0 0 0 0 0 0 0 0 0 0 0 0 0 0 0 0 0 0 0
0 0 34 21 0 6 4 0 0 0 0 21 2 125 258 485 322 459 494 354 376 291 247 291 263 254 141 0 0 0 0 0 0 0 0 0 0 0 0 0 0 0 0 0 0 0 0 0 0
4 6 15 1 0 11 45 0 0 2 0 5 110 145 80 335 222 577 470 275 340 324 317 271 120 0 0 0 0 0 0 0 0 0 0 0 0 0 0 0 0 0 0 0 0 0 0 0 0
0 4 3 2 0 2 37 0 0 0 0 0 75 0 164 234 252 600 398 287 332 307 237 162 0 0 0 0 0 0 0 0 0 0 0 0 0 0 0 0 0 0 0 0 0 0 0 0 0
7 63 4 0 0 9 0 0 1 0 3 10 0 52 378 366 136 194 435 289 131 3 0 0 0 0 0 0 0 0 0 0 0 0 0 0 0 0 0 0 0 0 0 0 0 0 0 0 0
11 1 13 2 0 0 0 0 10 0 149 5 161 459 335 85 6 0 0 0 0 0 0 0 0 0 0 0 0 0 0 0 0 0 0 0 0 0 0 0 0 0 0 0 0 0 0 0 0
8 0 0 0 0 0 16 0 0 0 0 237 297 330 183 0 0 0 0 0 0 0 0 0 0 0 0 0 0 0 0 0 0 0 0 0 0 0 0 0 0 0 0 0 0 0 0 0 0
0 3 15 0 0 0 0 0 0 0 0 0 43 214 164 2 0 0 0 0 0 0 0 0 0 0 0 0 0 0 0 0 0 0 0 0 0 0 0 0 0 0 0 0 0 0 0 0 0

GFSSGP_con_sbcape_039.txt.gz
CAPE
0 0 0 0 0 0 0 0 0 0 550 530 581 766 862 898 588 280 206 377 910 728 752 607 630 774 698 507 439 296 128 2 1 8 67 128 60 76 76 35 19 31 9 0 0 0 0 36 176
0 0 0 0 0 0 0 0 0 93 762 971 792 845 861 1075 858 546 458 756 965 727 604 473 681 675 603 472 349 192 71 10 60 47 34 100 29 36 66 81 62 80 69 0 0 0 0 5 267
0 0 0 0 0 0 0 0 515 358 220 99 0 94 553 1091 591 422 462 856 923 744 514 604 603 544 550 428 285 171 156 159 157 175 77 81 42 64 70 136 114 92 81 11 0 0 0 4 25
0 0 0 0 0 0 0 0 19 304 212 152 19 18 60 514 680 415 767 798 741 599 513 523 494 464 522 445 352 283 220 224 216 206 214 155 73 65 122 194 160 139 68 0 0 0 0 0 11
0 0 0 0 0 0 179 282 4 231 270 98 0 17 206 587 314 521 508 611 547 530 525 475 425 459 554 491 406 269 292 298 279 286 259 262 199 124 225 230 192 147 97 54 16 8 0 0 0
0 0 0 0 0 0 405 294 232 202 136 67 60 146 601 730 477 358 490 353 263 252 199 256 316 288 314 337 269 267 330 348 361 315 311 311 269 238 253 263 216 158 77 58 55 18 0 0 0
0 0 0 0 0 0 525 325 307 274 113 41 9 133 637 826 226 102 55 2 2 3 54 48 80 241 234 240 209 235 334 373 349 312 296 293 267 249 243 211 186 143 74 16 2 1 19 0 0
0 0 0 0 0 0 331 286 195 238 116 0 91 300 391 622 73 3 1 0 0 3 8 11 53 48 136 140 185 243 276 319 292 271 242 234 228 246 231 194 166 151 95 6 0 18 41 0 0
0 0 0 0 0 8 171 193 211 133 91 323 433 283 443 223 50 3 1 5 3 1 1 0 37 17 75 127 144 207 279 234 201 200 159 69 19 3 0 15 27 41 17 4 14 4 0 0 0
0 0 0 0 1 201 190 53 87 57 416 270 613 475 356 112 10 10 3 14 3 1 0 0 5 0 74 95 55 29 61 24 17 6 2 0 0 0 0 6 0 0 0 0 1 0 0 0 0
0 0 0 0 47 23 22 0 58 8 132 152 468 239 205 98 22 39 39 3 1 2 2 0 9 89 86 62 9 0 0 0 0 0 0 0 0 0 0 0 0 0 0 0 0 0 0 0 0
0 0 0 14 22 8 8 0 0 10 0 272 258 160 46 37 19 29 44 0 24 1 0 0 113 99 43 13 0 0 0 0 0 0 0 0 0 0 0 0 0 0 0 0 0 0 0 0 0
0 0 3 93 35 48 26 1 0 0 415 287 118 93 63 24 24 35 25 4 0 16 11 23 70 77 2 0 0 0 0 8 38 22 11 0 0 0 0 0 0 0 0 0 0 0 0 0 0
0 0 39 29 23 13 19 0 7 0 231 142 66 67 57 31 48 66 62 2 2 10 11 36 22 58 0 0 0 0 15 18 0 0 0 0 0 0 0 0 0 0 0 0 0 0 0 0 0
0 6 98 77 27 14 2 3 0 4 379 211 161 114 48 46 78 28 46 0 0 0 27 14 51 14 0 0 0 0 0 0 0 0 0 0 0 0 0 0 0 0 0 0 0 0 0 0 0
0 0 41 119 75 16 0 0 0 10 181 449 380 179 85 127 115 59 23 4 0 42 64 46 149 0 0 0 0 0 0 0 0 0 0 0 0 0 0 0 0 0 0 0 0 0 0 0 0
0 0 0 0 6 0 0 17 7 10 221 303 375 439 203 142 197 114 63 33 69 83 145 48 9 0 0 0 0 0 0 0 0 0 0 0 0 0 0 0 0 0 0 0 0 0 0 0 0
15 8 0 0 6 0 4 0 10 35 326 383 322 391 517 351 335 231 202 144 186 205 14 26 0 0 0 0 0 0 0 0 0 0 0 0 0 0 0 0 0 0 0 0 0 0 0 0 0
13 2 0 0 0 0 10 0 58 71 287 503 306 111 402 628 548 477 289 328 352 31 0 0 0 0 0 0 0 0 0 0 0 0 0 0 0 0 0 0 0 0 0 0 0 0 0 0 0
1 4 0 0 0 0 0 0 0 33 398 491 394 0 136 580 601 554 445 437 217 1 1 0 0 0 0 0 0 0 0 0 0 0 0 0 0 0 0 0 0 0 0 0 0 0 0 0 0
0 0 0 0 0 0 0 0 0 0 63 252 119 0 3 460 439 486 473 258 205 2 4 8 0 0 0 0 0 0 0 0 0 0 0 0 0 0 0 0 0 0 0 0 0 0 0 0 0
0 0 0 0 0 0 0 0 0 0 2 30 75 0 0 138 213 219 240 180 138 40 24 42 0 0 0 0 0 0 0 0 0 0 0 0 0 0 0 0 0 0 0 0 0 0 0 0 0
0 0 0 0 0 0 0 0 0 0 0 0 0 0 0 0 24 23 145 87 39 18 23 6 0 0 0 0 0 0 0 0 0 0 0 0 0 0 0 0 0 0 0 0 0 0 0 0 0
0 0 0 0 0 0 0 0 0 0 0 0 0 0 0 0 0 0 37 27 7 31 22 1 0 0 0 0 0 0 0 0 0 0 0 0 0 0 0 0 0 0 0 0 0 0 0 0 0
0 0 0 0 0 0 0 0 0 0 0 0 0 0 0 0 0 60 84 83 50 33 16 15 9 2 0 0 0 0 0 0 0 0 0 0 0 0 0 0 0 0 0 0 0 0 0 0 0
0 0 0 0 0 0 0 0 0 0 0 0 0 0 0 0 1 276 182 145 82 58 72 43 50 50 0 0 0 0 0 0 0 0 0 0 0 0 0 0 0 0 0 0 0 0 0 0 0
0 0 0 0 0 0 0 0 0 0 0 0 0 0 1 12 68 303 348 226 70 41 93 44 48 36 0 0 0 0 0 0 0 0 0 0 0 0 0 0 0 0 0 0 0 0 0 0 0
0 0 0 0 0 0 0 0 0 0 3 0 0 8 40 14 135 192 262 187 151 20 28 12 0 0 0 0 0 0 0 0 0 0 0 0 0 0 0 0 0 0 0 0 0 0 0 0 0
0 0 0 0 0 0 0 0 0 0 0 5 0 0 6 89 208 225 187 84 71 36 4 0 0 0 0 0 0 0 0 0 0 0 0 0 0 0 0 0 0 0 0 0 0 0 0 0 0
0 0 0 0 0 0 0 0 0 0 0 0 0 0 0 5 220 228 165 64 40 1 0 0 0 0 0 0 0 0 0 0 0 0 0 0 0 0 0 0 0 0 0 0 0 0 0 0 0

GFSSGP_con_sbcape_042.txt.gz
CAPE
0 0 0 0 0 0 0 0 0 0 128 786 741 826 742 666 459 250 359 454 747 842 715 670 725 645 504 374 252 174 109 48 12 22 64 155 139 86 54 48 76 68 68 5 66 216 164 46 3
0 0 0 0 0 0 0 0 0 207 768 250 185 544 881 841 774 548 525 952 815 820 600 595 758 585 454 323 206 130 70 77 128 129 71 110 83 90 108 78 52 101 98 21 119 218 274 194 381
0 0 0 0 0 0 0 0 231 366 300 214 53 222 413 765 541 604 487 1010 831 727 468 626 603 462 424 284 177 133 127 164 223 180 90 104 106 84 188 123 98 129 111 47 22 79 173 229 130
0 0 0 0 0 0 0 0 0 110 303 137 28 87 369 665 689 630 996 913 763 616 473 551 460 416 393 349 284 250 234 233 178 159 197 183 140 87 253 182 163 155 100 23 0 22 22 20 18
0 0 0 0 0 0 0 310 224 165 256 135 46 180 820 597 864 777 609 251 530 602 514 427 318 382 492 491 372 353 323 281 241 257 286 277 280 207 327 242 179 138 146 33 11 29 61 23 0
0 0 0 0 0 0 66 396 357 314 284 118 185 435 736 652 594 107 0 1 1 173 306 260 329 404 439 404 364 370 380 356 341 332 347 366 360 324 302 234 134 106 81 68 38 6 18 24 0
0 0 0 0 0 0 260 411 411 324 152 126 280 522 837 680 322 1 1 1 0 3 70 62 15 125 266 285 325 371 424 387 377 370 369 342 298 277 238 201 158 133 142 110 33 0 0 12 7
0 0 0 0 0 0 329 443 345 296 218 80 386 568 845 363 2 0 1 2 3 5 5 5 3 25 111 206 352 380 357 336 354 320 254 218 228 231 205 208 200 126 103 148 146 24 0 0 0
0 0 0 0 0 0 225 345 316 255 477 625 690 548 590 54 2 2 1 4 4 5 1 12 17 35 108 159 281 302 380 298 271 219 193 42 20 25 0 67 111 96 88 73 26 1 0 0 0
0 0 0 0 0 2 210 108 162 307 579 621 743 822 479 187 5 6 5 3 7 9 5 0 13 24 92 91 92 92 135 42 22 26 6 5 0 0 0 1 8 22 23 4 0 0 0 0 0
0 0 0 0 0 65 117 41 134 488 517 467 582 717 578 276 29 24 6 3 3 16 20 5 1 19 135 68 7 9 4 0 0 0 0 0 0 0 0 0 0 0 0 0 0 0 0 0 0
0 0 0 0 110 36 25 25 70 7 30 382 567 629 368 68 64 5 5 12 5 3 2 0 10 115 67 22 0 0 0 0 0 0 0 0 0 0 0 0 0 0 0 0 0 0 0 0 0
0 0 0 0 66 20 6 5 0 250 381 553 464 224 49 103 75 52 17 11 0 1 0 0 18 118 23 12 0 0 0 0 0 0 0 0 0 0 0 0 0 0 0 0 0 0 0 0 0
0 0 12 60 58 23 47 21 0 354 460 390 207 106 68 58 84 51 2 1 9 0 0 0 53 55 0 0 0 0 0 0 0 0 0 0 0 0 0 0 0 0 0 0 0 0 0 0 0
0 81 95 98 9 35 21 30 0 404 346 201 104 82 74 22 88 86 35 0 0 0 0 2 16 26 0 0 0 0 0 0 0 0 0 0 0 0 0 0 0 0 0 0 0 0 0 0 0
0 2 92 51 53 3 0 1 6 444 218 129 115 123 90 38 65 66 83 0 0 0 7 6 37 0 0 0 0 0 0 0 0 0 0 0 0 0 0 0 0 0 0 0 0 0 0 0 0
0 0 0 1 11 15 0 0 0 143 379 278 322 221 119 125 118 50 40 1 0 0 24 21 39 0 0 0 0 0 0 0 0 0 0 0 0 0 0 0 0 0 0 0 0 0 0 0 0
10 5 0 0 16 0 0 1 0 77 346 398 393 321 205 111 170 142 18 0 0 9 52 17 1 0 0 0 0 0 0 0 0 0 0 0 0 0 0 0 0 0 0 0 0 0 0 0 0
7 8 0 0 0 58 12 0 0 19 135 317 362 342 329 260 180 177 129 45 26 31 0 10 0 0 0 0 0 0 0 0 0 0 0 0 0 0 0 0 0 0 0 0 0 0 0 0 0
0 2 1 0 0 0 0 0 0 13 93 339 313 322 276 350 394 322 221 184 160 78 10 4 0 0 0 0 0 0 0 0 0 0 0 0 0 0 0 0 0 0 0 0 0 0 0 0 0
0 0 0 0 0 0 0 0 0 0 95 344 400 331 253 276 435 485 379 285 289 66 0 0 0 0 0 0 0 0 0 0 0 0 0 0 0 0 0 0 0 0 0 0 0 0 0 0 0
0 0 0 0 0 0 0 0 0 0 71 108 323 235 132 61 366 477 488 360 315 119 0 3 0 0 0 0 0 0 0 0 0 0 0 0 0 0 0 0 0 0 0 0 0 0 0 0 0
0 0 0 0 0 0 0 0 0 0 0 35 118 140 59 0 217 385 433 413 239 67 0 0 0 0 0 0 0 0 0 0 0 0 0 0 0 0 0 0 0 0 0 0 0 0 0 0 0
0 0 0 0 0 0 0 0 0 0 0 0 0 76 72 0 20 215 218 154 67 1 0 0 0 0 0 0 0 0 0 0 0 0 0 0 0 0 0 0 0 0 0 0 0 0 0 0 0
0 0 0 0 0 0 0 0 0 0 0 0 0 0 0 0 0 0 4 20 2 0 1 0 0 2 0 0 0 0 0 0 0 0 0 0 0 0 0 0 0 0 0 0 0 0 0 0 0
0 0 0 0 0 0 0 0 0 0 0 0 0 0 0 0 0 0 0 0 0 0 0 1 22 23 0 0 0 0 0 0 0 0 0 0 0 0 0 0 0 0 0 0 0 0 0 0 0
0 0 0 0 0 0 0 0 0 0 0 0 0 0 0 0 0 0 0 1 8 1 11 31 38 19 0 0 0 0 0 0 0 0 0 0 0 0 0 0 0 0 0 0 0 0 0 0 0
0 0 0 0 0 0 0 0 0 0 0 0 0 0 0 0 0 47 63 38 27 27 30 17 17 31 4 0 0 0 0 0 0 0 0 0 0 0 0 0 0 0 0 0 0 0 0 0 0
0 0 0 0 0 0 0 0 0 0 0 0 0 0 0 0 0 70 157 141 85 62 25 0 0 0 0 0 0 0 0 0 0 0 0 0 0 0 0 0 0 0 0 0 0 0 0 0 0
0 0 0 0 0 0 0 0 0 0 0 0 0 0 0 0 13 20 63 88 129 96 18 0 2 0 0 0 0 0 0 0 0 0 0 0 0 0 0 0 0 0 0 0 0 0 0 0 0

GFSSGP_con_sbcape_045.txt.gz
CAPE
0 0 0 0 0 0 0 0 0 0 8 1170 1099 968 936 903 746 645 695 757 1026 825 613 641 661 701 633 460 324 241 211 178 127 138 208 222 145 122 201 146 158 203 131 135 125 155 357 341 28
0 0 0 0 0 0 0 0 2 334 724 460 418 1138 1096 925 786 710 751 1093 1116 834 665 613 617 567 507 375 298 236 194 191 211 247 251 132 134 182 162 174 189 410 517 392 301 147 220 342 240
0 0 0 0 0 0 0 0 1 237 754 431 422 534 970 932 723 761 642 1240 1083 823 698 673 574 399 379 286 211 204 284 281 261 222 200 209 200 228 227 189 181 335 671 441 375 342 347 262 165
0 0 0 0 0 0 0 0 0 318 584 335 405 894 1141 747 825 992 1301 1279 972 854 721 589 364 296 329 284 239 261 303 246 216 164 213 241 300 315 271 189 177 216 403 417 396 252 56 127 60
0 0 0 0 0 0 0 60 511 238 536 406 295 759 1072 782 250 359 282 572 820 899 795 526 259 263 356 362 331 349 248 229 204 195 225 287 365 367 226 179 178 159 271 310 132 112 58 39 11
0 0 0 0 0 0 0 587 680 660 508 440 819 741 1057 813 115 63 84 52 159 475 536 396 358 401 376 291 300 288 257 289 302 288 337 402 307 263 232 203 198 142 105 181 186 110 46 4 0
0 0 0 0 0 0 171 593 664 573 458 471 617 817 991 643 38 4 3 2 4 57 255 120 80 90 128 362 220 224 319 354 363 336 324 263 197 139 152 202 227 189 83 51 119 149 74 12 0
0 0 0 0 0 0 335 599 620 535 489 388 725 916 615 244 5 4 3 2 3 7 10 3 10 36 95 373 267 223 301 343 363 289 183 156 148 184 197 168 194 269 199 87 36 25 42 0 0
0 0 0 0 0 0 477 622 516 576 759 861 919 821 560 28 6 4 7 4 4 8 8 0 2 49 99 355 394 269 327 287 243 203 145 36 13 10 0 62 109 151 209 76 9 0 0 0 0
0 0 0 0 0 2 510 421 490 802 791 817 825 734 256 5 14 4 8 8 6 6 10 5 17 20 104 221 224 215 234 144 120 81 53 31 62 25 3 11 58 76 22 0 0 0 0 0 0
0 0 0 0 0 4 371 246 299 783 777 756 675 520 279 116 4 2 10 5 3 4 15 24 8 3 117 176 171 72 67 76 99 61 39 55 59 55 0 0 0 0 0 0 0 0 0 0 0
0 0 0 0 17 103 107 167 366 143 164 600 790 573 407 228 30 1 9 6 5 3 8 0 0 0 58 59 92 40 45 31 38 10 41 85 19 6 0 0 0 0 0 0 0 0 0 0 0
0 0 0 0 41 52 99 55 34 451 732 844 749 273 134 192 65 3 6 8 8 7 31 15 76 193 158 85 43 34 28 12 51 21 51 88 11 0 0 0 0 0 0 0 0 0 0 0 0
0 0 0 34 45 81 95 58 8 661 750 618 481 306 230 73 51 40 12 10 20 16 2 43 100 195 120 51 6 4 26 35 51 52 64 138 145 16 0 0 0 0 0 0 0 0 0 0 0
0 18 80 143 52 62 58 82 8 621 683 487 480 382 166 188 130 103 43 15 11 7 0 6 64 216 116 35 0 0 0 64 192 193 196 149 5 0 0 0 0 0 0 0 0 0 0 0 0
0 3 119 7 94 42 0 41 68 437 646 537 408 212 173 60 167 114 41 44 20 7 0 1 43 212 45 5 0 0 72 235 146 57 11 0 0 0 0 0 0 0 0 0 0 0 0 0 0
0 3 0 0 65 49 15 84 56 700 485 437 352 266 266 132 153 134 63 19 22 17 0 0 83 273 65 3 1 2 75 128 38 0 0 0 0 0 0 0 0 0 0 0 0 0 0 0 0
25 0 0 0 56 46 78 57 98 612 507 226 361 372 344 252 158 135 190 71 37 47 38 34 115 235 154 14 3 7 31 21 0 0 0 0 0 0 0 0 0 0 0 0 0 0 0 0 0
0 1 12 3 0 86 112 83 24 423 496 487 453 469 441 359 266 205 162 241 102 104 155 166 212 216 96 13 16 22 32 0 0 0 0 0 0 0 0 0 0 0 0 0 0 0 0 0 0
0 0 7 0 0 0 0 0 0 165 576 660 591 605 564 534 359 333 295 224 220 127 151 181 205 193 135 76 27 20 41 3 0 0 0 0 0 0 0 0 0 0 0 0 0 0 0 0 0
0 0 0 10 0 0 0 0 0 7 119 212 479 591 522 529 570 521 401 305 241 205 148 216 221 222 207 106 11 0 0 0 0 0 0 0 0 0 0 0 0 0 0 0 0 0 0 0 0
0 0 0 0 2 5 0 0 0 0 108 191 307 558 625 537 504 707 695 528 401 345 246 200 226 157 151 60 31 0 30 7 0 0 0 0 0 0 0 0 0 0 0 0 0 0 0 0 0
0 0 0 0 0 0 0 0 0 0 0 210 344 504 666 666 530 720 873 841 598 580 309 272 204 148 91 26 34 0 34 15 0 0 0 0 0 0 0 0 0 0 0 0 0 0 0 0 0
0 0 0 0 0 0 0 0 5 0 0 0 26 341 518 532 320 473 837 921 849 605 359 225 166 132 79 26 1 0 0 0 0 0 0 0 0 0 0 0 0 0 0 0 0 0 0 0 0
0 0 0 0 0 5 0 0 29 0 0 0 0 0 195 450 361 315 594 774 811 495 415 304 248 176 54 5 2 0 0 0 0 0 0 0 0 0 0 0 0 0 0 0 0 0 0 0 0
0 0 14 0 0 0 0 0 3 0 0 0 0 0 0 49 131 199 444 635 634 500 460 264 222 295 103 55 54 8 0 0 0 0 0 0 0 0 0 0 0 0 0 0 0 0 0 0 0
0 0 0 0 0 0 0 0 0 0 0 0 0 0 0 0 0 13 121 284 404 355 364 301 241 281 134 83 74 37 2 0 0 0 0 0 0 0 0 0 0 0 0 0 0 0 0 0 0
0 0 0 1 0 0 0 0 0 0 0 0 0 0 0 0 0 0 30 106 258 300 318 327 379 405 317 153 97 43 14 0 0 0 0 0 0 0 0 0 0 0 0 0 0 0 0 0 0
0 0 0 0 0 0 0 0 0 0 0 0 0 0 0 19 29 70 210 197 236 268 287 351 387 417 384 220 118 48 3 1 2 1 0 0 0 0 0 0 0 0 0 0 0 0 0 0 0
0 0 0 6 0 0 0 0 0 0 0 0 0 0 0 0 61 177 367 484 421 374 369 370 323 338 355 93 0 1 1 1 2 2 1 0 0 0 0 0 0 0 0 0 0 0 0 0 0

GFSSGP_con_sbcape_051.txt.gz
CAPE
0 0 0 0 0 0 0 29 79 86 209 385 408 786 903 444 356 378 1198 1791 1448 770 778 1238 1199 1303 1277 1173 958 734 545 453 398 401 413 441 639 778 872 938 857 774 364 0 0 0 0 0 0
0 0 0 0 0 10 58 1 7 74 379 632 1019 1328 982 805 566 1337 1435 1671 1609 527 731 1167 1181 1198 1145 928 692 564 477 381 444 471 476 613 639 543 612 708 871 881 760 28 0 0 0 0 15
0 0 0 18 19 38 44 18 102 63 275 1005 905 1093 957 1126 1240 1329 1477 1166 1211 498 602 1106 1038 1002 891 669 529 443 462 455 476 506 627 602 594 645 779 761 765 899 921 142 0 0 10 7 81
0 0 0 0 1 59 0 22 0 0 235 532 931 1207 1658 1452 1596 1806 1595 1512 1286 831 449 939 807 706 675 542 503 460 415 431 378 517 611 642 675 848 1039 1020 935 944 964 191 20 0 0 21 36
0 0 0 39 17 11 0 0 0 41 162 524 694 1107 1846 1447 1519 1705 1995 1954 1781 1190 1090 876 555 543 518 601 548 486 481 363 455 566 523 591 700 776 1044 1049 989 988 891 209 7 0 0 6 1
0 0 7 35 23 5 2 95 411 295 418 852 1057 1076 1837 1420 1441 1135 1307 1238 1348 900 481 340 391 414 444 524 455 395 353 441 510 504 545 615 528 497 743 935 814 679 351 257 155 64 8 0 0
0 9 34 13 29 26 54 604 1118 1300 1010 1077 1515 1416 1741 1435 654 796 760 480 420 470 181 184 222 259 248 225 191 204 325 426 492 511 450 407 315 286 473 543 445 331 266 215 168 78 10 0 0
0 0 12 26 21 21 341 675 1158 1229 1192 1350 1436 1480 1418 1106 382 238 172 34 123 44 121 38 3 85 132 229 124 207 281 345 341 318 289 269 230 246 299 313 317 309 259 206 79 16 0 0 0
0 2 24 33 59 23 161 468 1271 1349 1257 1357 1853 1967 1101 666 402 127 2 6 5 5 1 5 3 2 147 159 158 276 404 343 257 244 185 101 34 0 51 178 281 327 263 120 9 0 0 0 0
0 60 24 16 19 45 29 378 1116 1189 1100 1237 1323 1023 762 577 591 315 12 5 7 11 6 2 0 11 22 92 99 139 396 275 217 173 193 95 148 161 46 167 199 172 127 28 0 0 0 0 0
12 9 9 38 1 1 39 552 890 909 409 1095 1396 577 588 450 446 160 9 7 8 10 10 0 0 6 0 36 53 100 199 243 213 220 228 267 209 123 178 89 0 0 0 0 0 0 0 0 0
0 5 9 21 0 37 572 615 767 744 1142 1526 903 500 535 611 154 5 8 7 3 4 8 16 11 0 69 31 70 103 181 245 215 300 399 411 308 307 248 109 11 0 0 0 0 1 0 0 0
2 7 8 3 2 370 373 442 572 1123 1504 1318 805 579 540 635 144 9 8 12 4 3 5 6 2 0 12 72 75 148 112 84 178 254 333 330 286 410 245 267 113 60 48 11 1 0 0 0 0
24 0 0 10 60 30 260 487 620 1321 1589 1206 876 744 664 654 198 8 10 13 17 18 8 18 42 27 36 33 52 113 142 162 232 329 360 456 427 449 143 189 107 106 77 51 7 0 0 0 0
0 0 33 16 40 82 244 142 461 1302 1461 1189 1092 665 630 463 128 108 8 6 0 1 1 3 6 29 20 33 50 81 203 229 282 266 520 568 354 347 323 342 212 137 86 36 0 0 0 0 0
0 10 16 39 120 150 92 0 927 1000 1311 959 673 654 522 523 193 134 90 19 3 2 9 10 6 56 27 35 53 75 245 230 194 242 515 607 317 268 282 235 176 109 49 2 0 0 0 0 0
12 10 33 44 42 205 135 12 728 664 1104 780 807 610 499 490 265 193 64 29 6 0 0 12 20 2 37 186 247 365 250 74 4 161 428 535 606 599 674 340 230 106 30 5 0 0 0 0 0
27 21 26 15 56 62 201 164 465 620 730 708 608 536 388 500 392 215 189 53 14 44 79 90 92 114 235 367 165 50 160 155 208 379 545 619 741 666 624 337 251 83 19 0 0 0 0 0 0
0 17 34 48 66 101 125 118 174 733 646 628 540 589 412 577 501 338 205 199 132 173 192 217 322 400 386 253 118 0 135 139 195 378 554 603 606 499 458 305 202 61 8 1 0 0 0 0 0
0 47 43 57 19 22 6 73 3 537 717 463 533 576 505 506 566 332 309 309 274 258 243 260 240 267 555 419 175 40 15 53 90 277 628 559 522 419 374 303 94 36 10 0 0 0 0 0 0
0 58 34 49 20 3 0 1 42 27 330 511 326 381 382 544 660 606 245 274 391 343 373 385 410 528 569 576 397 103 8 64 101 271 492 558 599 463 277 247 84 36 12 8 0 0 0 0 0
21 12 26 20 38 49 25 14 18 32 134 489 447 322 303 403 701 711 739 486 311 323 447 415 410 438 446 522 509 288 69 8 83 244 419 532 401 174 46 74 34 0 3 2 0 0 0 0 0
15 2 19 28 78 64 30 105 60 17 44 126 548 504 399 371 514 766 809 781 747 680 711 762 476 383 410 573 621 660 322 109 188 430 676 854 519 191 103 25 3 0 0 0 0 1 0 0 0
2 0 11 35 56 101 110 80 61 65 9 41 86 307 512 437 500 565 813 869 922 919 1092 991 572 480 484 659 789 970 743 428 152 700 867 811 634 331 84 1 1 0 0 0 0 0 0 0 0
2 13 75 90 113 165 90 85 30 40 66 26 44 108 320 472 555 616 681 924 1132 1342 1318 1323 769 507 555 674 855 987 992 861 672 535 977 687 506 260 23 2 0 0 0 0 1 0 0 0 0
0 31 123 104 202 200 123 35 59 78 17 1 11 89 134 252 603 713 738 798 1134 1551 1514 1353 1216 1045 702 568 870 1256 1124 1518 1277 1172 978 861 738 570 7 0 0 0 0 0 0 0 0 0 0
38 29 75 87 186 143 211 91 127 51 0 1 21 141 240 290 266 552 869 1003 1140 1769 2061 2015 1592 1474 1169 804 630 484 841 1631 1434 1373 1376 1160 680 0 0 0 0 0 0 0 0 0 0 0 0
13 53 60 125 80 137 138 182 148 22 1 0 0 35 261 358 236 318 700 970 1174 1549 2219 2265 2076 1777 1531 1232 1159 1055 1274 1375 1163 1078 1098 667 26 0 0 0 0 0 0 0 0 0 0 0 0
2 57 73 98 123 159 231 250 80 12 0 0 0 0 3 282 502 418 453 620 892 1279 1799 2198 2250 2111 1950 1762 1622 1475 1155 1095 772 640 472 94 0 3 1 2 0 0 0 0 0 0 0 0 0
19 33 85 129 184 113 131 170 52 24 10 0 0 0 12 44 507 754 765 716 844 1134 1487 1838 1972 1958 1776 1698 1665 1509 1027 815 591 396 77 0 3 0 0 0 0 0 0 0 0 0 0 0 0

GFSSGP_con_sbcape_054.txt.gz
CAPE
0 0 0 0 0 0 0 0 0 0 21 290 401 80 393 182 203 604 791 92 2 546 1659 1813 1598 1583 1497 1399 1193 1006 818 739 710 699 715 772 839 1082 932 450 231 284 122 0 0 0 0 0 0
0 0 0 0 0 0 0 0 37 62 202 291 217 114 91 444 75 728 1005 1145 802 1018 1476 1754 1544 1541 1471 1317 1098 914 808 727 733 668 765 861 1051 1111 933 686 282 274 189 0 0 0 0 0 0
0 0 0 0 0 0 6 0 0 6 9 133 336 569 603 202 140 1043 1493 1488 869 1030 1501 1467 1087 1285 1331 1173 989 860 791 671 636 664 928 884 925 1017 1003 770 341 307 220 0 0 0 0 0 0
0 0 0 0 0 0 2 1 0 0 0 73 121 525 472 317 1235 1426 1567 1361 707 976 1540 1072 898 950 1132 1084 984 914 668 599 562 747 737 834 901 954 950 729 675 391 236 18 0 0 0 0 0
0 0 0 0 0 4 0 0 0 0 0 41 103 347 558 991 1333 1328 1478 608 1156 774 1224 811 679 775 1006 1016 971 822 712 594 708 687 711 893 1104 1091 822 833 783 312 243 28 0 0 0 0 0
0 0 0 6 13 0 0 25 109 162 39 20 199 463 718 1195 843 826 934 1227 1181 487 877 664 667 576 658 794 786 732 644 724 683 702 799 1019 1130 1105 964 884 608 300 212 170 65 9 0 0 0
0 0 0 1 7 4 3 0 2 676 346 436 715 330 458 487 413 384 329 447 542 589 444 280 218 303 252 354 432 485 624 686 689 614 486 533 692 792 841 639 393 302 240 185 78 14 0 0 0
0 0 0 1 3 0 0 24 641 688 92 0 867 269 0 585 257 157 89 141 230 340 232 107 34 3 1 52 202 321 460 489 416 292 235 264 385 426 402 334 282 233 210 131 36 3 0 0 0
0 0 0 6 19 2 9 74 182 331 568 161 935 543 577 394 302 104 49 3 1 71 167 72 3 1 4 0 100 357 448 329 233 189 197 153 214 192 148 212 249 224 149 76 8 0 0 0 0
0 0 0 0 0 0 0 4 471 518 171 15 0 611 587 626 446 57 3 4 2 2 6 10 6 4 0 8 13 83 279 248 154 99 76 59 56 117 148 218 243 192 75 5 0 0 0 0 0
0 0 0 0 0 0 0 0 1 18 359 340 0 351 503 579 309 5 4 7 6 5 1 1 3 12 17 16 28 56 88 179 243 196 146 180 120 111 84 51 39 18 1 0 0 0 0 0 0
0 0 0 0 0 0 42 13 0 24 1353 760 244 551 507 371 94 4 5 4 3 3 5 2 0 0 0 6 28 31 21 124 195 285 315 253 193 185 60 28 9 0 0 0 0 0 0 0 0
0 0 0 1 0 0 102 146 81 1201 1099 634 458 570 598 156 3 4 5 4 4 5 5 4 5 0 0 0 3 9 70 124 133 273 317 369 253 268 115 103 7 0 0 0 1 0 0 0 0
0 1 0 0 0 0 12 11 64 63 912 658 660 549 582 28 2 5 2 4 4 5 4 9 8 21 14 0 1 8 58 138 173 280 294 371 337 360 296 335 177 75 64 13 1 0 0 0 0
0 0 0 4 0 0 24 0 0 0 54 865 512 255 429 64 5 7 1 5 3 6 3 16 12 18 16 2 51 46 90 184 261 283 351 294 347 329 302 319 279 141 107 70 8 0 0 0 0
0 0 0 0 10 6 2 1 1 0 58 821 272 145 339 56 81 3 3 2 1 0 3 3 1 0 0 0 0 5 49 263 231 259 254 387 405 315 317 263 330 263 126 32 5 0 0 0 0
0 0 0 7 14 69 14 0 0 50 80 478 271 216 251 97 96 9 0 1 2 0 5 6 0 0 0 0 0 24 68 177 142 126 264 400 414 372 344 388 302 275 55 12 0 0 0 0 0
0 0 1 0 18 29 81 155 0 340 512 371 416 272 265 115 79 55 8 1 2 0 0 0 0 0 0 0 0 18 93 137 43 7 178 360 404 516 425 345 355 93 35 12 0 0 0 0 0
1 0 0 20 33 29 123 183 81 6 317 277 413 200 320 270 135 61 3 0 0 0 2 0 0 0 0 38 21 10 57 11 0 19 283 463 408 450 407 417 263 75 44 9 1 0 0 0 0
0 0 0 3 17 0 3 7 176 289 128 375 315 331 262 401 260 159 27 0 5 0 0 0 0 0 0 15 15 0 0 18 6 33 383 519 499 492 470 387 153 67 44 18 0 0 0 0 0
0 0 0 8 3 0 1 0 0 111 202 199 264 420 309 404 480 193 162 17 30 97 75 42 29 3 0 58 102 56 0 0 21 52 271 363 332 316 352 316 182 72 42 0 0 0 0 0 0
0 0 0 1 11 6 1 0 1 6 59 211 146 321 368 456 612 388 236 239 153 272 210 199 224 222 188 284 288 175 2 0 3 0 193 333 486 382 329 252 222 135 12 0 0 0 0 0 0
0 7 1 0 0 7 24 11 10 1 16 104 276 206 308 426 633 568 306 300 363 299 291 279 321 283 302 419 513 316 126 17 0 104 133 411 521 423 237 124 83 21 0 0 0 0 0 0 0
3 1 0 0 5 22 3 14 22 17 10 21 187 296 224 289 567 712 598 328 316 289 428 400 422 364 340 579 661 534 363 188 103 202 316 573 491 260 128 81 63 0 0 0 0 0 0 0 0
0 9 12 21 13 57 25 55 121 23 10 0 23 213 368 332 340 592 737 703 537 338 360 552 530 477 416 425 640 501 709 569 266 307 451 556 521 338 200 118 5 0 0 0 0 0 0 0 0
0 0 28 12 56 93 14 96 23 0 14 12 0 31 149 400 450 456 621 807 824 830 798 609 592 579 542 499 691 752 590 735 573 526 436 411 474 338 221 44 0 0 0 0 0 0 0 0 0
11 0 0 70 57 191 124 3 15 23 17 0 0 0 110 196 480 488 538 657 911 1003 1103 1140 966 658 483 567 612 480 558 471 525 473 618 536 558 395 65 0 0 0 0 0 0 0 0 0 0
0 2 38 33 30 61 66 106 81 21 0 0 0 21 163 327 306 290 479 708 943 1237 1395 1462 1276 1141 891 556 555 436 436 247 238 30 936 954 96 0 0 0 0 0 0 0 0 0 0 0 0
0 0 44 66 37 103 109 102 23 10 5 0 0 0 14 180 434 370 507 722 936 1158 1499 1876 1685 1494 1322 699 515 440 156 256 547 774 703 726 21 0 0 0 0 0 0 0 0 0 0 0 0
1 7 33 98 47 145 158 47 1 37 10 8 0 0 0 94 510 593 576 587 678 1238 1658 2001 1950 1883 1459 1064 580 921 961 953 743 570 246 25 0 0 0 0 0 0 0 0 0 0 0 0 0

GFSSGP_con_sbcape_057.txt.gz
CAPE
0 0 0 0 0 0 0 0 0 4 210 432 330 175 429 247 431 716 391 242 0 0 0 142 999 1553 1645 1429 1248 1082 1073 1066 981 835 909 1060 788 465 368 179 79 18 3 0 0 0 0 0 0
0 0 0 0 0 0 0 0 0 0 427 339 309 127 694 466 212 1091 1196 237 161 6 74 720 1018 1383 1695 1501 1176 1075 1111 1171 1039 933 1134 1221 793 524 429 215 135 159 75 0 0 0 0 0 0
0 0 0 0 0 0 0 0 0 0 22 349 430 1074 442 325 450 884 1336 453 86 955 1544 1430 1462 1303 1393 1236 1094 1047 1085 1038 989 1009 1348 1319 1012 639 486 241 212 214 62 0 0 0 0 0 0
0 0 0 0 0 0 0 0 0 0 0 105 471 707 457 243 898 1446 1454 1045 926 912 1417 1079 937 829 715 968 1148 1057 910 830 918 1065 1325 1253 1223 812 515 323 290 244 34 0 0 0 0 0 0
0 0 0 0 0 0 0 0 0 148 278 676 468 562 125 183 912 876 1265 879 1000 1001 902 771 666 654 503 572 1088 1020 859 932 882 1058 1168 1326 1125 1035 535 363 290 163 63 0 0 0 0 0 0
0 0 0 0 0 0 1 0 66 258 199 647 440 542 336 337 441 367 702 729 634 959 738 647 785 729 670 672 374 692 874 835 886 978 1126 1220 1124 970 682 373 251 154 87 16 0 0 0 0 0
0 0 0 0 0 0 7 32 155 58 408 13 56 478 83 466 166 179 427 738 914 815 636 465 399 368 180 167 252 392 733 786 876 1031 1140 1082 890 853 507 376 264 203 100 25 1 0 0 0 0
0 0 0 0 0 0 0 7 174 227 252 32 594 20 48 442 118 83 108 558 688 418 205 83 148 74 18 14 100 246 399 372 365 590 673 737 752 682 416 287 243 193 98 30 0 0 0 0 0
0 0 0 0 0 0 0 44 65 63 58 328 833 357 185 217 32 99 215 150 288 301 150 55 1 1 0 0 35 323 372 231 192 330 204 231 209 194 184 249 229 171 116 29 0 0 0 0 0
0 0 0 0 0 0 0 34 363 48 0 47 514 659 345 360 37 68 241 87 1 16 102 6 1 2 0 0 3 49 99 58 39 36 17 89 55 164 254 276 225 156 102 15 0 0 0 0 0
0 0 0 0 0 0 0 39 21 0 158 32 40 503 491 45 2 2 2 1 1 1 5 3 3 0 0 0 0 0 9 26 9 25 17 57 119 176 191 133 58 31 16 0 0 0 0 0 0
0 0 0 0 0 0 8 1 26 0 0 457 397 377 321 6 0 3 1 2 1 2 1 1 2 0 0 0 0 0 0 12 31 40 42 88 70 98 37 38 16 0 0 0 0 0 0 0 0
0 0 0 0 0 0 26 231 14 0 0 2 440 437 29 0 4 3 2 2 3 3 5 2 0 0 0 0 3 0 2 30 59 137 121 149 76 21 22 26 1 0 0 0 0 0 0 0 0
0 0 0 0 0 0 0 0 0 2 0 0 311 167 3 0 3 3 2 3 2 4 3 0 1 0 0 0 4 0 11 12 32 137 203 179 88 45 57 52 0 0 0 0 0 0 0 0 0
0 0 0 0 0 0 0 0 0 0 0 25 539 196 9 0 0 0 2 2 0 5 4 0 0 0 0 0 0 0 11 11 26 108 183 192 193 200 126 146 40 0 0 0 0 0 0 0 0
0 0 0 0 0 0 1 4 0 0 0 73 415 123 22 0 0 0 1 2 0 3 3 6 2 0 0 0 0 0 5 9 59 81 145 159 150 196 125 91 101 2 0 0 0 0 0 0 0
0 0 0 0 0 29 0 7 0 0 0 1 94 92 33 3 0 0 0 1 1 0 5 12 2 0 0 2 0 0 2 23 50 109 121 115 174 204 52 125 74 63 0 0 0 0 0 0 0
0 0 0 0 0 33 26 0 0 0 102 147 14 72 24 1 0 0 0 0 0 0 0 0 0 0 0 0 0 0 0 10 57 15 22 135 177 172 142 97 139 2 0 0 0 0 0 0 0
0 0 0 0 11 1 45 52 0 0 25 27 0 16 0 0 0 0 0 0 0 0 0 0 0 0 0 0 0 0 0 0 19 12 0 66 128 237 259 198 89 0 0 0 0 0 0 0 0
0 0 0 0 1 0 0 27 4 0 21 20 3 9 8 0 0 0 0 0 0 0 0 0 0 0 0 0 0 0 0 0 0 0 0 115 156 207 208 191 56 0 0 0 0 0 0 0 0
0 0 0 0 4 0 0 0 52 35 2 35 0 6 40 0 0 0 0 0 0 0 0 0 0 0 0 0 0 0 0 0 0 0 0 176 176 171 201 148 18 0 0 0 0 0 0 0 0
0 0 0 0 0 0 0 0 0 65 12 101 74 6 49 30 0 0 0 0 0 0 0 0 0 0 0 0 0 0 0 0 0 0 0 35 98 120 181 145 34 0 0 0 0 0 0 0 0
0 0 0 0 0 0 0 0 1 29 9 25 42 23 16 51 15 0 0 0 0 0 0 0 0 0 0 0 0 0 0 0 0 0 0 16 113 111 124 95 8 0 0 0 0 0 0 0 0
0 0 0 0 0 0 0 0 0 1 0 39 0 10 0 133 48 21 2 0 0 0 0 0 0 0 0 0 0 10 43 0 0 0 0 36 123 132 83 24 0 0 0 0 0 0 0 0 0
0 0 0 0 0 0 1 1 0 0 0 0 0 2 1 37 181 88 43 42 8 1 33 6 5 21 25 18 26 50 135 75 0 0 0 33 140 90 73 51 0 0 0 0 0 0 0 0 0
0 0 0 0 0 0 0 0 0 0 0 0 0 0 0 7 160 172 110 91 101 73 43 34 17 38 48 49 103 140 187 203 46 19 8 68 108 148 69 0 0 0 0 0 0 0 0 0 0
0 0 0 0 48 0 0 12 0 0 0 0 0 0 0 0 70 237 179 93 66 163 77 101 49 13 47 37 74 186 226 79 206 126 148 153 99 80 15 1 0 0 0 0 0 0 0 0 0
0 0 0 0 5 9 0 0 0 0 0 0 0 0 0 0 0 6 298 233 117 82 77 25 106 140 110 115 96 108 210 116 116 146 139 168 23 0 0 0 0 0 0 0 0 0 0 0 0
0 0 0 11 9 15 0 0 0 0 0 0 0 0 11 104 80 2 0 110 334 306 135 92 90 172 231 197 160 176 195 122 6 11 7 56 0 0 0 0 0 0 0 0 0 0 0 1 0
0 0 0 8 0 7 0 0 0 0 0 0 0 0 0 63 61 160 142 78 41 354 433 494 403 269 254 186 123 59 42 13 0 48 54 16 0 0 0 0 0 0 0 0 0 0 0 0 0

GFSSGP_con_sbcape_060.txt.gz
CAPE
0 0 0 0 0 0 0 0 0 0 0 185 214 263 330 388 759 434 361 64 69 177 725 710 595 712 1348 1331 1237 1254 1181 1214 1253 1157 820 708 579 430 287 165 47 16 35 2 3 4 5 18 25
0 0 0 0 0 0 0 0 0 0 0 315 305 470 702 249 395 1193 421 160 22 7 8 559 109 634 921 1365 1279 1318 1241 1259 1298 1129 865 772 604 458 380 223 57 6 46 1 1 1 0 0 1
0 0 0 0 0 0 0 0 0 0 319 275 1110 859 500 426 524 969 1459 455 37 33 6 0 36 364 1002 1412 1344 1283 1095 1106 1264 1039 935 874 728 616 470 260 75 15 32 0 0 0 0 0 0
0 0 0 0 0 0 0 0 0 134 364 476 591 658 527 239 1255 1049 1053 390 267 692 981 495 158 677 987 1236 1199 1006 1050 1010 1178 1014 925 1014 872 750 530 270 112 32 21 0 0 0 0 0 0
0 0 0 0 0 0 0 0 54 181 280 288 426 130 153 732 720 690 1245 1196 1033 847 900 820 567 513 578 717 829 734 999 1006 1259 1189 912 903 852 733 488 251 70 7 0 0 0 0 0 0 0
0 0 0 0 0 0 0 50 64 106 238 31 530 484 346 531 411 479 827 906 931 717 528 554 497 221 186 536 307 347 887 1009 1198 1243 1045 837 751 635 452 225 81 23 0 0 0 0 0 0 0
0 0 0 0 0 0 0 60 71 182 140 26 36 575 288 431 252 235 632 499 611 366 457 490 508 525 341 170 64 161 710 875 1048 947 867 843 521 463 381 220 98 50 0 0 0 0 0 0 0
0 0 0 0 0 0 0 70 174 23 85 42 514 213 53 217 124 206 668 770 564 338 298 330 283 241 17 7 3 57 446 722 922 881 739 589 396 378 255 142 108 67 7 0 0 0 0 0 0
0 0 0 0 0 0 0 59 66 0 10 386 743 564 207 97 72 192 328 321 299 323 260 231 118 49 2 14 64 196 412 428 480 301 251 252 167 97 32 101 102 93 21 9 0 0 0 0 0
0 0 0 0 0 0 22 125 92 0 42 116 356 354 289 98 81 135 115 121 40 77 29 3 0 0 0 40 69 238 311 224 181 62 64 52 50 47 63 86 127 124 51 13 0 0 0 0 0
0 0 0 0 0 0 32 6 7 61 87 122 0 242 227 1 0 4 1 1 1 2 2 1 1 0 1 15 34 10 0 4 19 2 6 57 80 66 26 21 21 27 14 0 0 0 0 0 0
0 0 0 0 0 0 14 2 0 0 32 117 9 240 11 0 0 0 1 1 0 1 4 3 1 0 0 0 0 0 0 0 0 0 5 29 37 17 14 3 3 0 0 0 0 0 0 0 0
0 0 0 0 0 3 21 76 0 0 1 349 174 143 0 0 0 0 1 2 2 2 3 1 0 0 0 0 0 0 0 0 0 0 6 23 16 0 4 1 0 0 0 0 0 0 0 0 0
0 0 0 0 0 2 2 0 0 0 0 101 249 7 0 0 0 0 2 3 2 3 2 4 1 0 0 0 0 0 0 12 19 16 0 0 1 6 0 0 0 0 0 0 0 0 0 0 0
0 0 0 0 0 0 0 0 0 0 0 32 140 0 0 0 0 0 1 2 2 4 3 1 0 0 0 0 0 0 0 0 16 56 40 12 1 3 0 0 0 0 0 0 0 0 0 0 0
0 0 0 0 0 0 0 0 0 0 44 90 122 0 0 0 0 0 0 1 2 1 2 3 3 0 0 0 0 0 0 0 6 48 86 78 72 20 19 22 3 0 0 0 0 0 0 0 0
0 0 0 0 0 0 0 0 1 0 76 151 37 0 0 0 0 0 0 1 3 1 4 4 0 0 0 0 0 0 0 0 9 6 26 79 96 126 71 27 26 2 0 0 0 0 0 0 0
0 0 0 0 0 2 0 0 0 0 0 34 19 0 0 0 0 0 0 0 0 1 2 1 0 0 0 0 0 0 0 9 7 14 13 43 96 145 25 22 13 9 0 0 0 0 0 0 0
0 0 0 0 0 20 13 3 0 0 0 64 0 3 0 0 0 0 0 0 0 1 0 1 0 0 0 0 0 0 0 4 18 9 6 9 51 95 92 53 56 6 0 0 0 0 0 0 0
0 0 0 0 0 2 1 30 4 0 24 42 30 86 0 0 0 0 0 0 1 0 1 1 0 0 0 0 0 0 0 0 0 4 0 0 52 86 84 82 62 9 0 0 0 0 0 0 0
0 0 0 0 0 0 1 0 19 4 0 4 34 56 4 0 0 0 0 0 0 0 0 0 0 0 0 0 0 0 0 0 0 0 0 0 0 13 40 58 29 0 0 0 0 0 0 0 0
0 0 0 0 0 0 0 0 0 2 0 0 19 41 2 0 0 0 0 0 0 0 0 0 0 0 0 0 0 0 0 0 0 0 0 0 0 0 8 45 8 0 0 0 0 0 0 0 0
0 0 0 0 0 0 0 0 0 9 0 0 0 16 17 0 0 0 0 0 0 0 0 0 0 0 0 0 0 0 0 0 0 0 0 0 0 0 33 23 0 0 0 0 0 0 0 0 0
0 0 0 0 0 0 0 0 0 8 15 0 0 3 13 1 0 0 0 0 0 0 0 0 0 0 0 0 0 0 0 0 0 0 0 0 0 0 24 30 4 0 0 0 0 0 0 0 0
0 0 0 0 0 0 0 0 0 0 0 0 14 0 8 26 0 0 0 0 0 0 0 0 0 0 0 0 0 0 0 0 0 0 0 0 0 0 20 17 9 0 0 0 0 0 0 0 0
0 0 0 0 0 0 0 0 0 0 0 0 0 0 0 26 41 8 0 0 0 0 0 0 0 0 0 0 0 0 0 0 0 0 0 0 0 13 43 11 12 0 0 0 0 0 0 0 0
0 0 0 0 0 0 0 0 0 0 0 0 0 0 0 0 61 67 19 0 0 0 0 0 0 0 0 0 0 0 0 0 24 75 0 0 0 4 10 0 2 0 0 0 0 0 0 0 0
0 0 0 0 0 0 0 0 0 0 0 0 0 0 0 0 10 75 58 34 3 0 0 0 0 0 0 0 0 0 0 10 32 46 1 0 1 5 0 0 0 0 0 0 0 0 0 0 0
0 0 0 0 0 0 0 0 0 0 0 0 0 0 0 0 0 43 60 79 56 44 8 0 9 10 0 0 4 14 36 61 31 9 1 0 0 0 0 0 0 0 0 0 0 0 0 0 0
0 0 0 0 0 0 0 0 0 0 0 0 0 0 0 0 0 0 22 95 84 71 73 59 14 23 41 4 10 3 12 21 29 34 6 18 0 0 0 0 0 0 0 0 0 0 0 0 0

GFSSGP_con_sbcape_063.txt.gz
CAPE
0 0 0 0 0 0 0 0 0 0 0 34 96 137 240 239 482 248 377 324 395 855 964 433 447 347 302 278 767 1517 1505 1511 1233 987 829 722 582 457 330 250 345 428 355 70 44 22 52 24 14
0 0 0 0 0 0 0 0 0 0 0 102 354 406 311 377 390 971 549 237 263 561 1036 373 464 149 128 145 576 1276 1589 1486 1205 1026 844 671 570 415 293 274 344 436 337 40 15 6 6 24 52
0 0 0 0 0 0 0 0 0 0 153 103 685 414 391 407 696 1052 1327 613 179 148 311 604 374 183 354 502 606 1034 1508 1243 1141 921 821 736 642 454 315 264 336 433 321 5 0 0 0 61 5
0 0 0 0 0 0 0 0 0 0 30 167 459 390 417 272 1262 1025 1099 661 155 100 161 493 447 322 728 372 612 1239 1350 1069 933 797 819 845 652 531 274 166 338 464 157 0 0 0 0 0 0
0 0 0 0 0 0 0 0 1 32 119 66 221 84 88 696 847 875 1171 640 305 212 455 235 43 371 428 728 860 746 834 954 877 810 777 807 715 476 224 164 242 190 14 0 0 0 6 0 0
0 0 0 0 0 0 0 0 0 20 36 33 297 296 319 387 388 478 753 1035 857 789 780 457 100 337 348 315 54 119 389 590 770 857 792 789 603 354 156 52 3 0 0 0 0 19 0 0 0
0 0 0 0 0 0 0 4 5 19 15 62 58 472 219 204 148 271 352 595 758 555 430 417 285 335 124 62 92 59 171 485 583 756 661 576 355 203 101 2 0 0 0 0 0 0 0 0 0
0 0 0 0 0 0 0 25 37 5 36 8 442 105 4 156 75 186 548 407 634 290 384 237 118 135 10 42 36 0 17 252 419 627 475 318 256 157 24 0 0 0 0 0 0 0 0 0 0
0 0 0 0 0 0 0 9 15 0 0 381 524 474 80 15 70 139 145 418 339 386 317 232 132 29 3 1 0 0 58 172 299 364 328 179 68 0 0 0 0 0 0 0 0 0 12 2 0
0 0 0 0 0 0 0 13 27 8 4 108 218 111 65 0 19 14 17 124 137 183 143 132 31 8 4 3 0 0 2 28 102 162 177 143 14 0 0 0 0 0 0 0 0 0 0 0 0
0 0 0 0 0 0 0 0 0 27 3 10 0 25 85 0 0 0 0 2 2 11 2 1 1 6 4 7 7 0 0 0 54 121 116 44 7 0 0 0 0 0 0 0 0 0 0 0 0
0 0 0 0 0 0 0 0 0 0 0 72 0 38 0 0 0 0 1 1 1 1 5 2 1 1 6 13 11 29 55 64 80 68 65 45 13 0 0 0 0 0 0 0 0 0 0 0 0
0 0 0 0 0 0 0 1 0 0 17 56 58 14 0 0 0 0 1 2 2 1 2 1 1 0 1 1 1 0 0 0 20 25 28 11 2 0 0 0 0 0 0 0 0 0 0 0 0
0 0 0 0 0 0 8 2 0 0 1 71 41 0 0 0 0 0 0 1 1 1 2 2 4 1 0 0 0 0 0 0 10 4 13 0 0 0 0 0 0 0 0 0 0 0 0 0 0
0 0 0 0 0 1 0 0 0 0 0 87 55 0 0 0 0 0 1 1 1 2 2 2 1 1 0 0 0 0 0 0 0 7 8 0 0 0 0 0 0 0 0 0 0 0 0 0 0
0 0 0 0 0 0 0 0 0 0 0 16 1 1 0 0 0 0 0 0 2 1 3 3 5 1 0 0 0 0 0 0 14 25 25 3 0 0 0 0 0 0 0 0 0 0 0 0 0
0 0 0 0 0 0 0 0 0 0 0 3 4 0 0 0 0 0 0 1 1 1 2 5 1 0 0 0 0 0 0 0 9 55 42 31 22 14 1 0 0 0 0 0 0 0 0 0 0
0 0 0 0 0 0 0 0 0 0 0 21 0 0 0 0 0 0 0 1 1 3 2 1 1 1 0 0 0 0 0 0 3 20 64 78 75 71 34 29 11 0 0 0 0 0 0 0 0
0 0 0 0 0 0 0 0 0 0 0 0 0 1 0 0 0 0 0 1 1 0 2 0 1 0 0 0 1 0 1 1 3 7 26 66 76 107 75 56 9 0 4 0 0 0 0 0 0
0 0 0 0 0 0 0 0 0 0 0 0 0 0 0 0 0 0 0 0 0 2 2 0 0 0 0 0 0 0 0 0 1 10 19 11 40 54 59 27 14 9 0 0 0 0 0 0 0
0 0 0 0 0 0 0 0 0 0 0 0 0 1 0 0 0 0 0 0 0 1 1 1 0 0 0 0 0 0 0 0 0 0 3 9 9 23 40 24 18 0 0 0 0 0 0 0 0
0 0 0 0 0 0 0 0 0 0 0 0 0 0 0 0 0 0 0 0 0 0 0 0 0 0 0 0 0 0 0 0 0 0 0 0 5 3 0 16 14 0 0 0 0 0 0 0 0
0 0 0 0 0 0 0 0 0 0 0 4 0 0 0 0 0 0 0 0 0 0 0 0 0 0 0 0 0 0 0 0 0 0 0 0 0 0 0 0 0 0 0 0 0 0 0 0 0
0 0 0 0 0 0 0 0 0 0 0 0 0 0 0 0 0 0 0 0 0 0 0 0 0 0 0 0 0 0 0 0 0 0 0 0 0 0 0 0 0 0 0 0 0 0 0 0 0
0 0 0 0 0 0 0 0 0 0 0 0 0 0 0 0 0 0 0 0 0 0 0 0 0 0 0 0 0 0 0 0 0 0 0 0 0 0 0 0 12 12 0 0 0 0 0 0 0
0 0 0 0 0 0 0 0 0 0 0 0 0 0 0 0 0 0 0 0 0 0 0 0 0 0 0 0 0 0 0 0 0 0 0 0 0 0 0 0 0 0 0 0 0 0 0 0 0
0 0 0 0 0 0 0 0 0 0 0 0 0 0 0 0 0 0 0 0 0 0 0 0 0 0 0 0 0 0 0 0 0 0 0 0 0 0 0 0 0 0 0 0 0 0 0 0 0
0 0 0 0 0 0 0 0 0 0 0 0 0 0 0 0 0 0 0 0 0 0 0 0 0 0 0 0 0 0 0 0 0 0 0 0 0 0 0 0 0 0 0 0 0 0 0 0 0
0 0 0 0 0 0 0 0 0 0 0 0 0 0 0 0 0 2 5 0 0 0 0 0 0 0 0 0 0 0 0 0 0 0 1 1 0 0 0 0 0 0 0 0 0 0 0 0 0
0 0 0 0 0 0 0 0 0 0 0 0 0 0 0 0 0 0 0 18 2 0 0 0 0 0 0 0 0 0 0 0 19 23 37 30 1 0 0 0 0 0 0 0 0 0 0 0 0

GFSSGP_con_sbcape_066.txt.gz
CAPE
0 0 0 0 0 0 0 0 0 0 0 0 20 18 66 126 267 136 315 477 687 1324 1160 832 830 969 1079 1186 1314 1266 1442 1492 1404 1267 1106 1007 888 646 597 558 479 494 422 78 23 15 15 13 12
0 0 0 0 0 0 0 0 0 0 0 0 165 222 91 240 240 781 568 398 745 1337 598 642 809 760 929 1000 1062 1308 1371 1340 1304 1183 1019 881 676 638 707 600 452 465 506 298 80 115 23 10 7
0 0 0 0 0 0 0 0 0 0 6 8 286 131 177 139 477 677 1115 528 633 1141 643 468 801 778 673 756 936 1015 1074 1175 1154 1030 837 784 628 736 725 541 461 545 557 293 344 234 71 7 13
0 0 0 0 0 0 0 0 0 0 0 35 206 113 257 139 895 866 831 580 524 514 730 675 556 702 686 753 870 1026 887 704 939 784 731 660 601 732 630 394 376 329 206 118 105 210 5 0 0
0 0 0 0 0 0 0 0 0 0 4 4 28 30 9 43 529 563 757 701 349 395 319 750 616 652 734 949 1010 619 416 751 834 720 637 542 536 627 503 346 182 5 0 65 76 7 0 0 0
0 0 0 0 0 0 0 0 0 0 1 0 31 3 50 365 317 326 651 796 259 220 247 433 341 756 564 693 430 289 486 489 732 654 635 509 314 348 419 231 12 0 19 199 80 0 0 0 0
0 0 0 0 0 0 0 0 0 0 0 0 0 250 132 15 95 263 543 876 826 528 416 391 196 331 344 207 243 202 118 284 541 562 462 347 238 216 185 23 0 0 87 151 5 0 0 0 0
0 0 0 0 0 0 0 0 0 0 0 8 142 31 0 7 47 268 595 306 531 361 332 312 90 94 0 0 7 77 29 302 597 580 369 227 182 136 0 0 0 0 1 30 0 0 0 0 0
0 0 0 0 0 0 0 0 0 0 3 46 350 333 11 0 113 190 375 259 372 223 359 109 52 9 3 0 6 10 131 124 371 423 279 133 41 0 0 0 0 0 0 0 0 0 0 0 0
0 0 0 0 0 0 0 0 0 0 0 37 130 52 6 0 35 7 110 167 210 273 291 77 105 23 2 5 3 2 14 85 139 230 190 79 0 0 0 0 0 0 0 0 15 5 1 0 0
0 0 0 0 0 0 0 0 0 0 0 5 13 17 4 0 0 0 0 0 0 1 3 37 5 2 1 0 0 0 37 24 59 177 166 48 0 0 0 0 0 0 0 0 0 0 0 0 0
0 0 0 0 0 0 0 0 0 0 0 9 16 10 0 0 0 0 0 0 0 1 0 2 2 2 3 0 0 0 0 9 22 63 111 37 0 0 0 0 0 0 0 0 0 0 0 0 0
0 0 0 0 0 0 0 0 0 0 0 13 36 24 0 0 1 0 0 0 0 1 1 1 6 6 15 5 1 0 0 0 0 1 67 8 0 0 0 0 0 0 0 0 0 0 0 0 0
0 0 0 0 0 0 0 0 0 0 0 4 30 25 0 0 0 0 0 1 0 2 1 4 1 4 8 9 14 18 39 6 31 25 44 18 0 0 0 0 0 0 0 0 0 0 0 0 0
0 0 0 0 0 0 0 0 0 0 0 13 1 3 0 0 0 0 0 1 1 1 1 1 1 1 1 4 5 5 22 2 39 29 0 1 0 0 0 0 0 0 0 0 0 0 0 0 0
0 0 0 0 0 0 0 0 0 0 0 0 0 0 0 0 0 0 0 0 0 1 2 2 3 0 1 0 0 0 3 16 5 0 0 1 1 0 0 0 0 0 0 0 0 0 0 0 0
0 0 0 0 0 0 0 0 0 0 0 0 0 0 0 0 0 0 0 0 0 0 2 3 2 1 1 0 0 0 0 0 0 3 5 5 7 1 0 0 0 0 0 0 0 0 0 0 0
0 0 0 0 0 0 0 0 0 0 0 0 0 0 0 0 0 0 0 0 1 0 2 1 1 1 1 0 0 0 0 0 0 6 6 4 13 4 1 0 0 0 0 0 0 0 0 0 0
0 0 0 0 0 0 0 0 0 0 0 0 0 0 0 0 0 0 0 3 1 2 1 1 1 1 0 0 0 0 0 0 0 1 11 20 31 36 21 3 0 2 0 0 0 0 0 0 0
0 0 0 0 0 0 0 0 0 0 0 0 0 0 0 0 0 0 0 3 3 0 1 1 1 0 0 0 0 0 0 0 0 0 11 40 66 97 78 37 29 38 22 2 0 0 0 0 0
0 0 0 0 0 0 0 0 0 0 0 0 0 0 0 0 0 0 1 0 2 0 1 0 0 0 0 0 0 0 0 0 0 2 1 5 37 56 67 70 19 11 3 17 0 0 0 0 0
0 0 0 0 0 0 0 0 0 0 0 0 0 0 0 0 0 0 0 0 0 0 0 0 0 0 0 0 0 0 0 1 0 0 0 5 13 17 35 62 43 26 2 8 0 0 0 0 0
0 0 0 0 0 0 0 0 0 0 0 0 0 0 0 0 0 0 0 0 0 0 0 0 0 0 0 0 0 0 0 0 0 0 0 0 0 1 0 12 12 9 6 17 2 0 0 0 0
0 0 0 0 0 0 0 0 0 0 0 0 0 0 0 0 0 0 0 0 0 0 0 0 0 0 0 0 0 0 0 0 0 0 0 0 0 0 0 0 0 2 0 0 0 0 0 0 0
0 0 0 0 0 0 0 0 0 0 0 0 0 0 0 0 0 0 0 0 0 0 0 0 0 0 0 0 0 0 0 0 0 0 0 0 0 0 0 0 0 0 0 0 0 0 0 0 0
0 0 0 0 0 0 0 0 0 0 0 0 0 0 0 0 0 0 0 0 0 0 0 0 0 0 0 0 0 0 0 0 0 0 0 0 0 0 0 0 0 0 0 0 0 0 0 0 0
0 0 0 0 0 0 0 0 0 0 0 0 0 0 0 0 0 0 0 0 0 0 0 0 0 0 0 0 0 0 0 0 0 0 0 0 0 0 0 0 0 0 0 0 0 0 0 0 0
0 0 0 0 0 0 0 0 0 0 0 0 0 0 0 0 0 0 0 0 0 0 0 0 0 0 0 0 0 0 0 0 0 0 0 0 0 0 0 0 0 0 0 0 0 0 0 0 0
0 0 0 0 0 0 0 0 0 0 0 0 0 0 0 0 0 0 0 0 0 0 0 0 0 0 0 0 0 0 0 0 0 0 0 0 0 0 0 0 0 0 0 0 0 0 0 0 0
0 0 0 0 0 0 0 0 0 0 0 0 0 0 0 0 0 0 0 0 0 0 0 0 0 0 0 0 0 0 0 0 0 0 0 0 0 0 0 0 1 0 0 0 0 0 0 0 0

GFSSGP_con_sbcape_072.txt.gz
CAPE
0 0 0 0 0 0 0 0 0 0 0 0 7 1 1 30 29 53 846 1148 1331 1398 1604 1498 1543 1841 1812 1930 1839 1779 1849 1830 1628 1571 1567 1547 1573 1527 1371 1155 933 824 810 546 286 209 109 41 1
0 0 0 0 0 0 0 0 0 0 0 0 9 73 114 84 303 661 1117 1264 1473 1545 1436 1465 1440 1487 1882 1989 1939 1945 2056 1895 1719 1707 1731 1679 1602 1356 1201 941 730 644 840 308 154 68 48 12 2
0 0 0 0 0 0 0 0 0 0 0 0 15 193 153 186 355 1039 1190 1382 1561 1626 1334 1228 959 956 978 1620 2021 2045 1955 1759 1706 1695 1795 1643 1404 1221 920 620 514 574 658 146 25 22 29 3 2
0 0 0 0 0 0 0 0 0 0 0 0 41 39 378 439 597 1097 1181 1277 1643 1373 1484 928 617 607 1114 823 1777 2001 1786 1651 1595 1572 1584 1576 1409 1144 728 427 332 364 287 89 28 44 16 0 0
0 0 0 0 0 0 0 0 0 0 0 17 49 12 73 322 774 860 1003 1186 1554 1114 1197 652 862 855 1197 1214 1488 1766 1648 1527 1457 1403 1379 1386 1283 1006 681 447 375 337 320 170 24 28 7 0 0
0 0 0 0 0 0 0 0 0 0 0 20 32 58 99 490 606 716 913 1094 1437 1158 1272 1491 864 915 1139 1081 1605 1419 1384 1345 1289 1246 1272 1288 1002 706 573 465 402 415 263 138 18 9 3 1 0
0 0 0 0 0 0 0 0 0 0 0 2 55 47 303 514 547 525 849 1327 1340 398 802 1431 1087 968 659 818 738 760 1121 1113 1017 1021 875 807 592 536 552 467 344 408 194 64 7 7 4 0 0
0 0 0 0 0 0 0 0 0 0 0 61 92 25 73 494 398 591 786 1201 1051 572 524 882 1102 894 812 1023 541 620 635 777 748 746 524 354 364 217 181 289 484 410 184 2 3 1 0 0 0
0 0 0 0 0 0 0 0 0 0 2 68 234 382 506 389 501 674 771 814 481 543 893 613 1023 1111 1067 824 468 304 437 439 351 331 249 206 339 205 123 147 342 279 97 0 0 1 0 0 0
0 0 0 0 0 0 0 0 0 0 0 22 62 453 472 460 500 589 807 740 965 637 822 930 1043 1032 383 447 210 53 106 206 67 103 116 168 350 199 13 246 253 167 50 2 0 0 0 0 0
0 0 0 0 0 0 0 0 0 0 0 0 0 225 459 413 446 513 580 814 729 610 807 755 253 210 132 63 9 22 2 1 46 98 72 203 258 109 100 377 280 115 3 0 0 0 0 0 0
0 0 0 0 0 0 0 0 0 0 0 17 23 81 291 451 368 451 432 464 619 283 407 260 266 133 104 23 21 7 1 1 11 34 99 252 166 102 193 236 169 58 7 0 0 0 0 0 0
0 0 0 0 0 0 0 0 0 0 0 10 25 150 271 349 322 260 285 342 191 303 268 187 236 182 39 82 81 17 10 2 28 77 113 221 98 75 47 194 219 134 158 93 12 0 0 0 0
0 0 0 0 0 0 0 0 0 0 0 9 65 168 265 214 161 67 62 142 71 68 67 28 10 36 5 39 14 25 12 11 55 77 106 220 120 83 12 66 110 179 222 137 14 0 0 0 0
0 0 0 0 0 0 0 0 0 0 0 12 119 197 200 152 87 57 26 0 19 3 15 21 7 2 1 2 2 5 27 52 53 63 88 112 101 55 66 55 40 15 54 23 3 0 0 0 0
0 0 0 0 0 0 0 0 0 0 0 14 54 187 166 125 69 76 22 0 6 6 14 15 12 6 9 9 4 11 36 60 77 68 98 82 89 108 57 31 15 6 23 2 0 0 0 0 0
0 0 0 0 0 0 0 0 0 0 0 0 43 125 236 196 102 61 26 0 3 13 30 17 22 7 13 11 7 15 37 59 94 72 53 65 75 105 52 40 24 40 1 0 1 0 0 0 0
0 0 0 0 0 0 0 0 0 0 0 0 33 103 268 246 143 56 2 0 1 14 18 11 16 7 6 6 16 17 42 103 59 43 42 36 58 76 35 14 77 83 28 24 8 5 1 0 0
0 0 0 0 0 0 0 0 0 0 0 0 35 69 191 287 192 129 20 0 1 9 19 23 4 2 8 16 19 9 37 40 56 61 50 81 62 50 47 34 78 119 101 148 114 73 48 19 2
0 0 0 0 0 0 0 0 0 0 0 0 0 47 68 305 225 134 16 1 1 7 14 24 6 4 8 5 7 8 12 43 69 21 26 13 76 44 58 63 112 153 154 218 182 139 108 162 75
0 0 0 0 0 0 0 0 0 0 0 0 0 3 52 177 342 184 51 5 0 5 12 11 7 12 9 27 43 10 2 2 3 11 21 9 26 75 41 21 18 84 168 166 196 176 212 269 135
0 0 0 0 0 0 0 0 0 0 0 0 0 5 57 90 304 236 129 28 0 0 6 11 1 11 9 6 2 15 27 4 16 3 2 10 5 48 56 15 25 73 183 187 282 239 286 321 339
0 0 0 0 0 0 0 0 0 0 0 0 0 0 24 91 265 328 178 84 3 0 2 10 6 20 9 6 6 4 18 0 0 4 0 0 11 62 57 57 69 87 131 253 322 280 310 345 372
0 0 0 0 0 0 0 0 0 0 0 0 0 0 0 26 107 290 234 114 25 0 1 10 8 10 11 15 10 8 6 8 10 5 19 5 3 13 48 56 116 155 189 275 307 334 379 387 322
0 0 0 0 0 0 0 0 0 0 0 0 0 0 0 0 49 188 255 177 56 6 0 2 2 3 13 17 17 10 24 32 10 2 5 2 1 1 2 35 54 76 100 80 178 199 293 266 373
0 0 0 0 6 1 0 0 0 0 0 0 0 0 0 0 11 119 208 227 142 31 1 0 0 0 4 12 15 17 22 40 26 13 9 20 6 9 26 48 27 42 64 67 154 227 174 228 289
0 0 0 0 1 1 1 0 0 0 0 0 0 0 0 0 0 75 154 232 187 80 20 0 0 0 0 5 13 13 17 25 70 36 16 21 14 25 52 69 85 76 109 126 207 170 159 191 247
20 3 1 6 8 10 2 5 1 0 0 0 0 0 0 0 0 25 146 181 184 127 42 0 1 0 0 0 3 2 3 2 4 19 45 62 43 25 40 56 82 105 95 96 113 120 122 154 330
5 6 1 7 7 13 14 11 2 0 0 0 0 0 0 0 0 10 66 147 150 132 66 26 22 0 0 0 0 0 0 1 4 54 27 15 29 18 11 9 50 33 58 34 80 59 69 125 191
0 4 2 10 17 9 23 14 0 0 0 0 0 0 0 0 0 0 83 173 152 153 108 76 34 11 0 0 10 17 0 0 2 3 29 70 35 38 22 9 3 12 7 55 134 88 50 155 211

GFSSGP_con_sbcape_075.txt.gz
CAPE
0 0 0 0 0 0 0 0 0 0 0 0 0 0 0 0 1 22 1024 1194 1372 1593 1817 1480 1406 1490 1755 1596 1713 1713 1860 1809 1636 1516 1584 1642 1530 1493 1511 1373 1163 1176 1019 592 514 427 229 148 80
0 0 0 0 0 0 13 0 0 0 0 0 0 0 3 24 28 48 909 1407 1459 1516 1596 1531 1302 1527 1399 1396 1732 1745 2021 1922 1707 1716 1780 1786 1754 1615 1437 1222 1054 992 971 554 413 273 53 8 35
0 0 0 0 0 0 0 0 0 0 0 0 0 24 16 32 94 629 1392 1376 1778 1824 1631 1520 1214 543 236 45 107 1251 1770 1756 1702 1763 1882 1949 1824 1613 1366 1090 936 1014 927 464 296 84 26 1 3
0 0 0 0 0 0 0 0 0 0 0 0 1 1 64 605 360 993 1194 1280 1486 1914 1586 880 309 257 102 0 1 439 1319 1569 1634 1707 1892 1876 1697 1473 1222 906 900 995 789 256 137 37 8 0 0
0 0 0 0 0 0 0 0 0 0 0 0 9 0 25 482 657 809 986 1123 1381 1885 1741 1281 380 457 463 108 132 1 957 1486 1633 1729 1644 1641 1481 1153 864 581 688 571 452 291 37 13 1 0 0
0 0 0 0 0 0 0 0 0 0 0 0 0 15 28 654 556 909 1022 1165 1276 1732 1940 788 539 438 335 628 0 18 582 1140 1482 1474 1476 1467 1085 769 662 516 432 314 222 216 84 13 0 0 0
0 0 0 0 0 0 0 0 0 0 0 0 19 0 62 674 785 762 851 1181 1267 1358 1678 1624 1405 650 580 494 66 0 295 889 1301 1311 1227 1090 797 557 619 573 496 256 147 138 19 7 0 0 0
0 0 0 0 0 0 0 0 0 0 0 1 0 4 19 964 581 662 834 1181 1230 1172 1176 1449 1332 1082 899 820 301 276 307 369 797 998 920 651 507 588 510 463 340 197 127 60 6 1 0 0 0
0 0 0 0 0 0 0 0 0 0 0 0 0 41 547 678 586 670 798 991 1149 1129 886 663 1358 1285 1350 822 592 356 290 318 356 621 445 182 220 331 302 303 232 152 72 11 8 3 1 0 0
0 0 0 0 0 0 0 0 0 0 0 0 8 17 721 623 576 577 771 732 1043 907 1120 1226 1141 1031 966 366 267 234 396 619 243 274 106 40 89 332 307 336 172 96 0 4 3 1 0 0 0
0 0 0 0 0 0 0 0 0 0 0 0 4 0 468 695 576 507 495 630 732 758 782 912 1022 926 767 482 476 341 222 184 155 5 1 16 118 250 254 339 189 6 0 0 0 0 0 0 0
0 0 0 0 0 0 0 0 0 0 0 0 0 0 161 487 501 284 559 551 564 819 675 748 343 175 78 8 21 150 237 56 3 0 6 85 60 230 416 241 144 0 0 0 0 0 13 0 0
0 0 0 0 0 0 0 0 0 0 0 0 0 20 69 308 343 235 378 441 722 630 395 639 334 123 78 17 3 3 3 3 18 24 33 72 66 187 258 262 154 3 1 0 0 8 2 2 0
0 0 0 0 0 0 0 0 0 0 0 0 0 41 79 275 262 97 107 184 392 288 448 260 415 109 54 19 7 5 4 2 7 33 51 77 65 148 286 283 240 170 150 8 6 7 0 0 0
0 0 0 0 0 0 0 0 0 0 0 0 0 92 110 241 208 35 83 69 221 122 62 160 51 151 22 38 22 12 3 1 21 17 60 74 102 220 278 352 364 255 255 212 91 0 0 0 0
0 0 0 0 0 0 0 0 0 0 0 0 15 132 147 250 175 69 211 36 67 75 37 25 20 8 15 20 2 5 5 1 7 64 67 75 159 173 241 226 303 306 302 173 30 0 0 0 0
0 0 0 0 0 0 0 0 0 0 0 0 5 82 210 278 204 125 217 49 36 88 57 34 10 10 5 6 6 12 7 19 27 64 50 82 131 168 179 147 169 254 182 178 57 9 0 0 0
0 0 0 0 0 0 0 0 0 0 0 0 0 32 190 322 338 201 223 52 34 39 90 30 18 21 6 3 8 11 22 24 27 32 41 90 143 167 165 160 180 102 92 58 16 65 6 1 0
0 0 3 3 0 0 0 0 0 0 0 0 0 9 75 285 340 292 291 84 13 15 7 46 18 23 17 12 10 12 10 12 59 15 19 62 88 132 157 166 217 191 113 72 145 59 93 23 7
0 0 0 0 0 0 0 0 0 0 0 0 0 20 31 106 340 355 370 182 15 12 6 24 19 28 17 5 10 8 15 9 35 26 12 19 70 64 77 97 131 175 112 197 226 240 137 124 88
1 0 0 0 0 0 0 0 0 0 0 0 0 0 5 36 275 415 409 328 80 2 5 17 19 11 10 23 19 21 22 34 53 53 39 15 52 63 57 81 128 183 202 211 228 281 243 239 135
0 0 0 0 0 0 0 0 0 0 0 0 0 0 0 10 56 410 446 358 232 9 2 13 19 17 11 24 10 5 3 5 14 13 1 5 16 71 59 56 76 177 190 174 354 350 342 216 156
0 0 0 2 0 0 0 0 0 0 0 0 0 0 0 0 22 414 477 379 283 48 1 8 6 25 10 19 21 4 6 4 16 5 11 3 2 30 71 45 42 41 95 109 259 264 258 242 201
0 0 0 0 1 1 0 0 0 0 0 1 0 0 0 2 2 220 459 435 327 114 4 4 9 16 18 6 34 29 97 26 14 10 4 4 1 7 26 15 32 23 43 24 143 247 214 294 283
1 4 6 5 12 0 0 0 0 0 0 0 0 0 0 0 0 84 437 473 383 215 35 2 4 22 11 20 29 42 57 59 14 29 10 7 0 2 1 21 21 2 0 35 35 144 219 108 56
5 6 10 6 34 21 5 0 0 0 0 0 0 0 0 0 0 4 259 509 426 326 99 4 1 17 35 13 27 21 19 18 36 16 9 44 12 8 1 0 0 1 1 59 75 65 165 80 182
0 4 0 0 6 9 9 0 2 0 0 0 0 0 0 1 10 19 107 406 474 391 245 55 7 14 29 53 109 47 104 85 39 37 58 23 20 18 12 4 0 0 0 25 147 29 53 80 97
0 0 3 5 10 19 9 11 36 4 0 0 1 1 6 6 10 0 124 290 419 464 358 174 20 16 28 45 75 104 117 163 216 181 163 80 59 30 3 12 4 4 16 58 158 128 90 54 55
6 0 1 16 13 23 32 33 7 9 1 0 12 0 7 11 0 0 140 268 425 447 439 283 91 25 33 97 52 78 150 181 341 339 340 271 191 82 74 17 23 39 68 107 119 93 129 130 134
4 1 12 62 19 39 31 28 0 4 0 0 0 0 5 2 7 0 33 172 405 431 431 401 195 99 62 192 225 243 187 101 220 350 473 423 324 213 101 59 28 33 42 70 109 92 30 104 137

GFSSGP_con_sbcape_078.txt.gz
CAPE
0 0 0 0 0 0 0 0 0 0 0 0 0 0 0 0 0 14 1296 1340 1248 1991 1496 1312 1453 1632 1999 1879 1757 1735 1824 1833 1643 1686 1611 1495 1504 1466 1387 1303 1271 1344 1241 817 635 524 368 365 548
0 0 0 0 0 0 0 0 0 0 0 0 0 0 0 0 31 12 1298 1391 1429 1353 1955 1451 1232 1381 1726 1543 557 1040 1440 1743 1733 1776 1784 1618 1650 1632 1522 1363 1134 1056 1180 662 622 484 179 171 415
0 0 0 0 0 0 0 0 0 0 0 0 0 0 1 0 214 418 1386 1253 1556 1590 1779 1402 1054 473 693 31 27 17 177 1597 1710 1751 1904 1743 1825 1700 1537 1244 1119 1103 1208 839 493 117 34 43 49
0 0 0 0 0 0 0 0 0 0 0 0 0 0 41 63 26 687 834 1010 1297 1631 1723 700 482 537 434 76 118 37 14 7 1227 1377 1912 1916 1813 1698 1452 1130 921 1007 1214 601 260 24 0 0 0
0 0 0 0 0 0 0 0 0 0 0 0 0 0 0 472 577 746 827 984 1162 1826 2004 747 362 407 264 263 204 53 34 5 500 1442 1811 1647 1679 1488 1242 967 790 940 935 435 30 4 0 0 0
0 0 0 0 0 0 0 0 0 0 0 0 0 0 39 691 497 1153 1077 1062 1307 1718 1919 1804 376 316 576 336 305 50 11 1 155 1179 1543 1657 1377 1108 983 851 759 616 494 152 23 0 0 0 0
0 0 0 0 0 0 0 0 0 0 0 0 0 0 18 771 774 771 977 1421 1512 1541 1664 1709 1005 659 488 349 185 40 21 13 116 1169 1325 1167 915 764 791 728 634 517 154 39 20 0 0 0 0
0 0 0 0 0 0 0 0 0 0 0 0 0 0 5 997 659 837 1159 1332 939 1178 1346 1754 1901 1195 690 643 102 48 39 1 105 761 901 602 581 614 625 392 333 248 122 50 6 0 0 0 0
0 0 0 0 0 0 0 0 0 0 0 0 0 0 85 753 519 646 1139 1088 1038 974 1031 1178 1487 1438 1132 992 542 90 118 0 85 601 515 281 400 462 380 151 111 105 67 20 13 0 0 0 0
0 0 0 0 0 0 0 0 0 0 0 0 0 7 702 576 383 549 975 928 930 991 1106 987 928 1017 636 560 480 216 129 156 120 127 224 239 208 201 144 171 87 55 33 28 3 0 0 0 0
0 0 0 0 0 0 0 0 0 0 0 0 0 0 601 678 442 357 295 937 815 865 1007 1231 1153 916 532 307 340 118 222 144 136 88 39 24 6 33 101 119 50 5 1 0 0 0 0 0 0
0 0 0 0 0 0 0 0 0 0 0 0 0 0 0 0 224 263 201 607 708 902 846 664 564 311 138 47 180 284 265 187 33 3 5 0 0 19 93 71 20 0 0 0 0 0 0 0 0
0 0 0 0 0 0 0 0 0 0 0 0 0 0 0 0 27 156 111 361 837 864 663 636 373 124 8 3 3 87 52 99 25 7 8 0 1 11 24 69 0 0 0 0 0 0 0 0 0
0 0 0 0 0 0 0 0 0 0 0 0 0 0 0 0 46 91 127 192 787 518 545 658 392 140 9 12 2 1 1 12 2 2 33 1 7 31 50 75 0 2 0 0 0 0 0 0 0
0 0 0 0 0 0 0 0 0 0 0 0 0 0 0 0 85 50 22 47 589 315 457 444 346 111 61 19 8 4 1 1 5 5 2 1 9 23 71 65 24 27 4 0 0 0 0 0 0
0 0 0 0 0 0 0 0 0 0 0 0 0 0 0 0 68 21 0 37 322 180 127 251 73 83 26 29 2 2 1 2 1 6 4 7 12 31 112 113 97 110 28 4 2 0 0 0 0
0 0 0 0 0 0 0 0 0 0 0 0 0 0 0 11 97 22 7 56 15 132 36 104 12 3 12 17 3 0 1 2 1 0 0 0 25 38 89 143 193 210 118 113 2 5 0 0 0
0 0 0 0 0 0 0 0 0 0 0 0 0 4 9 31 92 61 16 61 0 108 89 37 11 4 1 2 4 2 1 2 4 5 0 0 0 27 59 59 81 56 90 80 2 12 2 0 0
0 0 0 0 0 0 1 0 0 0 0 10 0 0 13 69 101 160 132 81 15 101 94 8 5 3 6 4 5 4 5 4 11 12 3 3 2 23 57 50 60 52 24 12 5 25 3 5 0
0 0 0 0 0 0 0 0 0 0 0 0 1 3 2 35 77 232 215 102 5 24 34 7 12 6 5 5 4 3 4 5 2 5 0 0 14 30 42 56 63 60 42 25 75 26 48 29 13
1 1 0 0 0 0 1 0 0 0 0 0 0 0 0 29 45 220 332 258 0 12 0 4 14 17 5 6 11 3 4 8 12 13 3 1 8 39 49 82 77 76 56 104 76 74 81 54 16
14 2 0 1 2 7 5 0 0 0 0 0 0 0 0 0 31 213 386 348 72 5 0 0 4 8 11 10 4 6 2 3 6 0 3 0 3 17 17 52 83 97 97 100 111 158 167 161 67
1 0 2 0 5 6 0 0 0 0 0 0 0 0 0 0 1 107 391 385 279 42 13 0 0 2 10 12 6 11 6 3 0 9 15 0 0 16 30 11 48 62 83 104 116 150 198 118 100
0 5 2 0 11 12 0 0 0 0 0 0 3 1 0 0 0 23 422 405 295 80 4 0 0 9 4 10 10 7 16 7 3 5 1 0 0 0 11 12 9 36 65 87 145 160 166 112 71
3 1 0 3 14 6 0 0 0 0 0 2 0 0 0 0 0 4 344 361 311 141 1 10 0 5 9 14 13 2 2 4 3 2 1 0 0 0 0 0 0 12 22 30 53 75 82 60 25
0 0 7 7 26 0 0 0 0 0 0 0 0 0 0 2 19 2 185 408 383 262 6 0 0 0 2 3 5 2 3 2 5 3 3 0 0 0 0 0 0 0 1 4 4 4 42 36 41
0 14 0 0 0 4 9 2 0 0 0 0 0 0 0 0 0 0 23 462 441 366 61 0 0 0 0 2 4 7 17 21 0 3 1 2 0 0 0 0 0 0 0 0 0 3 4 12 25
2 5 4 0 3 20 3 54 7 0 0 0 0 5 0 3 43 36 26 519 497 473 261 6 0 0 19 2 0 3 2 11 5 6 3 6 0 0 0 0 0 0 0 0 0 0 1 9 11
5 2 0 5 1 2 19 1 73 6 0 27 21 0 6 34 35 8 57 356 600 596 440 186 3 0 3 39 11 0 1 5 3 4 8 6 10 1 0 0 0 0 0 0 0 0 0 1 0
12 2 3 5 28 28 7 16 3 0 0 0 0 0 0 0 1 30 37 216 470 602 553 400 192 23 2 11 32 25 29 10 8 28 5 7 8 7 0 6 1 0 0 0 0 0 0 9 7

GFSSGP_con_sbcape_081.txt.gz
CAPE
0 0 0 0 0 0 0 0 0 0 0 0 0 0 0 0 9 340 1002 1067 1615 1357 1395 1649 1801 1981 1830 1819 1719 1737 1806 1667 1815 1753 1585 1430 1437 1411 1308 1166 1169 1319 1395 1049 780 518 470 656 799
0 0 0 0 0 0 0 0 0 0 0 0 0 0 0 0 391 1271 1123 1296 1310 1423 1216 1231 1557 1925 1935 1832 1767 1779 1943 1818 1911 1836 1713 1616 1591 1517 1397 1459 1399 1469 1453 1036 547 577 485 807 655
0 0 0 0 0 0 0 0 0 0 0 0 0 0 0 159 352 1073 993 1372 1509 1429 1355 1231 1260 1702 881 559 581 1142 1302 805 1553 1785 1816 1754 1752 1761 1648 1343 1250 1269 1327 1027 719 406 601 584 390
0 0 0 0 0 0 0 0 0 0 0 0 0 0 128 35 361 1137 862 1198 1331 1376 1251 682 913 746 521 270 511 307 157 24 0 126 1743 1896 1880 1837 1488 1113 1113 1154 1268 990 406 418 455 242 187
0 0 0 0 0 0 0 0 0 0 0 0 0 0 68 464 558 630 811 871 978 1323 870 481 523 612 674 329 459 267 127 122 15 0 334 1375 1698 1491 1339 1041 906 1009 1020 690 316 315 134 52 13
0 0 0 0 0 0 0 0 0 0 0 0 0 0 194 416 686 828 749 895 865 1300 641 495 446 538 459 493 364 188 205 35 78 6 0 865 1400 1266 1103 867 738 803 533 294 166 48 21 6 0
0 0 0 0 0 0 0 0 0 0 0 0 0 0 213 518 705 682 881 998 1098 941 922 439 336 460 456 272 308 132 37 64 5 1 32 544 1022 905 865 767 693 529 333 147 32 3 0 0 0
0 0 0 0 0 0 0 0 0 0 0 0 0 0 434 457 356 693 744 643 752 927 624 1044 536 319 182 126 71 20 0 1 0 0 0 623 610 658 610 584 486 329 216 58 13 0 0 0 0
0 0 0 0 0 0 0 0 0 0 0 0 0 0 204 321 329 541 610 402 680 722 718 754 993 727 270 106 15 45 13 10 37 33 5 332 366 366 330 237 192 132 52 17 0 0 0 0 0
0 0 0 0 0 0 0 0 0 0 0 0 0 334 437 226 119 316 783 590 603 521 572 582 601 583 476 526 15 4 5 0 0 6 80 191 186 109 109 103 72 70 1 0 0 0 0 0 0
0 0 0 0 0 0 0 0 0 0 0 0 0 325 326 120 54 72 242 436 554 517 748 632 550 323 278 156 61 35 32 0 1 10 57 110 101 50 17 11 3 2 1 0 0 0 0 0 0
0 0 0 0 0 0 0 0 0 0 0 0 0 15 264 259 68 18 49 398 409 456 643 683 287 142 127 37 30 28 39 26 28 48 24 1 7 12 3 2 0 0 0 0 0 0 0 0 0
0 0 0 0 0 0 0 0 0 0 0 0 0 0 0 0 0 0 0 173 433 460 341 279 123 8 0 0 0 2 37 52 31 37 20 0 12 9 0 0 0 0 0 0 0 0 0 0 0
0 0 0 0 0 0 0 0 0 0 0 0 0 0 0 0 0 0 20 330 436 273 240 152 31 0 0 0 1 1 0 6 17 3 0 0 6 30 0 0 0 0 0 0 0 0 0 0 0
0 0 0 0 0 0 0 0 0 0 0 0 0 0 0 0 0 0 0 283 159 117 167 66 0 0 0 0 1 1 1 1 2 0 0 0 2 1 0 0 0 0 0 0 0 0 0 0 0
0 0 0 0 0 0 0 0 0 0 0 0 0 0 0 0 0 0 0 0 6 55 93 73 38 0 0 0 0 1 1 1 1 2 1 1 0 2 0 0 0 0 0 0 0 0 0 0 0
0 0 0 0 0 0 0 0 0 0 0 0 0 0 0 0 0 0 0 0 0 0 4 4 1 3 2 0 0 1 1 1 2 2 3 0 0 16 2 0 0 0 1 0 0 0 0 0 0
0 0 0 0 0 0 0 0 0 0 0 0 0 0 0 0 0 0 0 0 0 0 0 0 1 8 3 1 1 1 2 1 1 1 1 0 0 3 18 38 44 42 32 0 0 0 0 0 0
0 0 0 0 0 0 0 0 0 0 0 0 0 0 0 0 0 0 0 0 0 0 0 0 2 1 5 2 1 1 2 2 2 0 0 0 6 0 8 15 20 54 58 0 0 0 0 0 0
0 0 0 0 0 0 0 0 0 0 0 0 0 0 0 0 0 0 0 0 0 0 0 0 0 6 3 3 2 1 2 4 2 0 0 0 0 0 0 0 5 6 0 0 0 0 0 0 0
0 0 0 0 0 0 0 0 0 0 0 0 0 0 0 0 0 0 0 0 0 0 0 0 0 3 3 3 3 2 5 3 10 5 0 0 0 0 0 0 9 0 0 0 0 0 4 0 0
0 0 0 11 3 0 0 0 0 0 0 0 0 0 0 0 5 0 0 0 0 0 0 0 0 0 2 4 2 1 3 2 4 1 0 0 0 0 0 0 0 0 0 6 8 1 0 6 0
0 0 0 0 14 8 0 0 0 0 0 0 0 0 0 0 0 4 0 0 0 0 0 0 0 3 6 8 6 1 1 1 1 0 0 0 0 0 0 0 0 4 16 17 22 9 38 31 0
10 8 0 0 12 17 0 0 0 0 0 0 0 0 0 0 0 35 8 0 0 0 0 0 0 4 2 4 6 2 1 0 2 0 0 0 0 0 0 0 0 0 22 39 23 63 91 68 48
1 23 48 10 9 0 0 0 0 0 0 0 0 0 0 0 0 33 26 0 0 0 0 0 0 0 4 3 10 6 0 0 0 1 1 0 0 0 0 0 0 0 11 31 64 80 82 77 50
4 6 24 8 1 0 0 0 0 0 0 0 0 0 0 0 0 51 47 25 0 0 0 0 0 0 0 6 4 2 5 0 0 0 0 0 0 0 0 0 0 0 16 20 48 77 77 62 24
0 0 0 0 15 3 0 0 0 0 0 0 0 0 0 0 0 100 89 35 0 0 0 0 0 0 0 1 2 2 0 0 0 0 0 0 0 0 0 0 0 0 0 3 5 37 27 28 28
0 0 6 7 13 5 0 0 12 0 0 0 0 0 0 0 0 0 135 48 27 0 0 0 0 0 0 0 0 3 0 0 1 0 0 0 0 0 0 0 0 0 0 0 0 6 8 17 11
0 0 12 12 1 64 2 2 0 0 0 0 0 0 0 0 0 1 0 89 52 0 0 0 0 0 0 0 0 0 6 7 9 1 1 0 1 0 0 0 0 0 0 0 0 0 0 1 5
2 0 4 29 12 1 13 0 16 0 0 0 0 0 0 0 0 0 0 62 46 33 0 0 0 0 0 0 0 0 0 0 1 1 0 3 0 0 0 0 0 0 0 0 0 0 0 0 0

GFSSGP_con_sbcape_084.txt.gz
CAPE
0 0 0 0 0 0 0 0 0 0 0 0 0 0 0 0 1 2 527 1375 1298 1353 1604 1686 1657 1815 1877 1839 1814 1811 1925 1935 1851 1640 1581 1507 1527 1441 1392 1308 1433 1566 1617 1244 1016 944 815 680 884
0 0 0 0 0 0 0 0 0 0 0 0 0 0 0 309 1060 1059 1002 1603 1386 1304 1450 1759 1722 1776 1881 1824 1860 1917 1996 1989 1947 1763 1675 1615 1588 1510 1395 1278 1289 1446 1531 1183 851 848 685 972 687
0 0 0 0 0 0 0 0 0 0 0 0 0 0 0 94 1169 1080 793 1434 1473 1188 1154 1441 1814 1760 1932 1868 1887 1914 1905 1968 1966 1653 1302 1418 1633 1588 1652 1459 1356 1431 1193 485 908 815 940 722 393
0 0 0 0 0 0 0 0 0 0 0 0 0 5 20 40 1074 980 1070 1240 1423 1228 1014 1256 1532 1545 1567 1274 1804 1409 761 401 122 17 1 368 909 1817 1768 1466 1356 1334 1225 1148 1102 867 755 523 159
0 0 0 0 0 0 0 0 0 0 0 0 0 0 117 470 610 738 1034 1104 1144 1035 766 921 1071 898 1049 1083 1037 756 630 361 93 0 0 231 397 1063 1468 1264 1235 1167 1011 984 864 778 536 311 80
0 0 0 0 0 0 0 0 0 0 0 0 0 0 215 459 618 600 617 783 986 782 505 632 759 672 743 1025 870 765 651 380 68 31 15 266 270 680 998 1096 821 823 716 662 668 429 200 21 0
0 0 0 0 0 0 0 0 0 0 0 0 0 0 295 403 573 581 589 755 790 662 445 347 472 582 580 465 426 212 227 332 150 148 102 211 202 408 612 630 743 622 532 508 383 181 15 0 0
0 0 0 0 0 0 0 0 0 0 0 0 0 71 393 396 510 677 641 565 481 500 411 252 298 360 173 157 233 128 234 98 38 146 104 257 201 251 501 526 592 461 404 308 206 33 5 0 0
0 0 0 0 0 0 0 0 0 0 0 0 0 0 0 349 585 490 239 256 460 368 320 632 451 317 57 0 12 45 66 30 14 51 69 43 10 179 250 283 338 339 193 110 34 0 0 0 0
0 0 0 0 0 0 0 0 0 0 0 0 0 266 312 376 562 599 388 239 338 368 291 439 777 490 150 5 6 0 12 17 8 2 0 22 179 129 259 179 183 160 76 37 0 0 0 0 0
0 0 0 0 0 0 0 0 0 0 0 0 0 288 241 286 203 467 420 232 357 253 273 311 419 285 440 177 9 7 2 1 0 0 17 167 145 149 105 56 39 9 0 0 0 0 0 0 0
0 0 0 0 0 0 0 0 0 0 0 0 0 157 115 40 4 20 134 240 224 263 375 348 316 141 77 63 35 1 4 1 0 114 130 122 95 68 26 5 5 0 0 0 0 0 0 0 0
0 0 0 0 0 0 0 0 0 0 0 0 0 61 55 0 0 0 0 110 58 308 286 224 104 72 30 0 0 3 1 2 35 51 98 60 39 25 3 3 0 0 0 0 0 0 0 0 0
0 0 0 0 0 0 0 0 0 0 0 0 0 0 0 0 0 0 12 79 117 101 129 34 6 0 0 0 0 1 3 2 39 97 48 7 6 1 0 0 0 0 0 0 0 0 0 0 0
0 0 0 0 0 0 0 0 0 0 0 0 0 0 0 0 0 0 5 177 115 55 29 5 0 0 0 0 0 1 1 22 34 51 44 7 4 0 0 0 0 0 0 0 0 0 0 0 0
0 0 0 0 0 0 0 0 0 0 0 0 0 0 0 0 0 0 25 133 61 23 0 0 0 0 0 0 1 1 1 2 23 3 0 12 10 0 0 0 0 0 0 0 0 0 0 0 0
0 0 0 0 0 0 0 0 0 0 0 0 0 0 0 0 0 0 8 3 21 38 5 1 0 0 0 0 0 1 1 1 1 1 0 2 10 0 0 0 0 0 0 0 0 0 0 0 0
0 0 0 0 0 0 0 0 0 0 0 0 0 0 0 0 0 0 0 0 2 10 3 0 1 0 1 0 1 1 1 1 1 1 1 1 0 0 0 0 0 0 0 0 0 0 0 0 0
0 0 0 0 0 0 0 0 0 0 0 0 0 0 0 0 0 0 0 7 0 8 0 0 0 4 1 1 2 3 3 2 1 1 1 0 0 0 0 0 0 0 0 0 0 0 0 0 0
0 0 0 0 0 0 0 0 0 0 0 0 0 0 0 0 0 0 0 0 0 0 0 0 1 3 3 0 1 1 3 4 0 0 1 0 0 0 0 0 6 0 4 0 0 0 0 0 0
0 0 0 0 0 0 0 0 0 0 0 0 0 0 0 0 0 0 0 0 0 0 0 0 0 5 2 1 2 0 2 2 1 0 0 0 0 0 2 1 6 24 13 3 0 0 0 0 0
0 0 0 0 0 0 0 0 0 0 0 0 0 0 0 0 0 0 0 0 0 0 0 0 0 5 6 1 1 1 1 1 0 1 0 0 0 0 0 0 0 2 2 5 2 0 0 0 0
0 0 0 0 0 5 0 37 0 0 0 0 0 0 0 0 0 0 0 0 0 0 0 0 1 1 1 10 1 0 2 2 2 0 0 0 0 0 0 0 0 0 26 2 0 0 0 0 0
0 0 0 2 15 10 0 4 0 0 0 0 0 0 0 0 0 0 0 0 0 0 0 0 0 0 0 7 3 1 1 1 1 0 0 0 0 0 0 0 0 0 10 14 0 0 5 16 1
0 1 20 32 38 0 0 0 0 0 0 0 0 0 0 0 0 0 0 0 0 0 0 0 0 0 0 11 7 2 0 0 0 0 0 0 0 0 0 0 0 0 0 0 0 17 26 24 8
0 0 33 29 0 1 0 0 0 0 0 0 0 0 0 0 3 23 0 0 0 0 0 0 0 1 1 3 9 1 1 0 0 0 0 0 0 0 0 0 0 0 0 0 0 22 30 32 34
0 1 0 35 16 1 0 0 0 15 0 0 0 0 0 0 16 44 4 0 0 0 0 0 0 0 0 0 6 9 5 3 0 0 0 0 0 0 0 0 0 0 0 15 31 34 38 50 51
0 0 25 25 0 9 0 36 52 1 0 0 0 0 0 0 24 37 37 5 0 0 0 0 0 0 0 0 0 6 9 6 1 0 0 0 0 0 0 0 0 0 0 2 3 26 32 32 51
0 0 8 14 2 11 22 69 20 0 1 0 0 0 0 0 0 10 93 67 0 0 0 0 0 0 0 0 0 0 1 2 1 0 0 0 0 0 0 0 0 0 0 0 0 1 2 2 20
0 4 0 43 35 2 9 0 4 4 10 0 0 0 0 0 0 0 1 3 0 0 0 0 0 0 0 0 0 0 2 2 1 0 0 1 0 0 0 0 0 0 0 0 0 0 0 0 1

GFSSGP_con_sbcape_087.txt.gz
CAPE
0 0 0 0 0 0 0 0 0 0 0 0 0 0 0 0 0 0 150 868 1129 1257 1483 1456 1640 1817 1840 1712 1717 1906 1915 1886 1769 1811 1733 1708 1721 1721 1652 1738 1706 1662 1285 1084 1415 1501 989 932 1008
0 0 0 0 0 0 0 0 0 0 0 0 0 0 0 92 980 815 947 1332 1159 1291 1498 1453 1619 1815 1890 1876 1883 2014 2003 1857 1844 1788 1767 1302 1208 1490 1353 1425 1656 1461 1420 1459 1312 1260 982 971 839
0 0 0 0 0 0 0 0 0 0 0 0 0 0 0 42 989 879 699 1409 1147 1212 1441 1567 1619 1780 1905 1950 1931 1978 1963 1851 1825 1797 1591 1304 1261 1163 1217 1455 1452 1537 1542 817 1213 1180 922 740 478
0 0 0 0 0 0 0 0 0 0 0 0 0 0 0 141 923 887 1051 1557 1166 1054 1136 1586 1531 1702 1928 2040 1992 1951 1872 928 680 960 974 812 737 816 1013 1093 1109 1264 1200 1230 1438 907 816 401 190
0 0 0 0 0 0 0 0 0 0 0 0 0 0 38 466 618 872 1118 1401 1118 897 852 1240 1650 1733 1916 2067 1846 1684 666 253 31 208 317 106 254 269 397 648 923 1112 1097 1291 1151 746 486 242 83
0 0 0 0 0 0 0 0 0 0 0 0 0 5 57 386 714 765 815 1005 965 770 584 1025 1201 1416 1367 1673 1555 1001 509 183 63 63 157 23 77 388 283 473 620 940 750 909 674 580 283 65 30
0 0 0 0 0 0 0 0 0 0 0 0 0 12 44 371 322 404 640 702 756 500 384 571 680 899 973 1035 887 591 607 272 164 123 215 337 216 192 159 432 597 664 597 545 562 442 76 52 4
0 0 0 0 0 0 0 0 0 0 0 0 0 47 178 231 295 374 518 490 498 335 158 213 338 490 454 445 489 393 239 256 332 320 160 327 277 104 171 256 299 336 655 477 388 123 0 3 1
0 0 0 0 0 0 0 0 0 0 0 0 0 15 0 219 409 246 137 179 208 247 96 50 407 363 262 107 136 270 308 139 188 228 345 160 31 204 88 104 140 241 323 362 161 13 3 3 0
0 0 0 0 0 0 0 0 0 0 0 0 0 86 198 489 576 415 170 224 174 128 151 130 122 196 133 69 8 0 2 0 5 71 113 180 84 158 116 96 112 165 203 166 57 0 0 2 0
0 0 0 0 0 0 0 0 0 0 0 0 0 20 296 542 529 399 169 91 140 25 8 125 296 217 66 6 1 1 1 1 3 10 2 16 7 142 142 141 131 82 64 8 1 0 0 0 0
0 0 0 0 0 0 0 0 0 0 0 0 0 0 142 372 393 329 232 42 49 23 23 54 140 261 188 4 0 0 1 1 1 17 24 23 75 77 104 130 56 21 0 0 0 0 0 0 0
0 0 0 0 0 0 0 0 0 0 0 0 0 1 51 161 171 108 115 61 31 39 39 49 39 83 50 50 1 3 1 1 0 43 22 39 84 98 115 33 3 0 0 0 0 0 0 0 0
0 0 0 0 0 0 0 0 0 0 0 0 0 0 12 4 1 0 0 24 28 60 63 4 27 26 27 5 1 2 1 0 0 62 74 89 102 64 47 0 0 0 0 0 0 0 0 0 0
0 0 0 0 0 0 0 0 0 0 0 0 0 0 6 0 0 0 0 4 52 62 60 0 0 0 0 0 0 1 2 3 9 49 66 55 61 21 11 0 0 0 0 0 0 0 0 0 0
0 0 0 0 0 0 0 0 0 0 0 0 0 0 0 0 0 0 0 29 27 39 27 0 0 0 0 0 0 1 2 3 22 43 64 41 6 3 0 0 0 0 0 0 0 0 0 0 0
0 0 0 0 0 0 0 0 0 0 0 0 0 0 0 0 0 0 0 58 7 30 1 0 0 0 0 0 0 0 1 2 6 8 38 42 1 0 0 0 0 0 0 0 0 0 0 0 0
0 0 0 0 0 0 0 0 0 0 0 0 0 0 0 0 0 0 1 63 11 14 0 0 0 0 0 0 1 2 1 1 11 2 2 15 1 0 0 0 0 0 0 0 0 0 0 0 0
0 0 0 0 0 0 0 0 0 0 0 0 0 0 0 0 0 0 8 24 29 22 11 0 1 0 0 1 1 5 1 2 2 2 1 1 3 0 0 0 0 0 0 0 0 0 0 0 0
0 0 0 0 0 0 0 0 0 0 0 0 0 0 0 0 0 0 0 24 25 20 6 0 0 0 0 0 0 0 0 0 1 1 1 2 2 0 0 0 0 0 0 0 0 0 0 0 0
0 0 0 0 0 0 0 0 0 0 0 0 0 0 0 0 0 0 8 32 14 9 2 0 0 0 0 0 0 0 0 2 1 1 1 1 1 0 0 0 0 0 0 0 0 0 0 0 0
0 0 0 0 0 0 0 0 0 0 0 0 0 0 0 0 0 0 0 1 0 11 5 0 0 0 0 0 0 0 1 1 1 0 0 1 0 0 0 0 0 0 0 0 0 0 0 0 0
0 0 0 0 0 0 0 0 0 0 0 0 0 0 0 0 0 0 2 0 0 3 0 0 0 0 0 0 1 1 1 0 0 0 0 1 0 0 0 0 0 5 0 0 3 2 2 2 1
0 0 0 0 0 0 0 0 0 0 0 0 0 0 0 0 0 0 0 0 0 0 0 0 0 3 0 0 1 0 1 0 1 0 0 0 0 0 0 0 0 0 0 0 7 3 0 0 0
0 0 0 0 4 0 0 0 0 0 0 0 0 0 0 0 0 0 0 0 0 0 0 0 0 0 2 10 5 0 0 0 0 0 0 0 0 0 0 0 0 0 0 2 0 6 13 1 0
0 0 0 0 10 5 0 0 0 0 0 0 0 0 0 0 0 0 0 0 0 0 0 0 0 0 0 1 4 0 0 1 0 0 0 0 0 0 0 0 0 0 0 0 0 0 2 7 2
0 0 0 0 0 12 0 0 0 6 0 0 0 0 0 0 0 0 0 0 0 0 0 0 0 0 0 0 0 0 1 0 0 0 0 0 0 0 0 0 0 0 0 0 0 0 0 0 1
0 0 0 41 3 1 0 0 109 25 3 0 0 0 0 0 0 0 0 0 0 0 0 0 0 0 0 0 0 0 0 0 0 0 0 0 0 0 0 0 0 0 0 0 0 0 0 0 0
0 0 0 1 18 39 1 32 66 19 5 3 0 0 0 0 1 21 1 0 0 0 0 0 0 0 0 0 0 0 0 3 2 0 0 0 0 0 0 0 0 0 0 0 3 2 6 5 7
0 0 5 11 7 66 2 0 71 0 0 0 0 0 0 0 0 0 0 0 0 0 0 0 0 0 0 0 0 0 0 5 7 1 0 0 0 1 0 0 0 0 0 0 0 0 5 0 7

GFSSGP_con_sbcape_090.txt.gz
CAPE
0 0 0 0 0 0 0 0 0 0 0 0 0 0 0 0 0 0 24 909 886 1033 1116 1289 1500 1655 1662 1611 1660 1861 1969 2005 2224 2176 2069 2029 1975 1863 1875 1828 1735 1725 1788 1631 1519 1600 1265 963 1038
0 0 0 0 0 0 0 0 0 0 0 0 0 0 0 0 570 473 742 920 1004 1111 1038 1261 1497 1611 1671 1733 1797 1910 1828 1519 1727 2215 2144 1696 1701 1535 1460 1469 1628 1629 1673 1756 1488 1468 1257 1056 1046
0 0 0 0 0 0 0 0 0 0 0 0 0 0 0 0 758 658 579 1108 1051 1190 1168 1272 1509 1512 1677 1732 1819 1865 1994 1943 2016 2076 1628 1667 1595 1606 1613 1473 1498 1568 1737 1557 1393 1429 1220 1031 737
0 0 0 0 0 0 0 0 0 0 0 0 0 0 0 23 548 706 893 1114 1007 1121 1171 1111 1473 1443 1734 1774 1861 1925 1876 1804 1797 1616 1588 1663 1595 1352 1086 1296 1104 1375 1422 1271 1333 1446 1101 637 430
0 0 0 0 0 0 0 0 0 0 0 0 0 0 0 113 474 603 1343 1112 922 855 991 1083 1405 1554 1767 1884 1843 1778 1489 1377 1243 1227 1257 1212 963 1085 782 799 685 797 1148 1399 1342 1198 739 398 241
0 0 0 0 0 0 0 0 0 0 0 0 0 0 0 98 721 794 1118 1115 817 694 662 1140 1398 1510 1737 1752 1284 869 688 811 918 960 979 678 552 493 562 685 576 410 737 1174 1053 733 464 299 145
0 0 0 0 0 0 0 0 0 0 0 0 0 0 0 282 269 494 676 735 590 373 546 942 1129 1483 1381 1415 1054 481 424 400 678 523 404 431 347 355 512 577 599 765 894 880 771 442 303 161 52
0 0 0 0 0 0 0 0 0 0 0 0 0 0 0 106 133 400 338 428 322 171 198 542 609 958 1031 909 660 533 384 226 249 366 559 180 107 64 512 427 274 314 677 722 422 172 185 63 6
0 0 0 0 0 0 0 0 0 0 0 0 0 0 0 30 185 302 216 193 126 123 42 123 429 361 490 383 589 522 435 258 272 477 405 203 86 196 180 205 295 370 213 250 165 83 61 8 0
0 0 0 0 0 0 0 0 0 0 0 0 0 0 33 184 289 368 249 254 104 44 70 33 205 266 92 105 60 18 83 54 30 80 89 215 98 38 117 101 158 182 133 163 15 21 5 7 0
0 0 0 0 0 0 0 0 0 0 0 0 0 0 85 165 247 240 126 95 131 81 61 44 8 8 8 25 0 0 1 0 0 0 61 86 20 105 44 31 122 130 101 14 0 3 0 0 0
0 0 0 0 0 0 0 0 0 0 0 0 0 0 18 236 258 236 187 1 0 0 3 60 68 13 13 3 1 1 1 0 0 0 0 64 24 135 92 82 111 113 34 0 0 0 0 0 0
0 0 0 0 0 0 0 0 0 0 0 0 0 0 0 103 252 279 144 0 0 0 0 0 46 19 26 1 1 1 0 1 0 1 0 6 49 68 110 140 126 33 0 0 0 0 0 0 0
0 0 0 0 0 0 0 0 0 0 0 0 0 0 0 13 97 27 0 0 0 0 0 0 1 0 0 35 0 1 1 1 0 2 2 3 30 69 87 128 36 0 0 0 0 0 0 0 0
0 0 0 0 0 0 0 0 0 0 0 0 0 0 0 0 13 0 0 3 0 0 0 0 0 0 0 0 1 1 1 1 1 0 1 7 5 49 58 61 1 0 0 0 0 0 0 0 0
0 0 0 0 0 0 0 0 0 0 0 0 0 0 0 0 0 0 0 0 1 0 5 0 0 0 1 1 0 4 3 1 2 4 24 39 63 57 33 1 0 0 0 0 0 0 0 0 0
0 0 0 0 0 0 0 0 0 0 0 0 0 0 0 0 0 0 0 0 0 0 47 0 0 0 0 0 0 1 2 2 6 9 42 46 4 1 0 0 0 0 0 0 0 0 0 0 0
0 0 0 0 0 0 0 0 0 0 0 0 0 0 0 0 0 0 0 0 0 6 26 0 0 0 0 0 0 0 1 1 4 5 31 32 1 0 0 0 0 0 0 0 0 0 0 0 0
0 0 0 0 0 0 0 0 0 0 0 0 0 0 0 0 0 0 0 0 0 0 9 1 0 0 0 1 0 5 2 2 3 1 1 16 6 0 0 0 0 0 0 0 0 0 0 0 0
0 0 0 0 0 0 0 0 0 0 0 0 0 0 0 0 0 0 0 0 26 50 16 0 0 0 0 0 0 0 4 1 0 1 3 4 0 0 0 0 0 0 0 0 0 0 0 0 0
0 0 0 0 0 0 0 0 0 0 0 0 0 0 0 0 0 0 0 11 84 94 15 0 1 1 0 0 0 0 0 1 1 4 4 1 0 0 0 0 0 0 0 0 0 0 0 0 0
0 0 0 0 0 0 0 0 0 0 0 0 0 0 0 0 0 0 0 55 92 111 12 0 0 0 0 0 0 1 0 1 0 0 1 0 2 0 0 0 0 0 0 0 0 0 0 0 0
0 0 0 0 0 0 0 0 0 0 0 0 0 0 0 0 0 0 0 42 89 54 1 0 0 0 1 0 0 0 0 0 1 1 1 1 0 1 1 0 0 0 0 0 1 0 2 0 0
0 0 0 0 0 0 0 0 0 0 0 0 0 0 0 0 0 0 0 2 49 17 1 0 0 0 0 0 0 0 0 0 1 1 1 1 0 2 1 1 0 0 0 0 0 0 4 8 2
0 0 0 0 0 0 0 0 0 0 0 0 0 0 0 0 0 0 0 0 4 7 0 0 0 0 0 0 0 0 0 0 0 0 1 1 1 0 1 1 1 0 0 0 0 0 0 1 7
0 0 0 0 0 0 0 0 0 0 0 0 0 0 0 0 0 0 0 0 1 2 0 0 0 0 1 0 0 0 0 0 0 0 0 0 0 0 0 0 0 0 0 0 0 0 0 0 0
0 0 0 0 0 0 0 0 0 0 0 0 0 0 0 0 0 0 0 0 0 0 0 0 0 0 0 1 0 0 1 0 0 0 0 0 0 0 0 0 0 0 0 0 0 0 0 1 0
0 0 0 1 12 5 0 0 1 0 2 1 0 0 0 0 0 0 0 0 0 0 0 0 0 0 0 0 1 2 2 0 0 0 0 0 0 0 0 0 0 0 0 0 0 0 0 1 2
0 0 0 0 0 15 2 0 0 0 1 0 0 2 2 0 38 0 0 0 0 0 0 1 0 0 0 0 0 0 2 0 0 0 0 0 0 0 0 0 0 0 0 0 0 0 0 0 0
0 0 0 0 0 13 28 1 1 0 1 0 0 2 5 1 1 0 0 0 0 1 1 2 2 0 1 0 0 0 0 0 2 2 0 0 0 0 0 0 0 0 0 0 0 0 0 0 0

GFSSGP_con_sbcape_093.txt.gz
CAPE
0 0 0 0 0 0 0 0 0 0 0 0 0 0 0 0 0 0 65 1187 1087 1404 1444 1338 1157 1400 1366 1615 1717 1865 2024 2349 2287 2217 2173 2154 2120 2039 1963 2033 1911 1929 1926 1914 1576 1838 1673 1402 1361
0 0 0 0 0 0 0 0 0 0 0 0 0 0 0 0 82 268 582 1316 1135 1355 1337 1376 1262 1407 1570 1700 1865 1580 1860 2357 2407 2327 2307 2238 2137 2056 2120 2016 1868 1870 2023 2081 1616 1551 1288 1321 1143
0 0 0 0 0 0 0 0 0 0 0 0 0 0 0 0 664 553 746 1482 1375 1277 1186 1349 1061 1321 1426 1766 1894 1771 1555 1954 2293 1985 1960 1632 1641 1624 1509 1484 1723 1891 1962 2097 1923 1544 1484 1238 840
0 0 0 0 0 0 0 0 0 0 0 0 0 0 0 6 803 842 1028 1505 1507 1182 1231 1080 981 1220 1454 1716 1909 1983 1638 1718 1974 1934 1823 1913 1636 1424 1227 1177 1050 1394 1887 1939 1761 1635 1250 897 724
0 0 0 0 0 0 0 0 0 0 0 0 0 0 0 114 474 996 1495 1479 1558 1104 1106 923 1139 1191 1459 1651 1791 1877 1736 1706 1747 1856 1954 1892 1760 1504 1205 926 710 895 1149 1569 1567 1355 947 632 428
0 0 0 0 0 0 0 0 0 0 0 0 0 0 0 228 925 1317 1639 1637 1612 1639 1129 931 1291 1245 1359 1527 1555 1579 1375 1220 1208 1403 1427 1407 1212 1055 913 777 653 579 866 1152 1269 960 689 421 285
0 0 0 0 0 0 0 0 0 0 0 0 0 0 0 470 932 1427 1704 1597 1506 1411 1478 1058 1400 1466 1289 1281 1091 842 1002 947 1077 873 1062 913 703 628 600 630 797 786 672 890 915 655 426 313 155
0 0 0 0 0 0 0 0 0 0 0 0 0 0 0 62 817 1159 1330 1490 1357 1183 891 905 1339 1597 1804 1532 636 479 500 658 648 736 490 177 70 205 307 248 599 597 473 732 705 379 270 183 25
0 0 0 0 0 0 0 0 0 0 0 0 0 0 0 227 773 990 792 430 599 617 511 811 1012 1206 1543 1014 677 526 455 379 350 483 308 74 158 154 154 110 168 478 294 495 387 229 146 29 0
0 0 0 0 0 0 0 0 0 0 0 0 0 0 124 553 924 1123 867 775 853 833 419 539 718 1128 1249 919 965 515 355 338 380 608 575 555 412 342 205 331 208 288 138 213 228 143 27 19 19
0 0 0 0 0 0 0 0 0 0 0 0 0 0 15 489 807 1003 983 954 812 591 475 235 332 449 1129 555 802 360 327 260 223 225 416 605 709 479 326 596 764 442 169 117 154 119 134 42 3
0 0 0 0 0 0 0 0 0 0 0 0 0 0 0 0 398 876 893 904 720 503 282 301 192 87 440 539 470 189 124 92 76 244 478 569 406 338 337 239 482 462 166 22 64 202 61 1 0
0 0 0 0 0 0 0 0 0 0 0 0 0 0 0 0 0 399 811 782 544 613 727 224 207 157 77 4 7 24 149 63 87 10 68 366 91 235 361 205 385 133 2 1 44 44 33 1 0
0 0 0 0 0 0 0 0 0 0 0 0 0 0 0 0 0 75 564 704 451 434 441 555 79 352 18 2 5 1 24 3 3 7 3 207 149 366 462 270 241 222 1 0 8 50 10 0 0
0 0 0 0 0 0 0 0 0 0 0 0 0 0 0 0 0 27 257 658 530 379 271 273 181 221 37 2 4 5 4 19 7 7 13 38 176 271 368 137 113 126 10 0 1 1 0 0 0
0 0 0 0 0 0 0 0 0 0 0 0 0 0 0 0 0 0 54 258 379 351 224 244 86 1 2 3 7 2 2 12 14 13 18 14 11 69 63 71 34 4 0 0 0 0 0 0 0
0 0 0 0 0 0 0 0 0 0 0 0 0 0 0 0 0 0 0 6 36 251 316 379 90 1 3 2 4 3 3 9 29 33 30 51 44 31 66 73 3 1 0 0 0 0 3 0 0
0 0 0 0 0 0 0 0 0 0 0 0 0 0 0 0 0 0 0 0 0 139 345 444 36 3 3 3 1 5 18 31 34 32 29 31 9 28 37 1 1 0 0 1 0 3 2 3 0
0 0 0 0 0 0 0 0 0 0 0 0 0 0 0 0 0 0 0 0 0 74 335 365 2 3 0 0 2 6 6 9 30 30 73 15 2 2 0 1 1 4 4 0 0 0 0 3 1
0 0 0 0 0 0 0 0 0 0 0 0 0 0 0 0 0 0 0 0 0 32 276 137 1 3 1 0 1 2 2 6 10 13 4 3 1 1 0 1 0 1 0 0 0 0 1 2 3
0 0 0 0 0 0 0 0 0 0 0 0 0 0 0 0 0 0 0 0 0 57 223 24 2 1 1 0 1 6 11 12 23 28 33 4 1 1 0 0 0 0 0 0 0 0 0 0 5
0 0 0 0 0 0 0 0 0 0 0 0 0 0 0 0 0 0 0 0 30 104 248 24 2 3 2 0 2 4 3 9 8 11 12 2 1 1 1 0 0 0 0 0 0 0 0 11 11
0 0 0 0 0 0 0 0 0 0 0 0 0 0 0 0 0 0 0 0 34 176 339 33 4 4 2 0 1 3 4 1 15 6 6 4 7 1 1 0 0 0 0 0 0 0 0 13 43
0 0 0 0 0 0 0 0 0 0 0 0 0 0 0 0 0 0 0 0 49 236 329 40 4 3 4 2 2 6 1 0 23 14 2 3 2 2 1 1 0 0 0 0 0 0 0 4 42
0 0 0 0 0 0 0 0 0 0 0 0 0 0 0 0 0 0 0 0 92 288 95 40 3 2 2 4 6 3 0 3 13 8 7 6 2 2 3 0 0 0 0 0 0 0 0 0 8
0 0 0 0 0 0 0 0 0 0 0 0 0 0 0 0 0 0 0 0 162 335 98 28 7 1 1 4 5 6 4 9 17 8 5 9 2 2 2 1 0 0 0 0 0 5 0 0 0
0 0 0 0 0 0 0 0 0 0 0 0 0 0 0 0 0 0 0 0 122 351 208 35 0 1 2 4 5 6 11 9 13 4 3 0 1 2 3 2 2 0 0 0 0 1 0 0 3
0 0 0 0 0 0 0 0 0 8 0 0 2 0 1 4 0 4 0 0 87 285 67 8 2 3 2 3 3 6 8 6 8 2 1 0 0 5 2 1 1 4 0 0 0 0 0 0 0
0 0 0 0 0 0 0 0 45 22 18 35 30 1 1 5 5 8 12 6 79 166 3 6 3 3 9 3 5 13 10 5 7 2 0 0 1 7 18 10 1 1 5 8 12 12 0 0 0
0 0 0 0 0 0 2 1 13 19 14 30 11 7 0 0 12 4 3 60 66 14 3 6 6 3 3 3 3 4 11 2 12 12 7 6 5 4 4 6 5 4 8 11 11 7 0 0 1

GFSSGP_con_sbcape_096.txt.gz
CAPE
0 0 0 0 0 0 0 0 0 0 0 0 0 0 0 0 0 0 213 991 1091 1233 1712 1351 1103 1267 1511 1635 1761 1936 2201 2329 2203 2037 1875 1836 2256 2279 2204 2172 2031 2101 2179 2037 1770 1884 1638 1574 1459
0 0 0 0 0 0 0 0 0 0 0 0 0 0 0 0 0 98 695 1141 715 1052 1468 1638 1100 1264 1551 1792 1927 1958 2436 2436 2346 2276 1767 2281 2297 2234 2169 2097 1939 2059 2176 2257 1933 1874 1698 1587 1396
0 0 0 0 0 0 0 0 0 0 0 0 0 0 0 0 19 37 529 1404 1052 1178 1406 1602 1127 1175 1544 1765 1769 1692 2020 2330 2353 2331 2140 1971 1904 1869 1944 2025 1942 2024 2294 2267 1939 1834 1697 1374 1127
0 0 0 0 0 0 0 0 0 0 0 0 0 0 0 0 179 445 1027 1414 1083 1363 1395 1030 919 1109 1422 1683 1868 1704 1781 2035 2168 1947 1789 1887 1691 1491 1529 1301 1595 1887 1848 1842 1784 1692 1477 1039 806
0 0 0 0 0 0 0 0 0 0 0 0 0 0 0 134 563 947 1316 1647 1296 1588 1620 1609 796 1057 1306 1737 1959 1747 1599 1671 2016 1959 1855 1916 1887 1705 1353 1260 1283 837 746 979 1457 1506 1087 796 553
0 0 0 0 0 0 0 0 0 0 0 0 0 0 0 254 727 1365 1720 1730 1612 1877 1867 1732 1046 1073 1185 1389 1650 1601 1517 1595 1479 1600 1663 1625 1619 1475 1257 1038 857 650 472 321 768 850 839 567 373
0 0 0 0 0 0 0 0 0 0 0 0 0 0 0 163 893 1610 1880 1934 2043 2281 2065 1885 1655 1358 1013 1148 1264 1346 1229 1283 1381 1473 1574 1419 1104 989 943 799 773 701 184 252 532 550 389 293 237
0 0 0 0 0 0 0 0 0 0 0 0 0 0 0 76 1369 1835 1917 2204 2116 2326 2348 1723 1658 1582 1860 1900 951 830 963 977 922 958 736 585 752 759 742 539 632 619 669 663 599 366 265 171 114
0 0 0 0 0 0 0 0 0 0 0 0 0 0 0 293 1498 1788 1822 1898 1950 2024 2013 1556 1641 1906 2129 2188 1484 726 711 715 652 644 236 288 1128 908 518 414 477 688 676 451 295 247 172 79 39
0 0 0 0 0 0 0 0 0 0 0 0 0 0 0 163 1036 1496 1472 1442 1745 1778 1659 1465 1555 1958 2005 1891 1980 1705 1638 1314 1425 1284 907 1120 1119 970 467 234 44 152 171 201 140 180 78 117 246
0 0 0 0 0 0 0 0 0 0 0 0 0 0 0 0 10 442 1028 1260 1490 1706 1537 1158 1365 1664 1959 1705 1741 1464 1352 1223 962 1253 1162 1025 944 745 570 647 769 621 284 500 100 95 288 317 348
0 0 0 0 0 0 0 0 0 0 0 0 0 0 0 0 0 0 51 672 1293 1576 1543 1112 1091 1110 1817 1723 1332 1163 1052 791 642 587 958 1154 1122 1001 890 803 829 607 763 390 291 140 284 306 276
0 0 0 0 0 0 0 0 0 0 0 0 0 0 0 0 0 0 0 89 822 1447 1483 1268 917 940 1527 1477 1141 997 997 814 815 496 621 750 887 853 714 871 761 609 476 408 348 149 269 317 210
0 0 0 0 0 0 0 0 0 0 0 0 0 0 0 0 0 0 0 16 547 1117 1517 1575 706 752 1178 1218 905 688 618 933 801 557 526 693 792 763 767 738 792 613 290 233 135 254 290 360 189
0 0 0 0 0 0 0 0 0 0 0 0 0 0 0 0 0 0 0 12 334 861 1218 1707 1111 890 759 992 709 795 352 771 675 328 179 195 684 577 534 766 618 206 66 178 66 208 221 223 153
0 0 0 0 0 0 0 0 0 0 0 0 0 0 0 0 0 0 0 0 45 463 1070 1360 1158 617 744 841 341 255 221 286 334 251 162 175 343 348 401 328 647 155 33 86 24 132 187 181 168
0 0 0 0 0 0 0 0 0 0 0 0 0 0 0 0 0 0 0 0 12 284 896 1292 1348 760 649 617 434 226 390 50 158 191 190 287 246 210 183 189 184 9 4 6 33 185 216 172 152
0 0 0 0 0 0 0 0 0 0 0 0 0 0 0 0 0 0 0 0 0 9 600 1180 1372 908 537 479 242 188 327 48 208 291 237 273 187 80 62 84 11 1 1 1 4 130 183 241 155
0 0 0 0 0 0 0 0 0 0 0 0 0 0 0 0 0 0 0 0 0 0 213 948 1371 828 303 154 97 53 139 72 132 380 158 192 42 3 20 57 12 2 1 0 0 163 158 186 167
0 0 0 0 1 0 0 0 0 0 0 0 0 0 0 0 0 0 0 0 0 0 111 764 1245 431 278 502 515 156 20 45 81 102 64 112 30 2 8 30 1 3 1 1 8 174 136 114 135
1 0 0 0 0 0 0 0 0 0 0 0 0 0 0 0 0 0 0 0 0 3 210 577 1099 187 299 704 445 73 15 8 33 68 33 2 2 4 3 2 2 3 2 4 72 145 130 104 122
0 0 0 0 0 0 0 0 0 0 0 0 0 0 0 0 0 0 0 0 0 21 225 498 867 5 189 514 436 285 23 5 21 5 35 19 8 3 1 0 1 1 4 22 14 83 167 114 110
0 0 0 0 0 0 0 0 0 0 0 0 0 0 0 0 0 0 0 0 0 7 390 580 395 19 48 132 569 293 170 1 24 12 42 38 8 5 2 2 5 10 9 8 73 116 165 128 113
0 0 0 1 10 8 0 0 0 0 0 0 0 0 0 0 0 0 0 0 0 6 547 764 52 11 42 165 311 292 65 1 26 15 39 7 5 1 2 1 0 0 4 3 0 0 0 16 102
1 31 55 54 36 0 0 0 0 0 0 1 0 1 2 1 0 0 0 0 0 107 714 592 9 13 11 38 97 20 11 4 30 19 25 17 5 4 2 1 2 1 0 0 0 0 0 3 35
11 15 62 0 0 1 0 0 4 1 0 7 6 2 9 1 0 0 0 2 0 81 731 337 90 140 29 23 23 1 3 1 30 13 30 23 12 6 3 3 1 1 2 1 0 0 0 0 10
43 55 5 0 0 0 0 0 0 0 11 2 5 11 12 1 1 0 1 47 116 51 732 351 137 316 33 18 16 4 6 4 14 22 18 34 26 6 2 2 1 1 0 0 0 0 0 0 0
69 23 25 15 11 3 1 0 47 25 29 9 6 11 11 3 0 0 0 37 3 97 678 297 147 111 24 8 7 6 3 2 7 29 23 15 39 12 7 6 1 1 1 1 2 0 0 1 0
23 26 23 19 4 5 0 36 86 45 10 18 23 17 6 2 4 0 1 0 23 288 432 114 40 17 20 34 4 10 7 8 10 21 24 12 3 12 16 9 4 1 1 0 0 0 0 1 5
20 18 1 13 4 4 0 10 99 0 4 19 15 5 0 1 5 0 5 3 7 76 1 33 38 11 15 4 3 9 7 12 13 14 21 8 2 2 16 21 4 4 2 1 0 0 0 0 3

GFSSGP_con_sbcape_099.txt.gz
CAPE
0 0 0 0 0 0 0 0 0 0 0 0 0 0 0 0 0 8 58 590 162 899 1622 1292 1196 1500 1478 1622 1682 1867 2185 2199 2192 2024 2056 1920 2161 2117 2293 2302 2276 2251 2359 2051 1777 1746 1612 1518 1576
0 0 0 0 0 0 0 0 0 0 0 0 0 0 0 0 0 42 302 443 378 735 1511 1540 1074 1408 1524 1632 1757 2000 2248 2424 2243 2123 2032 2111 2287 1896 2290 2231 2170 2265 2335 2250 1830 1847 1713 1612 1452
0 0 0 0 0 0 0 0 0 0 0 0 0 0 0 0 0 4 327 623 443 769 1178 1731 1103 1250 1580 1682 1836 1851 2269 2349 2239 2243 2156 2313 2223 1808 1878 1599 1664 2098 2427 2139 1815 1705 1570 1489 1210
0 0 0 0 0 0 0 0 0 0 0 0 0 0 0 0 6 2 739 682 578 960 1035 871 878 1159 1475 1723 1744 1643 1973 2052 2045 2062 2141 1926 1896 1970 1723 1279 977 1516 1454 1821 1546 1520 1581 1221 1051
0 0 0 0 0 0 0 0 0 0 0 0 0 0 0 2 51 152 869 692 692 1002 1394 1600 885 1019 1402 1716 1834 1614 1645 1844 1993 1943 1663 1814 2006 1713 1623 1369 960 798 296 461 569 1139 1036 674 501
0 0 0 0 0 0 0 0 0 0 0 0 0 0 0 0 69 581 1103 1103 1073 1452 1759 1717 985 997 1186 1492 1686 1490 1368 1445 1295 1610 1574 1667 1744 1555 1475 1403 1103 891 614 516 524 345 586 348 293
0 0 0 0 0 0 0 0 0 0 0 0 0 0 0 0 100 793 1327 1540 1723 2008 1964 2080 1607 1259 862 1156 1270 1399 1266 1325 1268 1469 1424 1524 1388 1159 1260 1078 921 820 688 536 264 195 291 256 210
0 0 0 0 0 0 0 0 0 0 0 0 0 0 0 65 478 1234 1541 1824 2066 2534 2353 2151 2073 1691 1705 1592 1057 1074 1053 1034 1032 1119 1206 1203 1024 951 877 787 852 583 489 368 197 239 383 268 156
0 0 0 0 0 0 0 0 0 0 0 0 0 0 0 0 853 1460 1648 2048 2050 2315 2398 2162 2069 1854 1867 2016 1598 867 862 773 677 839 620 739 1510 1113 667 498 678 650 353 352 346 324 203 128 100
0 0 0 0 0 0 0 0 0 0 0 0 0 0 0 0 401 1381 1592 1744 1805 2088 2169 1992 2025 1995 1953 1861 2156 1891 1655 1486 1363 1342 1348 1696 1315 1362 884 462 423 626 483 409 315 143 115 101 203
0 0 0 0 0 0 0 0 0 0 0 0 0 0 0 0 5 541 938 1126 1441 1712 1859 1944 1862 2087 1863 1697 2112 2002 1989 1561 1651 1533 1511 1304 1106 1668 1460 968 306 294 133 453 170 165 101 121 183
0 0 0 0 0 0 0 0 0 0 0 0 0 0 0 0 0 0 99 362 712 1318 1726 1936 1852 1932 2012 1729 1616 1656 1726 1683 1623 1584 1503 1627 1431 1402 1203 867 1046 1137 1252 365 390 302 108 70 161
0 0 0 0 0 0 0 0 0 0 0 0 0 0 0 0 0 0 0 0 21 750 1655 2156 1774 1732 1990 1673 1415 1527 1372 1295 1218 1075 1352 1393 1165 1231 1205 1129 1242 1040 831 866 703 175 161 89 154
0 0 0 0 0 0 0 0 0 0 0 0 0 0 0 0 0 0 0 0 0 152 1299 2164 1792 1513 1906 1764 1661 1456 1419 1284 1445 881 785 1114 1193 1240 1116 963 854 992 749 732 211 137 86 90 118
0 0 0 0 0 0 0 0 0 0 0 0 0 0 0 0 0 0 0 0 0 0 563 2251 1973 1368 1792 1687 1477 1170 1052 965 993 1101 1033 661 865 997 786 1110 1154 820 884 431 331 114 100 87 194
0 0 0 0 0 0 0 0 0 0 0 0 0 0 0 0 0 0 0 0 0 0 204 1714 1953 1274 1334 1630 1419 1143 980 972 904 969 1241 871 843 651 315 572 728 898 622 600 219 216 93 79 200
0 0 0 0 0 0 0 0 0 0 0 0 0 0 0 0 0 0 0 0 0 0 26 1097 2141 1862 1183 1200 1381 1163 1152 927 776 736 741 870 813 664 714 651 744 762 322 295 158 217 106 78 144
0 3 5 1 1 6 1 0 0 0 0 0 0 0 0 0 0 0 0 0 0 0 0 632 1776 2017 1532 1154 1033 701 633 532 661 794 325 282 660 526 553 549 209 188 142 151 57 106 72 128 114
0 0 0 0 0 4 10 0 0 0 0 0 0 0 0 0 0 0 0 0 0 0 0 474 1626 2149 1437 984 703 727 757 462 565 449 529 419 461 432 267 55 6 1 7 12 19 111 52 70 182
3 0 1 5 0 15 10 4 0 0 0 0 0 0 0 0 0 0 0 0 0 0 0 33 917 1654 1531 799 771 814 652 557 769 498 331 235 405 332 112 20 10 2 2 1 12 26 94 154 132
20 0 0 1 0 0 22 4 0 0 0 0 0 0 0 0 0 0 0 0 0 0 0 0 256 1213 1459 1018 1040 984 823 424 482 422 382 389 278 200 34 11 6 2 1 1 2 21 49 103 142
14 15 3 0 6 4 4 1 0 0 0 0 0 0 0 0 0 0 0 0 0 0 0 0 107 842 1268 1207 1234 1182 715 502 274 363 71 79 18 4 3 5 6 8 0 2 5 34 48 101 106
3 0 0 10 16 12 4 10 0 5 0 0 0 0 6 16 15 11 1 0 0 0 0 96 257 841 949 1281 1382 1223 980 620 283 36 50 4 7 3 4 3 1 2 2 2 2 44 114 171 132
0 0 6 12 8 7 0 2 2 0 0 0 16 22 23 27 20 11 7 1 0 0 0 241 575 1269 817 924 1376 1192 1047 682 144 4 77 69 11 4 2 6 3 3 2 6 5 140 168 146 122
0 4 16 11 23 5 1 15 3 33 52 18 14 22 26 30 8 1 1 2 0 33 0 156 776 993 572 495 1143 1265 1097 617 122 80 34 14 7 6 6 2 2 7 7 1 19 50 76 153 168
9 3 45 23 36 17 2 0 3 78 34 37 17 33 30 36 13 0 0 2 1 66 3 251 961 492 130 294 1116 1160 1007 485 78 29 34 22 7 4 3 3 0 0 0 0 0 0 0 2 10
9 19 4 6 5 18 15 80 90 69 99 50 24 26 5 11 6 0 2 1 1 0 110 504 730 112 74 193 1020 1027 818 350 35 33 70 22 23 9 8 4 1 1 0 0 0 0 0 0 1
1 0 21 50 23 7 25 7 70 51 39 20 29 32 9 13 1 0 1 0 0 0 72 857 437 348 136 145 377 540 639 80 69 161 74 41 70 10 5 6 3 1 1 4 2 1 1 0 4
77 96 63 56 65 69 2 133 102 6 6 23 26 15 8 7 2 2 1 0 0 0 278 863 320 191 80 73 57 158 421 102 52 100 93 10 26 19 6 3 4 2 0 0 0 0 0 0 0
52 72 47 62 50 16 38 89 22 0 19 32 19 11 12 6 6 2 0 3 0 1 4 218 121 33 51 6 34 41 59 32 40 60 63 21 30 44 26 10 6 2 1 1 1 1 0 0 0

GFSSGP_con_sbcape_102.txt.gz
CAPE
0 0 0 0 0 0 0 0 0 0 0 0 0 0 0 0 0 95 35 529 1652 1222 1033 1039 1226 1435 1555 1563 1699 1993 1997 2044 2066 2074 2052 2092 2128 2193 2241 2232 2165 2257 2116 2008 1768 1818 1579 1676 1637
0 0 0 0 0 0 0 0 0 0 0 0 0 0 0 0 0 125 189 322 1320 1384 1227 1078 1201 1398 1572 1672 1725 1944 2184 2218 2136 1941 1929 1887 2106 2214 2311 2230 2047 2033 2032 1912 1872 1818 1725 1652 1504
0 0 0 0 0 0 0 0 0 0 0 0 0 0 0 0 0 87 249 678 829 1430 1356 1140 1113 1265 1528 1631 1754 1856 2131 2209 2087 1882 2087 2051 1894 2098 2234 1856 1852 1494 1394 1796 1633 1601 1794 1501 1239
0 0 0 0 0 0 0 0 0 0 0 0 0 0 0 29 1 225 261 353 839 1176 1923 741 936 1140 1488 1633 1669 1667 2005 2099 1930 1834 1966 1971 1768 1908 1830 1293 1040 854 579 899 1078 1393 1302 1166 1060
0 0 0 0 0 0 0 0 0 0 0 0 0 0 0 9 2 494 410 464 1126 1678 1719 1007 820 1113 1444 1602 1627 1419 1577 1834 1886 1731 1778 1870 1946 1764 1665 1299 912 730 521 253 405 555 682 841 910
0 0 0 0 0 0 0 0 0 0 0 0 0 0 0 0 12 772 930 977 1532 2192 2040 1183 999 1085 1209 1478 1490 1234 1321 1395 1405 1545 1718 1779 1817 1453 1245 1241 1089 684 305 47 132 394 350 291 320
0 0 0 0 0 0 0 0 0 0 0 0 0 0 0 0 160 631 1205 1644 2268 2521 2251 1507 1231 1054 1022 1045 1238 1172 1066 1193 1144 1271 1361 1512 1420 1230 955 941 906 800 625 673 742 461 262 189 176
0 0 0 0 0 0 0 0 0 0 0 0 0 0 0 109 198 935 1489 2286 2563 2688 2791 2122 1845 1387 1328 1273 940 1075 1024 954 934 1029 1187 1277 1154 1024 894 817 858 860 794 670 498 372 233 172 130
0 0 0 0 0 0 0 0 0 0 0 0 0 0 1 74 985 1355 1567 2317 2682 2558 2482 2742 2437 1986 1910 1748 1175 777 827 742 652 853 931 878 1110 894 740 748 710 696 578 362 228 252 186 137 89
0 0 0 0 0 0 0 0 0 0 0 0 0 0 0 13 806 1352 1605 2078 2397 2684 2532 2387 2507 2317 2396 1603 1415 1421 1307 1029 1101 1276 1060 1479 1186 856 691 488 450 428 352 265 233 223 100 96 51
0 0 0 0 0 0 0 0 0 0 0 0 0 0 0 0 47 1016 1215 1760 2080 2162 2380 2077 2166 2466 2406 1756 2093 1722 1600 1511 1336 1473 1436 1439 902 883 517 261 462 233 218 216 219 120 67 58 41
0 0 0 0 0 0 0 0 0 0 0 0 0 0 0 0 0 62 602 1022 1601 1819 2201 2169 1953 2316 2208 2215 2142 1868 1533 1459 1227 1578 1648 1405 1112 942 641 445 318 455 295 330 165 118 94 23 24
0 0 0 0 0 0 0 0 0 0 0 0 0 0 0 0 0 0 0 81 627 1388 1931 1993 1868 2031 2153 2488 1511 1712 1636 1541 1136 1492 1415 1182 1064 941 730 574 594 483 398 323 188 143 103 41 24
0 0 0 0 0 0 0 0 0 0 0 0 0 0 0 0 0 0 0 0 0 706 1719 2119 1936 1943 2033 2065 1889 1592 1239 1196 1275 873 1181 1475 1020 855 729 579 534 680 459 392 249 198 110 41 56
0 0 0 1 0 0 0 0 0 0 0 0 0 0 0 0 0 0 0 0 0 3 1726 2247 2072 1557 1806 2064 2011 1334 1012 1242 1193 929 964 1132 1074 1083 720 578 654 683 443 510 237 99 94 63 86
0 0 0 0 0 1 1 0 0 0 0 0 0 0 0 0 0 0 0 0 0 0 528 2417 2190 1519 1393 2017 1848 1234 921 1039 1107 1071 847 730 720 696 667 624 658 594 475 333 142 47 65 46 50
0 0 0 0 0 0 0 0 0 0 0 0 0 0 0 0 0 0 0 0 0 0 110 2241 2148 1567 1213 1594 1865 1514 1051 791 798 892 1018 937 751 604 570 416 411 202 224 284 210 89 18 38 40
0 0 0 0 0 0 0 0 0 0 0 0 0 0 0 0 0 0 0 0 0 0 3 2359 2288 1691 1195 1139 1651 1280 1315 735 751 745 631 518 724 623 599 337 247 170 230 196 183 73 76 40 32
0 0 11 6 1 0 13 0 0 0 0 0 0 0 0 0 0 0 0 0 0 0 71 1640 2385 2128 1370 1018 973 891 826 578 338 561 673 411 389 334 295 173 142 154 114 78 138 69 92 37 32
0 68 98 1 0 22 0 0 27 0 0 0 0 0 0 0 0 0 0 0 0 0 0 100 1904 2296 1740 1024 889 612 467 415 309 289 504 393 393 381 225 71 34 83 37 49 70 39 23 24 7
2 26 19 6 14 0 1 0 0 0 1 0 0 0 0 1 0 0 5 12 35 59 75 0 481 1966 1950 1228 716 645 526 452 353 574 472 499 267 282 139 37 1 2 1 5 19 18 10 11 6
39 49 135 68 0 2 2 0 0 2 0 0 0 1 0 0 3 8 5 2 6 1 0 2 0 555 1884 1046 665 811 728 639 455 487 371 418 267 165 49 4 5 1 1 0 6 23 10 6 9
28 83 92 27 0 0 0 0 0 0 0 0 0 16 27 35 12 0 0 0 0 0 0 10 0 2 1629 1076 954 918 977 701 512 357 331 149 11 0 0 0 3 1 2 2 5 14 28 33 4
41 43 0 0 0 23 0 2 0 0 0 0 9 31 41 20 0 0 0 0 0 0 0 42 229 79 1604 1390 1165 1156 1167 774 532 339 227 15 1 4 0 3 4 13 1 3 1 1 4 24 13
57 34 4 11 11 1 0 0 0 0 0 39 71 67 40 5 0 0 0 0 0 0 0 0 24 134 1374 1363 1278 1450 1180 1135 664 141 70 0 1 1 2 3 1 1 1 2 3 10 12 18 34
0 2 19 0 0 0 0 2 15 33 61 34 95 38 2 0 0 0 0 0 0 0 0 0 0 338 1125 982 1107 1340 1178 1139 426 34 177 9 0 3 1 1 6 3 2 3 2 14 2 14 28
0 12 22 143 9 16 0 0 0 36 32 62 25 0 0 0 0 0 0 0 0 0 0 0 0 373 517 532 588 1067 1107 1037 320 133 215 1 1 3 1 0 1 0 1 0 0 0 0 0 1
1 3 8 20 63 42 4 25 44 30 1 25 0 0 0 0 0 0 0 0 0 0 0 0 12 440 188 189 211 468 852 772 329 114 85 29 0 1 0 0 0 0 0 0 0 0 0 0 0
0 0 14 12 17 4 17 113 10 0 12 18 0 0 0 0 0 0 0 0 0 0 0 0 237 355 151 96 95 147 587 220 258 117 113 31 5 3 2 1 1 1 0 0 0 0 0 0 0
16 21 6 27 11 29 4 61 5 55 54 1 0 1 1 3 4 5 1 1 0 1 2 1 0 92 105 40 5 15 42 98 112 156 103 63 8 0 0 2 1 1 1 0 0 0 0 0 0

GFSSGP_con_sbcape_105.txt.gz
CAPE
0 0 0 0 0 0 0 0 0 0 0 0 0 0 0 0 61 29 710 479 642 759 1046 1181 1269 1513 1610 1766 1795 1672 1778 1906 1997 1977 1904 1971 2036 2079 2119 2099 2117 2229 2015 1899 1775 1769 1766 1684 1625
0 0 0 0 0 0 0 0 0 0 0 0 0 0 0 0 65 593 1063 791 778 642 886 963 1221 1451 1563 1627 1767 1825 1964 2025 2089 2068 2042 2068 2037 1986 1821 2034 2030 2115 1771 1684 1708 1784 1643 1533 1457
0 0 0 0 0 0 0 0 0 0 0 0 0 0 0 0 50 50 1104 1106 793 890 900 1056 1135 1308 1508 1564 1655 1820 1925 1968 1987 1909 2071 2124 2036 2124 1790 1802 1533 1123 1291 1114 1224 1562 1459 1272 1091
0 0 0 0 0 0 0 0 0 0 0 0 0 0 0 0 157 250 1068 1194 934 1132 954 890 1019 1186 1438 1572 1625 1663 1868 1900 1816 1694 2056 2157 2093 1787 1817 1244 1091 857 622 570 648 738 1043 909 903
0 0 0 0 0 0 0 0 0 0 0 0 0 0 0 1 135 277 413 1077 1487 1130 739 834 935 1119 1360 1575 1570 1609 1681 1822 1765 1649 1812 1833 1944 1762 1361 1070 972 517 233 491 567 490 625 449 639
0 0 0 0 0 0 0 0 0 0 0 0 0 0 0 19 127 126 439 1280 1599 1025 764 821 1008 1100 1214 1371 1235 1191 1430 1612 1738 1661 1607 1731 1666 1412 1232 984 884 54 323 548 336 76 196 455 402
0 0 0 0 0 0 0 0 0 0 0 0 0 0 0 61 181 285 776 1676 1674 1244 732 753 958 1009 1076 1143 1020 984 1141 1135 1074 1318 1482 1548 1404 1102 798 900 883 479 374 272 408 151 218 384 342
0 0 0 0 0 0 0 0 0 0 0 0 0 0 0 0 427 704 1293 1672 1761 1221 871 709 649 729 695 735 990 871 806 879 881 1024 1156 1335 1287 900 773 778 867 402 315 322 618 420 226 151 103
0 0 0 0 0 0 0 0 0 0 0 0 0 0 73 539 666 1395 1792 1699 1843 1785 1291 1030 814 719 719 621 748 896 822 705 631 744 980 855 625 686 604 616 681 546 494 602 482 264 130 63 64
0 0 0 0 0 0 0 0 0 0 0 0 0 0 49 554 789 1406 1730 1907 1918 1826 1796 1461 1105 999 966 1092 609 497 601 347 357 535 558 608 440 444 494 491 513 532 469 332 291 186 67 28 10
0 0 0 0 0 0 0 0 0 0 0 0 0 0 0 35 783 869 1607 2092 2246 1986 1860 1756 1561 1405 1412 1259 585 711 569 378 368 557 513 598 343 141 131 214 273 257 123 29 81 34 9 14 7
0 0 0 0 0 0 0 0 0 0 0 0 0 0 0 0 25 612 739 1756 2030 2191 1893 1591 1613 1514 1390 1470 1092 978 884 599 499 494 641 289 274 81 24 145 66 37 0 0 0 0 0 0 0
0 0 0 0 0 0 0 0 0 0 0 0 0 0 0 0 0 7 205 689 1720 1928 1966 1605 1452 1658 1439 1638 1423 1109 883 704 657 713 675 343 271 215 42 41 119 48 22 0 0 0 0 0 0
0 0 0 0 0 0 0 0 0 0 0 0 0 0 0 0 0 0 0 0 856 1752 1958 1608 1460 1483 1513 1402 1151 871 913 645 641 606 475 462 252 250 165 69 106 122 30 10 0 16 0 0 0
0 0 0 0 0 0 0 0 0 0 0 0 0 0 0 0 0 0 0 0 0 1027 1822 1612 1401 1329 1596 1493 925 619 604 580 545 432 748 492 290 203 100 80 56 53 29 11 6 25 0 0 0
0 0 0 0 0 0 0 0 0 0 0 0 0 0 0 0 0 0 0 0 0 0 1601 1649 1594 1339 1358 1375 979 655 361 543 536 334 413 578 426 143 74 33 40 52 2 25 7 37 14 2 2
0 0 0 0 0 0 0 0 0 0 0 0 0 0 0 0 0 0 0 0 0 0 1640 1657 1642 1339 1225 1116 1001 595 483 423 703 482 345 370 374 289 125 107 170 62 17 74 0 9 18 1 7
0 0 0 0 0 0 0 0 0 0 0 0 0 0 0 0 0 0 0 0 0 0 1647 1727 1559 1211 1067 1203 838 571 376 274 165 436 481 323 339 220 154 40 53 0 23 64 8 0 0 11 13
0 0 2 0 0 32 64 31 0 0 0 0 0 0 0 0 0 0 0 0 0 0 1653 1825 1468 1056 846 944 863 819 549 219 58 93 352 495 337 304 244 106 0 0 16 25 14 4 0 0 7
0 0 0 0 7 97 10 1 0 0 0 0 0 0 0 0 0 0 0 0 0 0 903 1811 1462 962 873 753 945 751 603 288 329 24 71 66 229 136 126 10 0 0 26 6 20 6 8 11 15
1 0 0 0 108 95 14 0 0 0 0 0 0 0 0 0 0 0 0 0 0 0 0 1700 1581 1057 888 699 526 161 163 178 156 126 76 14 8 25 4 0 0 0 33 53 46 13 12 7 15
0 0 0 0 160 101 8 0 0 0 0 0 0 0 0 0 0 0 0 0 0 0 0 0 1543 1309 912 611 552 287 234 291 212 101 56 38 14 0 0 0 0 0 1 2 6 10 8 4 27
3 6 5 2 33 17 2 4 0 4 0 0 0 21 0 0 0 0 0 0 0 0 0 0 0 486 1129 623 612 298 210 162 58 61 218 18 0 0 0 0 0 0 1 0 1 11 5 5 25
68 287 255 37 8 0 0 1 0 0 0 0 34 0 0 0 0 0 0 0 0 0 0 0 0 0 331 614 599 426 280 231 73 54 7 0 0 0 0 0 0 2 1 1 1 14 1 8 8
138 124 22 32 0 0 0 0 0 0 4 15 1 0 0 0 0 0 0 0 0 0 0 0 0 0 0 648 559 533 381 237 188 52 6 0 0 0 0 0 0 1 1 1 2 1 14 3 6
6 21 2 1 0 0 0 0 0 4 6 0 0 0 0 0 0 0 0 0 0 0 0 0 0 0 0 99 755 606 474 227 197 36 0 0 0 0 0 0 0 3 7 2 1 1 1 6 1
1 18 22 11 50 49 0 2 70 142 1 0 0 0 0 0 0 0 0 0 0 0 0 0 0 0 0 0 911 615 461 611 22 0 0 0 0 0 0 1 0 6 2 1 2 6 1 1 2
0 3 0 0 21 20 44 22 44 1 8 4 0 0 0 0 0 0 0 0 0 0 0 0 0 0 0 162 236 326 268 278 0 0 0 0 0 0 0 1 0 3 1 1 0 1 1 2 1
0 2 13 38 9 11 35 16 16 19 16 3 2 1 0 0 0 2 2 2 1 1 1 2 2 0 0 5 0 0 45 53 0 0 0 0 0 0 1 1 0 1 0 0 0 1 0 0 1
17 6 16 17 11 9 16 3 41 18 3 1 2 2 0 0 0 0 1 4 3 2 2 2 3 1 1 1 0 0 1 0 0 0 0 0 0 0 1 1 1 0 0 0 0 0 0 0 0

GFSSGP_con_sbcape_108.txt.gz
CAPE
0 0 0 0 0 0 0 0 0 0 0 0 0 0 0 1 12 2 382 261 667 1013 1143 1239 1454 1655 1679 1624 1551 1585 1735 1817 1770 1765 1798 1918 1987 2003 2096 2103 2295 2242 2021 1840 1656 1677 1628 1776 1708
0 0 0 0 0 0 0 0 0 0 0 0 0 0 0 48 227 850 438 480 633 977 1100 1183 1381 1584 1735 1684 1624 1700 1862 1890 1915 1893 1950 1942 1988 2040 2024 1990 1891 1712 1538 1651 1496 1593 1683 1596 1561
0 0 0 0 0 0 0 0 0 0 0 0 0 0 0 19 781 639 452 615 699 847 959 1162 1350 1455 1601 1686 1695 1755 1878 1875 1855 1906 2071 2056 2135 2153 2046 1668 1413 1604 1661 1740 1349 1545 1479 1396 1232
0 0 0 0 0 0 0 0 0 0 0 0 0 0 0 1 813 711 566 538 669 775 907 1118 1252 1378 1539 1650 1771 1796 1801 1724 1680 1812 2072 2139 2241 2205 1920 1356 1208 1317 1353 1300 1255 1495 1314 1054 965
0 0 0 0 0 0 0 0 0 0 0 0 0 0 0 2 424 880 623 556 776 754 842 954 1129 1330 1527 1697 1724 1768 1734 1684 1580 1675 1870 1990 2098 2038 1423 1098 1087 1091 1169 1177 1335 1270 1010 792 592
0 0 0 0 0 0 0 0 0 0 0 0 0 0 0 66 1169 1161 771 849 969 667 800 837 1050 1247 1401 1522 1490 1505 1683 1691 1581 1533 1675 1879 1778 1560 1159 901 724 846 924 785 811 830 814 765 591
0 0 0 0 0 0 0 0 0 0 0 0 0 0 0 349 439 833 1371 1266 914 697 736 755 965 1126 1203 1235 1265 1427 1555 1657 1616 1506 1489 1521 1353 1078 1085 505 145 315 796 681 294 234 283 519 514
0 0 0 0 0 0 0 0 0 0 0 0 0 0 36 5 113 1133 1510 1232 788 585 650 638 721 873 846 868 991 1141 1177 1202 1281 1430 1358 1323 1089 875 857 499 393 546 652 452 343 148 227 249 173
0 0 0 0 0 0 0 0 0 0 0 0 0 0 0 247 927 1460 1562 1374 977 682 536 478 584 615 536 632 802 904 1016 972 984 1122 1176 925 794 639 746 528 280 258 256 449 411 261 165 132 83
0 0 0 0 0 0 0 0 0 0 0 0 0 20 317 902 1117 1361 1528 1620 1371 945 666 508 465 548 457 712 711 526 677 471 433 594 601 574 477 354 570 485 268 219 273 292 507 269 93 39 0
0 0 0 0 0 0 0 0 0 0 0 0 0 269 650 1043 1107 1289 1376 1628 1737 1336 1133 823 580 596 700 809 380 299 228 105 171 307 401 317 228 286 341 428 322 207 317 292 240 116 9 0 0
0 0 0 0 0 0 0 0 0 0 0 0 0 0 188 841 1137 1241 1441 1591 1681 1702 1606 1261 895 911 1021 743 418 403 310 87 112 170 290 177 110 42 81 277 188 110 12 6 8 0 0 0 0
0 0 0 0 0 0 0 0 0 0 0 0 0 0 1 565 908 1186 1460 1618 1844 1818 1692 1586 1264 1121 1139 981 653 634 516 321 183 232 263 73 41 14 8 42 47 43 0 0 0 0 0 0 0
0 0 0 0 0 0 0 0 0 0 0 0 0 0 0 10 19 181 900 1575 1990 2079 1836 1593 1491 1396 1265 1372 958 859 708 493 316 351 329 28 45 2 2 2 25 3 7 0 0 0 0 0 0
0 0 0 0 0 0 0 0 0 0 0 0 0 0 0 0 0 0 0 847 1686 2037 2081 1657 1466 1394 1280 1476 1217 933 849 501 348 472 215 56 48 8 0 0 0 0 1 0 0 0 1 1 0
0 0 0 0 0 0 0 0 0 0 0 0 0 0 0 0 0 0 0 0 423 1672 1886 1728 1586 1360 1378 1306 1183 815 836 569 280 416 513 68 36 51 8 0 0 0 0 0 0 0 2 1 1
0 0 0 0 0 0 0 0 0 0 0 0 0 0 0 0 0 0 0 0 0 692 1674 1746 1571 1196 1503 1272 1051 649 585 499 301 127 209 443 37 13 24 7 0 0 0 0 0 1 2 1 2
0 0 0 0 0 0 0 0 0 0 0 0 0 0 0 0 0 0 0 0 0 0 1349 1652 1550 1244 1373 976 702 395 260 229 358 258 144 234 220 11 7 2 0 0 0 0 9 38 0 0 1
0 0 0 0 0 0 0 0 0 0 0 0 0 0 0 0 0 0 0 0 0 0 872 1415 1472 1277 1199 962 805 570 570 169 334 344 259 121 293 77 24 6 0 0 0 0 0 3 2 1 1
1 46 0 0 0 0 8 16 3 0 0 0 0 0 0 0 0 0 0 0 0 0 488 1295 1416 1115 1205 1423 1272 1031 718 316 168 155 322 212 132 140 125 32 0 0 0 1 1 1 1 1 3
0 0 5 0 0 0 59 6 0 0 0 0 0 0 0 0 0 0 0 0 0 0 0 1322 1294 1047 1189 1296 942 226 81 74 90 12 60 150 153 79 67 22 0 0 0 0 2 1 0 0 2
0 1 8 9 0 0 89 0 6 0 0 0 0 0 1 0 0 0 0 0 0 0 0 0 828 1090 913 655 914 546 677 535 489 357 20 8 39 27 17 0 0 0 0 10 1 2 1 0 0
0 0 0 11 0 2 27 47 0 29 61 29 3 0 0 0 0 0 0 0 0 0 0 0 0 0 0 465 634 441 716 553 18 33 38 3 0 0 13 0 0 0 0 2 2 6 6 0 5
16 31 46 20 6 0 0 28 0 97 49 261 0 0 0 0 0 0 0 0 0 0 0 0 0 0 0 1 554 594 394 87 42 5 5 7 4 0 0 0 0 0 0 0 0 4 6 3 13
1 22 5 2 15 0 0 25 0 261 327 30 0 0 0 0 0 0 0 0 0 0 0 0 0 0 0 0 0 571 278 65 77 36 12 6 0 0 1 0 0 0 0 0 1 3 28 33 11
0 0 1 16 10 0 15 9 34 6 11 4 0 0 0 0 0 0 0 0 0 0 0 0 0 0 0 0 0 214 542 136 66 68 33 0 0 0 0 0 0 0 0 0 2 11 15 13 1
0 0 7 48 0 2 1 53 12 2 5 13 6 2 3 2 2 1 1 0 0 0 0 0 0 0 0 0 0 0 745 186 174 56 12 0 0 0 0 0 0 0 0 1 3 11 19 1 2
0 1 6 0 8 19 37 29 11 12 11 7 14 5 4 3 1 1 1 2 0 0 0 0 0 0 0 0 0 0 651 231 68 3 0 0 0 0 0 0 0 0 3 1 4 8 1 2 1
0 0 29 30 31 4 6 11 28 10 16 4 4 13 4 2 1 1 1 1 1 2 2 2 1 1 2 2 2 24 21 1 0 0 0 0 0 0 0 0 1 1 2 3 2 1 5 1 1
12 23 31 6 10 14 42 1 8 15 14 7 8 8 4 2 2 1 1 1 1 2 4 4 3 3 4 3 1 0 0 0 0 0 0 0 0 0 0 0 0 0 0 0 5 0 1 2 1

GFSSGP_con_sbcape_111.txt.gz
CAPE
0 0 0 0 0 0 0 0 0 0 0 0 0 0 0 0 0 0 119 197 685 836 1163 1299 1360 1511 1543 1572 1546 1553 1694 1695 1641 1714 1768 1829 1968 2112 2190 2183 2049 1939 2003 1737 1599 1761 1665 1711 1786
0 0 0 0 0 0 0 0 0 0 0 0 0 0 0 0 292 572 321 528 763 981 1143 1326 1418 1525 1568 1554 1595 1695 1818 1791 1715 1786 1890 1948 2057 2171 2189 2159 1804 1937 2047 1874 1658 1697 1540 1745 1631
0 0 0 0 0 0 0 0 0 0 0 0 0 0 0 0 717 501 253 669 969 1064 1146 1264 1469 1568 1605 1565 1609 1713 1795 1729 1705 1778 1973 2048 2116 2207 2145 1920 1621 1865 2051 2014 1706 1709 1661 1506 1307
0 0 0 0 0 0 0 0 0 0 0 0 0 0 0 2 658 498 436 699 896 1040 1090 1226 1335 1516 1660 1682 1701 1773 1716 1584 1598 1742 1935 2130 2182 2178 1920 1420 1506 1801 1979 2022 1685 1698 1496 1144 1060
0 0 0 0 0 0 0 0 0 0 0 0 0 0 0 132 429 316 392 571 644 761 954 1147 1242 1397 1633 1838 1844 1780 1635 1524 1574 1736 1862 2051 2202 2059 1393 1260 1376 1595 1658 1738 1751 1517 1182 978 848
0 0 0 0 0 0 0 0 0 0 0 0 0 0 0 135 476 189 306 367 490 682 872 1044 1184 1347 1524 1743 1788 1683 1579 1507 1504 1615 1735 1979 1948 1572 1249 1201 1186 1279 1305 1366 1291 1113 988 780 685
0 0 0 0 0 0 0 0 0 0 0 0 0 0 0 767 438 224 210 547 410 613 727 859 1117 1278 1385 1431 1549 1583 1558 1516 1417 1493 1556 1639 1506 1125 1124 1056 1064 1102 976 878 944 789 705 661 507
0 0 0 0 0 0 0 0 0 0 0 0 0 0 0 256 851 887 800 472 419 510 565 640 783 896 947 1029 1236 1352 1506 1513 1394 1363 1419 1393 1115 935 763 686 751 822 798 726 428 193 343 466 301
0 0 0 0 0 0 0 0 0 0 0 0 0 0 0 92 1241 1064 780 554 450 475 449 510 716 630 628 678 958 1225 1373 1393 1368 1302 1263 953 853 855 466 30 318 594 632 357 207 110 82 168 160
0 0 0 0 0 0 0 0 0 0 0 0 0 0 226 952 1340 1191 1014 874 659 501 330 419 577 503 470 765 712 676 928 838 908 1041 976 704 530 597 531 208 300 258 336 195 155 71 40 15 5
0 0 0 0 0 0 0 0 0 0 0 0 0 0 229 719 1273 1276 1196 1062 948 611 363 331 372 371 444 748 540 310 342 297 370 511 619 473 262 446 356 277 110 34 61 20 144 46 0 0 0
0 0 0 0 0 0 0 0 0 0 0 0 0 0 0 585 1022 1172 1260 1250 1150 707 390 345 319 392 437 444 490 311 206 49 101 234 315 383 267 186 318 377 189 36 54 10 3 0 0 0 0
0 0 0 0 0 0 0 0 0 0 0 0 0 0 0 0 859 1091 1132 1299 1395 1196 931 533 344 449 540 451 343 234 162 58 68 162 247 271 221 148 162 268 151 26 0 0 0 0 0 0 0
0 0 0 0 0 0 0 0 0 0 0 0 0 0 0 0 351 1010 951 1249 1511 1644 1570 1019 614 556 690 634 426 410 280 83 52 165 229 129 167 67 105 24 15 1 0 0 0 0 0 0 0
0 0 0 0 0 0 0 0 0 0 0 0 0 0 0 0 5 709 903 1225 1549 1713 1805 1456 1069 822 907 923 557 531 458 282 179 246 133 76 43 11 27 27 0 0 0 0 0 0 0 0 0
0 0 0 0 0 0 0 0 0 0 0 0 0 0 0 0 0 0 2 1012 1518 1870 1866 1703 1583 1130 1038 1171 850 760 671 463 277 288 247 47 34 0 0 0 0 0 0 0 0 0 1 1 1
0 0 0 0 0 0 0 0 0 0 0 0 0 0 0 0 0 0 0 4 1252 1829 2062 1845 1627 1347 1179 1311 1167 848 780 592 305 353 298 67 36 10 0 0 0 0 0 0 0 1 0 1 2
0 0 0 0 0 0 0 0 0 0 0 0 0 0 0 0 0 0 0 0 0 874 1801 2040 1707 1448 1290 1179 909 476 650 474 260 363 386 191 87 17 0 0 0 0 0 0 1 0 1 3 0
0 0 0 0 0 0 0 0 0 0 0 0 0 0 0 0 0 0 0 0 0 0 954 1684 1654 1415 1363 961 967 699 881 582 387 324 315 268 137 0 21 0 0 0 0 0 0 2 5 1 0
0 0 0 0 0 0 1 0 0 0 0 0 0 0 0 0 0 0 0 0 0 0 0 498 1525 1343 1458 1244 1126 1096 1071 466 549 325 181 288 246 60 43 0 0 0 0 0 0 0 0 2 2
0 0 0 0 0 20 64 0 0 0 0 0 0 0 0 0 0 0 0 0 0 0 0 111 1136 1213 1382 1353 1056 405 138 57 18 253 379 214 182 182 102 22 14 0 0 1 1 0 2 0 1
0 0 0 0 0 0 1 0 0 0 0 0 0 0 0 0 0 0 0 0 0 0 0 0 238 1257 1212 1164 1126 814 1003 834 606 482 503 490 140 56 155 115 19 10 0 5 1 0 2 7 7
0 3 0 0 0 0 0 9 0 56 107 49 0 0 0 0 0 0 0 0 0 0 0 0 0 0 0 473 1123 884 949 845 192 176 60 149 108 60 41 38 27 40 35 36 20 4 9 5 12
0 2 3 0 0 0 0 0 0 1 92 0 1 0 0 0 0 0 0 0 0 0 0 0 0 0 0 0 0 786 780 575 218 123 32 43 41 81 51 28 17 5 0 0 0 6 11 14 9
0 3 0 6 1 0 0 0 0 2 7 6 9 1 4 2 2 0 0 0 0 0 0 0 0 0 0 0 0 0 599 370 344 244 247 67 44 12 11 22 3 0 0 2 2 1 5 9 11
0 0 0 0 10 0 25 3 5 14 10 12 6 11 5 3 5 3 1 1 0 0 0 0 0 0 0 0 0 0 0 558 177 98 125 75 63 47 0 0 7 1 0 0 0 0 2 3 6
0 0 0 2 10 2 23 49 14 21 19 5 13 14 10 9 7 3 3 2 2 2 2 1 0 0 0 0 0 1 0 67 493 104 14 44 38 17 0 0 6 0 0 0 0 1 5 4 5
0 0 2 3 0 1 1 6 10 5 20 10 1 16 10 6 7 3 3 3 2 1 2 0 1 1 0 0 0 2 0 0 659 310 31 0 7 0 0 0 0 0 0 0 0 0 1 4 6
0 0 1 7 0 4 0 4 25 14 13 18 9 3 8 4 3 4 3 2 1 2 1 1 2 2 1 2 2 2 1 2 464 256 28 1 0 0 0 0 0 0 0 0 1 2 6 9 10
0 0 15 0 0 14 1 2 5 27 28 19 17 3 5 4 2 1 0 1 1 2 2 2 2 4 3 3 3 3 3 1 2 6 0 0 0 0 0 0 0 0 0 0 1 1 3 5 8

GFSSGP_con_sbcape_117.txt.gz
CAPE
0 0 0 0 0 0 0 0 0 0 0 0 0 0 0 0 39 0 344 477 731 1346 1573 1629 1506 1553 1511 1458 1434 1443 1702 1995 2071 2012 1916 1895 1896 1903 1958 2040 2146 2274 2331 2176 1995 2110 2182 2210 1937
0 0 0 0 0 0 0 0 0 0 0 0 0 0 0 0 0 196 894 665 855 1479 1598 1719 1521 1570 1566 1496 1506 1556 1782 1966 2012 2031 2003 2009 2015 2029 2055 2026 2053 2184 2251 2257 1934 1814 1927 2024 1700
0 0 0 0 0 0 0 0 0 0 0 0 0 0 0 0 41 790 816 732 1047 1510 1601 1723 1530 1559 1615 1585 1599 1657 1749 1750 1838 1973 2163 2175 2157 2184 2131 1914 1982 2182 2334 2337 2148 2060 2025 1649 1445
0 0 0 0 0 0 0 0 0 0 0 0 0 0 0 0 105 679 649 907 1301 1555 1571 1418 1449 1550 1671 1719 1735 1730 1629 1566 1664 1901 2187 2281 2295 2284 2017 1763 1961 2268 2383 2448 2353 2261 1700 1270 1284
0 0 0 0 0 0 0 0 0 0 0 0 0 0 0 0 91 636 1008 1103 1377 1633 1668 1724 1390 1541 1684 1842 1876 1749 1528 1487 1649 1879 2064 2220 2320 2220 1782 1608 1844 2163 2275 2347 2317 1789 1341 1156 1113
0 0 0 0 0 0 0 0 0 0 0 0 0 0 0 0 376 714 1055 1273 1330 1648 1741 1802 1442 1521 1639 1771 1819 1628 1425 1443 1641 1812 1958 2135 2151 1913 1588 1500 1670 1862 1929 1912 1730 1362 1226 1053 975
0 0 0 0 0 0 0 0 0 0 0 0 0 0 0 0 22 633 876 1043 1292 1499 1648 1792 1909 1803 1453 1579 1654 1494 1357 1401 1572 1721 1848 1937 1851 1560 1359 1386 1556 1664 1665 1512 1288 1125 1014 955 795
0 0 0 0 0 0 0 0 0 0 0 0 0 0 0 0 151 638 746 989 1138 1281 1424 1504 1547 1828 2016 1905 1393 1352 1313 1277 1424 1592 1696 1621 1404 1213 1126 1101 1274 1321 1359 1204 1075 892 876 724 516
0 0 0 0 0 0 0 0 0 0 0 0 0 0 0 577 801 712 728 779 848 699 1118 1211 1241 1351 1773 1477 1633 1316 1281 1218 1242 1435 1450 1392 1921 1654 1298 985 950 938 922 877 752 648 638 384 294
0 0 0 0 0 0 0 0 0 0 0 0 0 0 0 0 8 353 805 775 827 873 766 785 975 1135 1239 1138 1313 1646 1710 1843 1796 1776 1896 2227 1980 1850 1376 841 700 577 501 429 383 301 198 406 1146
0 0 0 0 0 0 0 0 0 0 0 0 0 0 0 0 0 0 755 713 612 674 790 481 651 942 1047 1161 1191 1230 1443 1629 1675 1924 1945 1815 1605 1511 1273 1128 953 991 333 599 310 368 873 968 1123
0 0 0 0 0 0 0 0 0 0 0 0 0 0 0 0 0 0 0 951 686 483 686 587 565 679 1002 1073 1037 959 1154 1228 1397 1630 1849 1512 971 1076 1305 1023 1016 887 692 607 394 114 153 503 734
0 0 0 0 0 0 0 0 0 0 0 0 0 0 0 0 0 0 0 0 1011 737 642 711 490 465 700 884 838 807 863 901 959 1359 1344 1527 973 936 1155 1009 824 632 569 575 473 171 54 146 429
0 0 0 0 0 0 0 0 0 0 0 0 0 0 0 0 0 0 0 0 662 1293 998 836 573 423 675 748 704 747 745 671 787 952 1219 1407 1024 836 889 864 738 798 619 124 374 243 131 129 253
0 0 0 0 0 0 0 0 0 0 0 0 0 0 0 0 0 0 0 0 0 1159 1498 1189 1023 922 786 677 704 460 509 784 1334 1090 1110 1144 1058 683 751 814 745 830 456 41 313 253 160 46 32
0 0 0 0 0 0 0 0 0 0 0 0 0 0 0 0 0 0 0 0 0 1 1549 1474 1041 983 1072 916 730 457 667 1033 1257 1168 715 748 930 851 643 571 670 824 133 24 277 27 65 132 47
0 0 0 0 0 0 0 0 0 0 0 0 0 0 0 0 0 0 0 0 0 0 1305 1808 1443 1251 1312 1208 1073 876 774 999 1105 1109 598 515 865 977 712 552 429 287 177 31 51 3 64 18 87
0 0 0 0 0 0 0 0 0 0 0 0 0 0 0 0 0 0 0 0 0 0 1153 2043 1671 1556 1429 1361 1060 926 795 874 971 1031 1019 610 697 832 748 552 400 221 107 4 43 7 34 151 258
0 0 0 0 0 0 0 0 0 0 0 0 0 0 0 0 0 0 0 0 0 0 675 1890 1947 1598 1344 1400 1092 755 647 605 601 963 985 720 590 646 890 410 211 61 60 22 5 15 44 45 138
0 0 0 0 0 0 0 0 0 0 0 0 0 0 0 0 0 0 0 0 0 0 0 1827 2101 1985 1485 1526 1367 1384 1188 996 803 749 735 835 918 537 691 521 141 23 58 46 7 10 6 19 49
0 0 0 0 0 0 0 0 0 0 0 0 0 0 0 0 0 0 0 0 0 0 0 0 1405 2259 2004 1790 1593 1418 1350 1344 1130 943 835 645 1029 751 700 532 359 137 90 92 33 7 73 13 7
0 0 0 0 0 0 0 3 0 0 2 7 5 4 2 3 2 1 0 1 0 0 0 0 2 1755 1975 1542 1793 1529 1552 1334 1441 1394 1090 704 774 753 782 582 444 293 155 170 49 30 79 126 46
0 0 0 0 0 2 0 5 0 1 15 18 10 13 11 8 6 4 2 4 2 0 0 0 0 0 0 709 1707 1494 1716 1868 1631 1492 1163 1050 752 675 781 609 379 437 243 260 232 149 87 264 291
0 0 0 0 0 4 0 0 0 19 30 26 7 18 13 12 12 10 5 2 2 0 0 0 0 0 0 0 0 1003 1809 1776 1311 1546 1280 1181 1021 624 820 732 642 592 526 537 466 319 178 312 194
0 0 0 0 2 0 3 1 20 45 45 40 12 10 22 15 19 18 12 7 4 1 1 0 0 0 0 0 0 0 0 230 1331 1414 1465 1093 913 768 756 600 513 526 531 366 600 454 356 180 110
0 0 0 2 1 2 4 3 7 40 17 29 28 2 15 13 19 28 20 11 4 5 1 0 0 0 0 0 1 0 0 0 0 902 1278 1386 917 869 650 437 533 403 288 190 273 316 202 191 223
0 0 0 9 1 8 5 12 10 2 7 8 21 6 8 14 19 18 25 14 14 10 7 2 1 0 0 1 1 1 2 1 3 0 284 900 1107 801 625 427 349 225 236 157 110 182 156 55 68
0 0 44 4 21 7 6 4 10 5 11 8 6 10 4 16 11 18 16 13 8 6 7 5 3 1 1 1 3 3 4 2 3 6 1 183 409 499 420 383 300 243 132 75 60 90 151 47 37
3 15 31 88 34 47 25 10 46 21 16 8 7 8 8 8 10 8 19 10 5 4 5 7 4 3 4 5 5 3 4 2 2 3 3 3 209 126 78 175 221 167 70 45 36 62 68 37 12
0 9 29 21 11 32 3 13 25 39 22 10 11 10 10 6 13 10 11 7 7 6 5 7 6 5 5 6 6 6 4 2 1 1 1 2 1 121 83 37 41 65 85 69 5 9 3 2 1

GFSSGP_con_sbcape_120.txt.gz
CAPE
0 0 0 0 0 0 0 0 0 0 0 0 0 0 0 0 0 0 564 988 935 1483 1999 1889 1519 1555 1594 1610 1580 1763 2102 2270 2161 1954 1891 1961 1932 2016 2119 2139 2196 2022 2334 2266 1849 1959 2415 2323 2041
0 0 0 0 0 0 0 0 0 0 0 0 0 0 0 0 0 0 433 1230 1017 1563 2046 2040 1490 1560 1632 1598 1600 1845 2242 2329 2216 2074 2055 2063 2059 2107 2162 2172 2168 2323 2403 2341 1874 1862 2430 2128 1750
0 0 0 0 0 0 0 0 0 0 0 0 0 0 0 0 0 0 159 1248 1138 1718 2091 2166 1560 1553 1657 1634 1621 1836 2159 2171 2157 2107 2187 2196 2197 2226 2247 2099 2100 2184 2457 2427 1984 1960 2123 1689 1425
0 0 0 0 0 0 0 0 0 0 0 0 0 0 0 0 0 21 841 1303 1275 1755 2125 1630 1514 1549 1670 1731 1735 1850 1934 1959 2014 2083 2207 2300 2317 2350 2193 1987 2141 2400 2511 2431 2151 2211 1777 1338 1239
0 0 0 0 0 0 0 0 0 0 0 0 0 0 0 0 0 0 466 1394 1291 1925 2199 2362 1434 1586 1702 1865 1872 1819 1704 1778 1978 2153 2199 2277 2355 2292 1983 1882 2123 2355 2313 2393 2329 1811 1427 1244 1188
0 0 0 0 0 0 0 0 0 0 0 0 0 0 0 0 0 0 402 1537 1658 2080 2380 2462 1601 1609 1713 1804 1777 1622 1527 1648 1896 2095 2196 2293 2245 1985 1811 1808 1998 2132 2094 2091 1783 1437 1307 1185 1112
0 0 0 0 0 0 0 0 0 0 0 0 0 0 0 0 0 64 779 1574 2027 2315 2553 2609 2413 2066 1566 1683 1629 1439 1417 1573 1780 1939 2094 2139 2006 1691 1597 1679 1828 1911 1853 1783 1506 1266 1109 1113 969
0 0 0 0 0 0 0 0 0 0 0 0 0 0 0 0 0 0 475 1342 2031 2332 2663 2697 2629 2460 2396 2280 1449 1293 1313 1459 1661 1774 1917 1893 1704 1486 1400 1441 1616 1705 1664 1466 1311 1086 1018 968 666
0 0 0 0 0 0 0 0 0 0 0 0 0 0 0 0 0 0 0 264 1591 2105 2215 2525 2498 2204 2478 2410 2116 1261 1189 1319 1496 1649 1658 1698 2027 2056 1706 1373 1387 1455 1328 1123 1042 932 847 574 391
0 0 0 0 0 0 0 0 0 0 0 0 0 0 0 0 0 0 0 0 340 1622 1859 2072 2076 1831 2186 1924 2264 2296 2044 1890 1956 1988 2230 2141 1995 1963 1622 1212 1056 1064 938 802 773 697 434 652 1291
0 0 0 0 0 0 0 0 0 0 0 0 0 0 0 0 0 0 0 0 1 463 1505 1576 1428 1497 1603 2082 1885 2085 1996 1931 2131 2229 2233 2312 2330 2171 1867 1793 1396 1486 752 1249 905 1072 1276 1069 1072
0 0 0 0 0 0 0 0 0 0 0 0 0 0 0 0 0 0 0 0 0 10 943 1462 1498 1398 1404 1890 1939 1914 1771 2028 2175 2198 2247 2595 2523 2216 1800 1722 1388 1489 1186 1129 1148 1098 1108 1171 1104
0 0 0 0 0 0 0 0 0 0 0 0 0 0 0 0 0 0 0 0 0 0 69 1200 1467 1378 1197 2032 1784 1723 1745 1885 1932 2078 2569 2349 1863 2056 1947 1779 1481 1411 1137 1254 1172 995 826 843 915
0 0 0 0 0 0 0 0 0 0 0 0 0 0 0 0 0 0 0 0 0 0 0 993 1505 1464 1291 1716 1853 1716 1602 1662 1715 1750 2165 2525 1902 1948 1964 1707 1584 1344 1250 1231 1237 1124 768 675 646
0 0 0 0 0 0 0 0 0 0 0 0 0 0 0 0 0 0 0 0 0 0 0 114 1581 1574 1341 1398 1765 1729 1460 1477 1528 1710 2032 2172 1916 1616 1947 1840 1746 1356 1337 1360 1381 1036 912 819 672
0 0 0 0 0 0 0 0 0 0 0 0 0 0 0 0 0 0 0 0 0 0 0 0 1103 1642 1484 1498 1611 1452 1384 1274 2043 2081 1820 1942 1907 1676 1610 1401 1286 1620 1334 1128 1310 1084 966 933 720
0 0 0 0 0 0 0 0 0 0 0 0 0 0 0 0 0 0 0 0 0 0 0 0 141 1808 1654 1641 1540 1591 1477 1497 1638 1779 1637 1630 1843 1544 1464 1293 1313 1810 1353 881 1149 1054 1097 882 771
0 0 0 0 0 0 0 0 0 0 0 0 0 0 0 0 0 0 0 0 0 0 0 0 0 1975 1873 2009 1706 1458 1472 1421 1468 1705 1796 1313 1570 1461 1485 1360 1374 1258 1258 864 774 669 1080 952 907
0 0 0 0 0 0 0 0 0 0 0 4 1 0 0 0 0 0 0 0 0 0 0 0 0 1046 2264 1792 1524 1403 1505 1408 1428 1546 1618 1738 1376 1499 1603 1305 1188 1075 955 692 599 755 801 967 919
0 0 0 0 0 0 0 0 0 0 2 25 7 5 0 0 0 0 0 0 7 0 0 0 0 127 2119 2095 1777 1435 1544 1294 1253 1356 1564 1777 1327 1471 1421 1342 1166 857 915 778 678 424 614 776 777
0 0 0 0 0 0 0 0 0 2 0 0 8 14 18 12 8 7 37 28 16 0 0 0 181 304 1862 1964 2149 1698 1602 1425 1290 1366 1580 1821 1668 1264 1373 1435 1012 834 776 823 606 423 571 556 422
0 0 0 0 0 0 0 0 9 1 3 0 5 8 21 20 27 5 10 10 10 7 5 4 15 791 2055 1972 2078 1666 1857 1694 1825 1622 1456 1363 1468 1634 1154 1222 1143 942 717 749 686 529 475 719 214
0 0 0 0 0 5 0 2 10 0 1 4 15 19 23 24 26 17 10 9 8 3 1 2 2 0 0 1989 2032 1673 2142 2156 2221 2050 1753 1483 1414 1747 1544 1391 1043 937 1045 946 903 446 468 580 682
0 0 1 2 0 17 0 4 9 16 26 19 37 21 21 17 23 19 18 13 9 7 1 0 2 0 1 2 445 1745 1416 2230 2491 2092 2138 1675 1518 1315 1335 1768 1452 1264 984 841 916 610 597 597 656
0 25 79 90 186 80 12 7 18 26 36 41 34 34 24 18 18 18 17 21 29 23 7 1 1 1 3 10 3 2 1 499 2511 2298 2185 1692 1566 1138 1163 1507 1499 1334 1234 958 946 772 810 994 1056
2 20 49 27 120 86 2 15 18 4 16 20 16 23 22 10 19 13 2 20 17 28 10 5 2 1 1 6 4 4 4 1 1 7 373 2057 1676 1511 1430 1330 1386 1299 1187 1162 1620 1477 1429 1337 1464
6 30 24 26 31 31 32 13 17 0 10 11 14 10 20 11 13 11 11 23 31 44 11 9 8 4 2 3 2 1 3 2 3 2 1 0 1689 1475 1454 1086 901 855 959 889 1167 1477 920 1090 1208
21 7 40 89 55 102 53 10 23 15 15 27 12 19 16 13 9 10 15 17 26 31 12 6 5 9 5 3 4 4 3 3 3 3 4 2 2 556 1104 878 768 864 696 557 487 614 544 385 536
23 39 39 38 48 74 78 22 55 33 21 16 14 15 19 16 7 11 10 19 9 11 19 5 6 5 7 6 7 4 4 3 3 3 3 4 2 3 627 773 721 665 548 183 130 172 266 283 295
0 25 29 70 36 87 67 25 46 20 22 19 18 16 19 18 14 8 10 10 7 7 6 7 9 7 6 8 7 8 7 5 4 5 4 3 3 1 3 350 661 601 405 222 88 105 112 171 165

GFSSGP_con_sbcape_123.txt.gz
CAPE
0 0 0 0 0 0 0 0 0 0 0 0 0 0 0 0 0 0 0 1159 1058 1041 2522 1957 1560 1714 1802 1879 1978 2143 2262 2302 2192 1995 1986 2028 2023 2132 2269 2351 2419 2323 2607 2383 1908 1827 1812 2276 2238
0 0 0 0 0 0 0 0 0 0 0 0 0 0 0 0 0 0 1 355 906 1319 2308 2033 1550 1658 1798 1796 1956 2221 2482 2540 2282 2120 2127 2133 2134 2253 2366 2335 2198 2127 2574 2153 1904 1987 2296 2269 1802
0 0 0 0 0 0 0 0 0 0 0 0 0 0 0 0 0 0 19 854 1346 1491 2153 2211 1575 1597 1750 1736 1895 2214 2453 2388 2258 2145 2290 2257 2277 2376 2397 2220 2030 2160 2293 2177 1952 1869 2405 1740 1492
0 0 0 0 0 0 0 0 0 0 0 0 0 0 0 0 0 0 15 1061 1515 1737 2131 1501 1557 1590 1753 1753 1888 2173 2274 2244 2171 2186 2322 2393 2419 2469 2384 2146 2225 2191 2329 2414 2134 2014 1817 1369 1286
0 0 0 0 0 0 0 0 0 0 0 0 0 0 0 0 0 0 136 577 1544 1753 2211 2566 1560 1577 1780 1899 1961 2060 2070 2104 2124 2214 2295 2382 2455 2451 2211 2052 2205 2347 2389 2378 1990 1853 1465 1232 1191
0 0 0 0 0 0 0 0 0 0 0 0 0 0 0 0 0 0 231 852 1793 1722 2267 3073 1657 1551 1721 1849 1832 1768 1877 2012 2124 2187 2263 2388 2326 2110 2049 2043 2173 2302 2234 2078 1850 1453 1322 1185 1146
0 0 0 0 0 0 0 0 0 0 0 0 0 0 0 0 0 0 0 880 1801 2418 2521 2883 2650 2052 1535 1717 1648 1512 1651 1888 2075 2140 2231 2222 1898 1878 1857 1949 2073 2140 2021 1848 1572 1278 1160 1137 1033
0 0 0 0 0 0 0 0 0 0 0 0 0 0 0 0 0 0 0 0 1396 2395 2936 3067 3110 2650 2331 2140 1514 1358 1423 1650 1875 1987 2080 1874 1689 1684 1671 1718 1863 1933 1914 1756 1424 1128 1048 1028 838
0 0 0 0 0 0 0 0 0 0 0 0 0 0 0 0 0 0 0 0 0 1553 2638 3039 3120 2952 2744 2613 2143 1301 1273 1440 1589 1812 1858 1770 2011 2122 1981 1633 1646 1713 1609 1405 1199 1016 942 749 572
0 0 0 0 0 0 0 0 0 0 0 0 0 0 0 0 0 0 0 0 0 0 1608 2657 2874 2849 2740 2353 2736 2304 2020 1839 1900 1905 2232 2140 1909 2101 1776 1360 1384 1447 1241 1005 944 890 615 663 1249
0 0 0 0 0 0 0 0 0 0 0 0 0 0 0 0 0 0 0 0 0 0 0 2063 2650 2571 2319 2536 2277 2423 2120 1970 2104 2173 2663 2343 2275 2750 1966 2329 1751 1777 951 1307 914 1012 1272 1028 1352
0 0 0 0 0 0 0 0 0 0 0 0 0 0 0 0 0 0 0 0 0 0 0 86 2130 2154 2193 2419 2138 2101 2031 2126 2033 2106 2499 2816 2633 2499 2031 1847 1831 2123 1517 1480 1064 1038 1031 1320 1511
0 0 0 0 0 0 0 0 0 0 0 0 0 0 0 0 0 0 0 0 0 0 0 0 1077 2191 2124 2337 2194 2240 2361 2059 1927 2076 2614 2854 2540 2594 2016 2280 1860 1809 1685 1542 1378 1482 1499 1259 1289
0 0 0 0 0 0 0 0 0 0 0 0 0 0 0 0 0 0 0 0 0 0 0 0 44 2317 2070 2038 2926 2628 2606 2115 2212 2439 2528 2916 2778 2706 2468 2078 1877 1811 1903 1706 1639 1371 1201 1224 1303
0 0 0 0 0 0 0 0 0 0 0 0 0 0 0 0 0 0 0 0 0 0 0 0 0 1965 2620 2029 2148 2446 2063 2184 2053 2274 2484 2985 2687 2853 2840 2263 2203 1981 1848 1811 1653 1586 1207 1168 1037
0 0 0 0 0 0 0 0 0 0 0 0 0 0 0 0 0 0 0 0 0 0 0 0 0 0 2862 2448 2093 2257 1911 2035 2031 2110 2075 2521 2717 2448 2837 2179 2029 2105 1686 1765 1696 1602 1277 1276 1173
0 0 0 0 0 0 0 0 0 0 0 0 0 0 0 0 0 0 0 0 0 0 0 0 0 0 1263 2490 2240 2593 2498 2108 1807 2026 2014 2169 2357 2237 2379 2018 2097 2419 1842 1921 1717 1623 1565 1190 1137
0 0 0 0 0 0 0 0 0 0 0 0 0 0 0 0 2 4 1 0 0 0 0 0 0 0 0 2590 2353 2058 2037 1889 1732 2005 2152 2189 2057 2071 2092 1923 1844 2072 2011 1364 1692 1818 1586 1542 1125
0 0 0 0 0 0 0 0 0 0 14 0 0 0 0 0 0 0 0 0 0 0 0 0 0 0 0 2120 2337 2295 2085 1996 2020 1721 2231 2087 1887 1849 2039 1813 1678 1880 1917 1431 1402 1612 1707 1424 1527
0 0 0 0 0 0 0 0 0 0 0 0 0 0 0 3 4 4 2 4 35 14 31 49 0 0 0 14 2295 2172 1964 1944 1978 1761 2170 2533 1944 1742 1951 1807 1701 1644 1405 1410 1445 1526 1422 1680 1649
0 0 0 0 0 0 1 0 36 24 0 0 0 0 1 5 12 20 16 7 12 5 1 6 5 20 0 26 1980 1811 2222 1949 1800 1681 1999 2507 2123 1579 1618 1832 1519 1423 1370 1400 1423 1391 1240 1420 1445
0 0 0 0 0 0 0 24 153 0 0 0 0 1 5 9 13 11 16 17 11 10 10 0 2 2 0 37 531 1715 1909 1746 1468 1714 1794 2261 2488 1670 1695 1768 1469 1306 1186 1183 1048 1406 1305 1283 741
0 0 0 0 2 28 29 160 218 0 0 0 4 10 8 9 14 9 9 10 20 16 6 6 4 14 9 13 161 2041 1637 2148 1894 1978 2013 2301 2482 2087 1497 1572 1592 1201 1028 1027 1328 1069 1244 1398 933
0 0 0 46 102 106 145 111 130 2 8 13 13 11 13 21 22 21 8 8 20 21 14 3 3 4 2 7 632 2344 1681 2162 1562 2032 2406 2201 1976 1898 2313 1538 1728 1491 1162 986 1211 1093 1156 1192 1135
0 10 34 89 130 139 34 86 2 3 4 5 15 18 13 21 24 24 11 11 10 17 18 16 9 7 2 5 4 0 1332 1433 2157 1232 1898 1901 1454 1467 2069 2322 2197 1477 1230 1095 1210 1080 979 1188 837
0 16 76 22 102 77 47 148 9 1 5 7 7 20 14 21 25 18 15 15 11 21 16 36 21 11 3 10 6 6 6 1 2 0 1 1059 1430 1404 1594 1648 1868 1885 1447 1197 1060 1029 926 1110 855
18 22 69 140 77 290 175 8 5 0 7 7 7 13 17 22 26 17 11 13 11 3 1 24 21 13 9 9 8 9 9 10 3 5 2 8 5 264 1730 1771 1468 1311 1099 1063 1170 1035 1634 1534 1505
4 26 35 113 115 148 134 4 15 11 15 23 22 17 25 14 18 15 10 14 10 0 7 35 35 14 19 19 18 23 12 13 10 3 3 7 3 2 0 1648 1667 1148 917 1010 1051 1089 1158 1316 1135
44 46 41 60 62 119 151 13 19 21 19 18 27 29 26 25 21 11 7 10 8 15 0 18 26 16 9 10 18 19 29 19 6 6 6 5 5 3 3 96 1157 1078 826 546 610 616 622 796 502
0 15 16 59 30 29 446 15 19 11 10 14 18 25 21 21 18 12 10 8 7 7 8 33 10 11 9 7 9 12 7 6 8 9 6 10 9 7 4 3 2 35 210 496 326 358 314 515 694

GFSSGP_con_sbcape_126.txt.gz
CAPE
0 0 0 0 0 0 0 0 0 0 0 0 0 0 0 0 0 0 0 277 872 2408 2010 1695 1635 1841 1928 2080 2149 2222 2263 2254 2173 2034 2071 2071 2097 2194 2247 2251 2304 2546 2748 2409 2066 2029 1876 2199 2064
0 0 0 0 0 0 0 0 0 0 0 0 0 0 0 0 0 0 0 442 1299 1458 2369 2054 1599 1779 1915 1977 2142 2306 2483 2434 2223 2128 2181 2150 2172 2303 2356 2312 2192 2279 2609 2273 1965 1875 2135 2211 1747
0 0 0 0 0 0 0 0 0 0 0 0 0 0 0 0 0 0 97 505 1444 1546 2749 2297 1576 1682 1840 1923 2146 2364 2519 2374 2208 2192 2303 2281 2312 2414 2454 2217 2090 2178 2602 2415 1838 2017 2024 1721 1454
0 0 0 0 0 0 0 0 0 0 0 0 0 0 0 0 0 0 165 476 1684 2043 2680 1367 1527 1580 1752 1880 2128 2375 2379 2256 2135 2204 2358 2413 2461 2525 2442 2134 2068 2173 2397 2422 2118 2051 1802 1362 1248
0 0 0 0 0 0 0 0 0 0 0 0 0 0 0 0 0 0 210 951 1813 2460 2681 1989 1515 1566 1718 1879 2094 2295 2257 2189 2149 2245 2339 2433 2524 2523 2285 2075 2019 2060 2067 2329 1906 1875 1442 1210 1158
0 0 0 0 0 0 0 0 0 0 0 0 0 0 0 0 0 0 0 618 1881 2597 3470 2159 1594 1578 1681 1748 1817 2001 2096 2125 2145 2230 2304 2435 2455 2352 2112 2006 1934 1974 2149 2065 1743 1486 1303 1143 1123
0 0 0 0 0 0 0 0 0 0 0 0 0 0 0 0 0 0 0 0 1803 2836 3784 3181 2408 1808 1570 1678 1594 1709 1902 2048 2095 2148 2230 2302 2247 2089 1982 1990 1897 2097 2017 1832 1541 1272 1145 1103 1055
0 0 0 0 0 0 0 0 0 0 0 0 0 0 0 0 0 0 0 0 0 2490 3334 3675 3109 2357 2145 2002 1550 1455 1677 1914 2035 2059 2120 2081 1767 1831 1879 1830 1829 1987 1809 1709 1381 1100 1032 1009 874
0 0 0 0 0 0 0 0 0 0 0 0 0 0 0 0 0 0 0 0 0 0 1965 3562 3074 2998 2672 2425 1932 1303 1389 1643 1866 1981 1921 1487 2036 1885 1683 1745 1738 1797 1621 1525 1209 991 936 830 670
0 0 0 0 0 0 0 0 0 0 0 0 0 0 0 0 0 0 0 0 0 0 0 3340 3473 2907 3131 2635 2527 1938 1723 1695 1983 2224 2148 2243 2204 2047 1881 1696 1544 1534 1372 1202 1014 889 722 553 844
0 0 0 0 0 0 0 0 0 0 0 0 0 0 0 0 0 0 0 0 0 0 0 0 3401 2766 2478 2904 2879 2372 2057 1786 1819 2042 2282 2284 2096 2048 1556 1435 1411 1425 1040 985 716 555 813 911 955
0 0 0 0 0 0 0 0 0 0 0 0 0 0 0 0 0 0 0 0 0 0 0 0 476 3017 2693 2542 2387 2778 2281 2060 1992 2067 2283 1977 2112 2130 1897 1756 1662 1613 1232 1246 860 925 913 991 1009
0 0 0 0 0 0 0 0 0 0 0 0 0 0 0 0 0 0 0 0 0 0 0 0 0 2840 2603 2400 2063 2459 2376 2033 1899 2071 2270 2233 2112 2189 1867 1683 1643 1598 1397 1423 929 918 936 1140 888
0 0 0 0 0 0 0 0 0 0 0 0 0 0 0 0 0 0 0 0 0 0 0 0 0 13 2498 2120 1926 2197 1921 2157 2408 2042 2175 2291 2318 2166 1907 1763 1698 1531 1520 1408 1170 1121 1108 1088 884
0 0 0 0 0 0 0 0 0 0 0 0 0 0 0 0 0 0 0 0 0 0 0 0 0 0 391 2465 2173 2004 2178 2238 1726 2532 2159 2324 2564 2298 1941 1831 1850 1625 1512 1435 1319 1209 1106 925 932
0 0 0 0 0 0 0 0 0 0 0 0 0 0 0 0 0 0 0 0 0 0 0 0 0 0 0 1481 2244 1806 1611 2015 1976 2066 2374 2290 2507 2537 2313 1902 1924 1862 1582 1391 1186 1043 950 947 863
0 0 0 0 0 0 0 0 0 0 0 0 0 0 0 0 0 0 0 0 0 0 0 0 0 0 0 0 2105 1764 1620 1914 1954 1605 1529 2303 2508 2323 2324 2149 1827 1928 1553 1349 1155 1128 1104 1012 849
0 0 0 0 0 0 0 0 0 0 0 0 0 0 0 0 0 0 0 0 0 0 0 0 0 0 0 0 753 1830 1574 1346 1748 1792 1862 1942 2161 2027 1867 1994 1961 2025 1544 1243 1417 1306 1261 1168 823
0 0 0 0 0 0 0 0 0 0 0 0 0 0 0 0 0 0 0 0 0 0 0 0 0 0 0 0 314 1401 1447 1107 1522 1578 1932 1947 1903 1981 1707 1592 2015 1978 1824 1637 1520 1538 1403 1350 1176
0 0 0 0 0 0 0 0 0 0 0 0 0 0 0 0 0 0 0 0 1 1 0 0 0 0 0 0 0 313 986 1101 1175 1502 1569 1948 1813 1859 1720 1504 1503 1539 1490 1540 1287 1293 1422 1413 1165
0 0 0 0 0 0 0 0 0 5 0 0 0 0 0 0 0 0 2 4 7 3 2 7 0 0 0 0 0 0 0 894 855 1265 1327 2220 1985 1873 1747 1451 1239 1328 1203 1457 1127 989 1065 1229 1086
0 0 0 0 0 0 0 0 0 33 0 0 0 0 0 0 0 2 8 4 2 3 3 7 10 0 0 1 0 0 1 5 707 1140 1243 2082 1969 1820 1678 1428 1246 1002 1153 1076 1232 929 1017 846 1146
0 0 0 0 0 0 0 55 0 0 0 0 0 1 0 0 4 9 8 4 8 2 6 9 11 5 1 0 3 6 5 1 70 1061 1157 1571 1899 1610 1537 1321 1241 1088 901 986 977 955 924 786 1015
0 0 0 0 0 12 23 20 1 0 0 0 1 1 0 5 8 5 13 14 12 15 13 8 8 7 0 6 7 21 15 6 0 961 826 1294 1810 1414 1195 1154 1233 1141 865 849 852 795 1011 766 886
0 0 3 0 12 20 50 66 0 0 0 3 7 3 4 10 10 16 17 24 23 18 9 10 7 7 5 1 10 15 20 22 213 703 959 1094 1514 1541 1145 1018 1076 1055 893 808 809 903 813 760 771
0 1 1 0 5 2 15 16 0 0 0 1 1 6 4 8 14 18 15 19 15 13 7 5 4 5 6 4 11 1 0 4 8 0 15 512 918 1188 1486 957 923 1036 993 845 797 749 843 723 678
1 0 14 24 8 17 30 1 0 0 0 2 4 4 11 12 14 11 14 14 10 3 0 1 3 8 15 11 11 6 3 1 4 2 0 5 1 0 0 749 1276 1326 1138 988 836 879 810 686 666
0 0 11 57 23 3 12 7 2 1 5 11 8 11 12 11 8 11 12 9 6 1 0 1 3 11 16 13 17 7 6 8 6 1 2 3 4 0 7 3 251 1039 1095 990 988 955 825 699 669
0 9 23 28 35 30 40 2 4 7 6 6 5 14 15 10 5 13 12 6 3 0 0 0 1 5 11 23 12 5 7 8 4 4 4 4 3 2 4 5 5 3 11 198 789 994 897 1036 971
0 1 0 6 2 8 10 3 6 3 3 2 1 12 14 11 8 10 13 7 3 1 0 0 0 4 3 21 6 8 8 12 7 3 8 5 3 3 3 3 6 6 1 1 0 1 17 396 554

GFSSGP_con_sbcape_129.txt.gz
CAPE
0 0 0 0 0 0 0 0 0 0 0 0 0 0 0 0 0 0 0 301 1919 1643 1641 1643 1665 1860 2031 2141 2187 2206 2201 2233 2136 2056 2030 1996 2027 2035 1980 2000 2240 2522 2472 2316 2065 2079 1687 1644 1560
0 0 0 0 0 0 0 0 0 0 0 0 0 0 0 0 0 0 20 383 1129 1936 1639 1610 1618 1782 1958 2038 2156 2264 2445 2388 2201 2181 2162 2122 2177 2190 2140 1998 2070 2336 2256 2405 2084 1956 2049 1774 1538
0 0 0 0 0 0 0 0 0 0 0 0 0 0 0 0 0 0 282 807 1387 2358 2060 1721 1644 1706 1865 1974 2155 2297 2401 2223 2120 2175 2320 2276 2325 2368 2274 2005 1959 2214 2307 2370 1933 2056 1970 1633 1363
0 0 0 0 0 0 0 0 0 0 0 0 0 0 0 0 0 0 536 896 1677 2287 2369 1471 1596 1662 1790 1954 2178 2337 2373 2115 1992 2076 2346 2405 2481 2494 2263 1955 1964 2180 2399 2356 2097 2103 1696 1293 1216
0 0 0 0 0 0 0 0 0 0 0 0 0 0 0 0 0 0 0 712 1219 2341 1888 1515 1543 1641 1725 1936 2172 2308 2261 2103 2029 2074 2205 2344 2488 2457 2114 1934 1926 2042 2115 2282 1948 1799 1368 1141 1100
0 0 0 0 0 0 0 0 0 0 0 0 0 0 0 0 0 0 0 0 1447 2478 2105 1712 1596 1622 1650 1771 1940 2152 2122 2108 2083 2148 2152 2279 2329 2244 2038 1912 1848 1843 1923 1874 1634 1381 1165 1057 1070
0 0 0 0 0 0 0 0 0 0 0 0 0 0 0 0 0 0 0 0 0 1766 2451 1869 1727 1685 1672 1596 1667 1894 1984 2053 2065 2121 2165 2220 2216 2107 1963 1909 1799 1787 1864 1660 1378 1185 1048 1010 1022
0 0 0 0 0 0 0 0 0 0 0 0 0 0 0 0 0 0 0 0 0 3 2016 2385 1924 1606 1472 1368 1515 1594 1784 1916 1954 2016 2052 2072 2022 1959 1872 1850 1775 1863 1804 1603 1216 1019 973 964 881
0 0 0 0 0 0 0 0 0 0 0 0 0 0 0 0 0 0 0 0 0 0 0 2142 2392 1931 1681 1611 1418 1410 1515 1798 1920 1901 1872 1602 1603 1660 1714 1674 1736 1835 1672 1469 1107 884 872 791 687
0 0 0 0 0 0 0 0 0 0 0 0 0 0 0 0 0 0 0 0 0 0 0 2 2374 2439 2028 2116 1735 1229 1185 1306 1458 1753 1509 1464 1527 1471 1687 1581 1620 1689 1550 1338 985 800 725 416 366
0 0 0 0 0 0 0 0 0 0 0 0 0 0 0 0 0 0 0 0 0 0 0 0 73 1676 2491 2502 1865 1402 1265 1160 1400 1759 1641 1649 1682 1544 1469 1130 1287 1160 1134 915 739 607 429 490 485
0 0 0 0 0 0 0 0 0 0 0 0 0 0 0 0 0 0 0 0 0 0 0 0 0 362 1855 1976 1902 1818 1600 1300 1303 1459 1667 1735 1573 1398 1111 1081 1095 1043 860 637 520 364 487 509 531
0 0 0 0 0 0 0 0 0 0 0 0 0 0 0 0 0 0 0 0 0 0 0 0 0 0 643 1945 1872 1665 1943 1682 1458 1391 1527 1671 1573 1315 1148 1142 1171 1113 879 699 405 450 494 469 465
0 0 0 0 0 0 0 0 0 0 0 0 0 0 0 0 0 0 0 0 0 0 0 0 0 0 0 1482 1817 1454 1673 1755 1499 1499 1662 1733 1385 1364 1204 1257 1207 1122 937 734 506 510 429 417 444
0 0 0 0 0 0 0 0 0 0 0 0 0 0 0 0 0 0 0 0 0 0 0 0 0 0 0 573 1776 1601 1368 1586 1402 1512 1684 1953 1547 1422 1239 1145 1133 1138 997 681 560 382 366 462 436
0 0 0 0 0 0 0 0 0 0 0 0 0 0 0 0 0 0 0 0 0 0 0 0 0 0 0 0 443 1607 1314 1319 1416 1198 1621 1944 1829 1558 1278 1245 1175 1039 931 748 702 543 514 652 703
0 0 0 0 0 0 0 0 0 0 0 0 0 0 0 0 0 0 0 0 0 0 0 0 0 0 0 0 0 120 1048 1039 1220 1088 1670 1676 1839 1778 1455 1384 1180 1086 1000 708 770 581 518 550 670
0 0 0 0 0 0 0 0 0 0 0 0 0 0 0 0 0 0 0 0 0 0 0 0 0 0 0 0 0 0 362 1191 979 932 1327 1805 1994 1995 1670 1389 1187 1273 1078 822 635 641 390 486 392
0 0 0 0 0 0 0 0 0 0 0 0 0 0 0 0 0 0 0 0 0 0 0 0 0 0 0 0 0 0 0 4 772 881 1068 1090 1842 2048 1946 1400 1232 1340 1066 910 777 553 673 618 426
0 0 0 0 0 0 0 0 0 0 0 0 0 0 0 0 0 0 0 0 0 0 0 0 0 0 0 0 0 0 0 0 0 174 823 1102 1170 1844 1877 1529 1462 1421 1160 727 674 744 686 630 398
0 0 0 0 0 0 0 0 0 0 0 0 0 0 0 0 0 0 0 0 0 0 0 0 1 3 1 0 0 0 0 0 0 0 232 776 1186 1526 1710 1372 1391 1083 1105 950 884 791 829 945 506
0 0 0 0 0 0 0 0 0 0 0 0 0 0 0 0 0 0 0 0 0 0 0 0 1 2 2 1 2 2 2 3 0 0 0 59 831 1338 1460 1277 1065 1198 991 1034 867 666 738 857 760
0 0 0 0 0 0 0 0 0 0 0 0 0 0 0 0 0 0 0 0 0 0 1 3 1 1 3 5 2 6 0 3 0 0 0 0 152 1152 1295 1244 1055 960 893 793 864 587 540 740 725
0 0 0 0 0 0 0 0 0 0 0 0 0 0 0 0 0 1 0 0 0 0 1 4 0 6 2 3 6 14 7 2 0 0 0 0 1 520 1350 1225 894 895 858 770 715 696 572 551 649
0 0 0 0 0 0 0 0 0 0 0 0 0 0 0 2 3 1 1 1 3 2 6 8 7 6 5 7 8 8 5 18 11 0 0 7 0 0 1056 1164 784 806 738 707 661 563 677 599 548
0 0 0 0 0 0 0 0 0 0 0 0 0 3 3 3 0 0 0 1 3 6 3 5 4 5 9 12 6 6 12 1 11 2 12 0 0 0 402 933 693 804 677 619 572 567 580 600 543
0 0 0 7 0 0 0 0 8 0 0 0 0 0 3 5 1 0 0 0 4 2 0 2 5 5 5 11 10 6 6 4 4 0 0 0 0 0 5 424 701 772 589 531 542 575 657 536 537
0 0 0 0 0 2 0 0 0 0 1 0 1 2 5 4 0 0 0 1 2 0 0 0 2 4 3 5 9 13 9 5 4 2 1 2 1 0 0 2 3 334 308 544 505 527 538 595 506
0 0 9 13 17 10 10 0 3 0 0 0 0 0 7 0 0 0 0 0 2 0 0 0 0 0 0 2 6 9 13 5 4 5 2 3 2 0 0 5 7 8 4 6 2 55 195 682 576
0 0 1 0 0 0 0 0 1 0 0 0 1 2 1 0 0 0 1 1 0 2 0 0 0 0 0 0 0 7 9 14 7 4 4 5 7 4 3 3 4 5 18 8 7 6 9 5 4

GFSSGP_con_sbcape_132.txt.gz
CAPE
0 0 0 0 0 0 0 0 0 0 0 0 0 0 0 0 0 0 0 543 1872 1517 1517 1703 1766 1977 2100 2207 2160 1981 2082 2153 2064 1994 1905 1921 1965 2049 2130 2297 2435 2564 2532 2111 1883 1890 1721 1617 1563
0 0 0 0 0 0 0 0 0 0 0 0 0 0 0 0 0 166 218 662 1977 1708 1572 1586 1686 1858 2031 2114 2226 2222 2369 2302 2151 2135 2084 2099 2109 2040 2120 2154 2248 2445 2573 2492 2131 1913 1859 1738 1447
0 0 0 0 0 0 0 0 0 0 0 0 0 0 0 0 0 129 107 1706 2135 1913 1767 1677 1646 1752 1906 2036 2177 2273 2394 2217 2109 2136 2263 2274 2281 2221 2068 1973 2169 2374 2646 2612 2158 2210 2148 1515 1263
0 0 0 0 0 0 0 0 0 0 0 0 0 0 0 0 0 0 0 1837 2303 2259 2160 1611 1589 1669 1788 2041 2178 2291 2294 2089 1960 2060 2310 2393 2438 2394 2157 1837 2029 2401 2434 2612 2542 2475 1779 1262 1178
0 0 0 0 0 0 0 0 0 0 0 0 0 0 0 0 0 0 0 0 2294 1998 1784 1530 1459 1546 1681 2013 2225 2325 2296 2062 1933 2019 2193 2338 2463 2404 2047 1808 1955 2218 2303 2373 2228 1947 1366 1128 1111
0 0 0 0 0 0 0 0 0 0 0 0 0 0 0 0 0 0 0 0 195 2340 1766 1583 1591 1554 1587 1733 1982 2167 2174 2063 1952 1970 2093 2252 2281 2160 1956 1827 1866 1928 2029 1970 1770 1468 1198 1061 1039
0 0 0 0 0 0 0 0 0 0 0 0 0 0 0 0 0 0 0 0 0 1685 1995 1731 1605 1579 1543 1540 1653 1925 2055 2028 1974 1987 2014 2137 2093 1974 1907 1866 1821 1779 1820 1678 1466 1205 1043 1022 1011
0 0 0 0 0 0 0 0 0 0 0 0 0 0 0 0 0 0 0 0 0 0 0 1702 1542 1473 1415 1320 1491 1627 1850 1931 1963 1955 2012 2034 1956 1877 1849 1835 1809 1787 1776 1560 1305 1074 956 959 905
0 0 0 0 0 0 0 0 0 0 0 0 0 0 0 0 0 0 0 0 0 0 0 70 2143 1627 1281 1179 1227 1381 1539 1731 1867 1838 1927 1777 1698 1676 1726 1684 1692 1762 1751 1529 1161 959 899 834 710
0 0 0 0 0 0 0 0 0 0 0 0 0 0 0 0 0 0 0 0 0 0 0 0 0 785 1712 1623 1454 1165 1137 1355 1561 1587 1662 1533 1451 1473 1739 1626 1579 1709 1625 1444 1042 849 762 554 405
0 0 0 0 0 0 0 0 0 0 0 0 0 0 0 0 0 0 0 0 0 0 0 0 0 0 20 1408 1715 1096 937 1020 1169 1391 1436 1264 1460 1334 1426 1296 1284 1247 1284 1080 825 611 555 371 244
0 0 0 0 0 0 0 0 0 0 0 0 0 0 0 0 0 0 0 0 0 0 0 0 0 0 0 0 691 1493 1123 982 1003 1341 1472 1558 1444 1274 1268 1138 1094 1169 1070 807 616 493 348 343 271
0 0 0 0 0 0 0 0 0 0 0 0 0 0 0 0 0 0 0 0 0 0 0 0 0 0 0 0 0 160 1325 1169 1059 1019 1514 1712 1641 1389 1092 1034 1021 1121 815 641 420 268 352 294 298
0 0 0 0 0 0 0 0 0 0 0 0 0 0 0 0 0 0 0 0 0 0 0 0 0 0 0 0 0 0 44 1401 1188 1069 1212 1753 1674 1481 1100 1048 1074 1006 828 595 402 317 273 233 190
0 0 0 0 0 0 0 0 0 0 0 0 0 0 0 0 0 0 0 0 0 0 0 0 0 0 0 0 0 0 0 31 1049 1263 1115 1405 1692 1410 1206 1117 1080 1038 822 606 312 196 130 80 176
0 0 0 0 0 0 0 0 0 0 0 0 0 0 0 0 0 0 0 0 0 0 0 0 0 0 0 0 0 0 0 0 33 783 1187 1272 1603 1365 1259 1139 1121 1011 811 596 452 279 255 150 207
0 0 0 0 0 0 0 0 0 0 0 0 0 0 0 0 0 0 0 0 0 0 0 0 0 0 0 0 0 0 0 0 4 491 767 1067 1454 1420 1313 1227 1108 870 883 625 599 360 392 301 310
0 0 0 0 0 0 0 0 0 0 0 0 0 0 0 0 0 0 0 0 0 0 0 0 0 0 0 0 0 0 0 0 0 0 409 701 976 1341 1315 1399 1066 857 911 670 590 545 229 355 492
0 0 0 0 0 0 0 0 0 0 0 0 0 0 0 0 0 0 0 0 0 0 0 0 0 0 0 0 0 0 0 0 0 0 0 58 627 784 1199 1346 1011 1033 945 886 585 501 317 168 15
0 0 0 0 0 0 0 0 0 0 0 0 0 0 0 0 0 0 0 0 0 0 0 0 0 0 0 0 0 1 0 0 0 0 0 0 0 361 856 1218 1135 1130 1126 857 566 454 318 333 56
0 0 0 0 0 0 0 0 0 0 0 0 0 0 0 0 0 0 0 0 0 0 0 0 0 1 1 1 1 2 2 2 0 0 0 0 0 28 520 838 1274 1078 1063 885 605 559 475 433 53
0 0 0 0 0 0 0 0 0 0 0 0 0 0 0 0 0 0 0 0 0 0 0 0 1 0 7 0 1 0 0 1 2 2 0 0 0 0 9 536 893 997 1061 882 654 573 438 443 481
0 0 0 0 0 0 0 0 0 0 0 0 0 0 0 0 0 0 0 0 0 0 0 0 3 0 2 0 7 3 7 2 0 1 2 0 0 0 0 0 339 869 994 983 753 616 504 537 570
0 0 0 0 0 0 0 0 0 0 0 0 0 0 0 0 0 0 0 0 1 0 0 0 7 5 3 10 10 9 14 4 2 1 3 0 0 0 0 0 0 560 1019 929 747 604 621 584 599
0 0 0 0 0 0 0 0 0 0 0 0 0 0 0 0 0 0 0 3 3 4 1 2 6 4 1 10 10 11 9 16 23 18 6 7 0 0 0 0 0 0 352 840 860 779 679 586 483
0 0 0 0 0 0 0 0 0 0 0 0 0 0 1 0 0 0 0 0 3 7 4 3 5 5 7 8 7 13 12 13 9 13 2 1 1 0 0 0 0 5 10 792 516 596 620 421 332
0 0 0 0 0 0 0 0 0 0 0 0 0 0 1 0 2 0 0 0 1 4 2 2 3 5 3 10 6 8 11 11 10 4 3 4 0 0 0 0 0 0 1 344 590 537 406 493 376
0 0 0 0 0 3 0 0 0 0 0 0 0 0 0 0 0 0 0 0 0 2 0 3 4 3 5 1 4 7 8 7 8 6 3 3 2 1 0 0 0 0 144 349 510 503 506 526 480
0 0 1 1 0 12 0 0 0 0 0 0 0 3 0 0 0 0 0 0 0 0 0 1 1 1 1 3 3 5 4 6 8 7 4 4 3 3 1 0 5 2 2 0 155 146 311 480 448
4 17 24 2 0 0 0 0 0 0 0 0 0 0 0 0 0 0 0 0 0 0 0 0 0 0 0 0 0 1 1 2 4 8 8 5 4 4 5 1 0 0 2 2 4 8 4 0 1